GFSMA_sfc_temp_000.txt.gz
Temp
60 60 65 63 61 58 55 54 53 53 52 53 53 52 52 51 50 53 52 62 67 69 72 72 73 73 73 74 74 73 73 73 73 73 73 72 72 72 72 73 73 72 72
62 63 61 57 57 54 53 52 50 50 49 49 51 50 49 50 50 51 52 52 63 65 68 69 69 70 72 72 72 72 71 71 71 72 72 71 70 71 71 71 72 72 72
64 62 58 54 52 51 51 50 50 49 48 50 47 49 49 48 50 50 51 51 52 59 63 65 66 67 68 69 70 70 70 70 71 71 70 69 69 70 70 69 70 70 70
62 59 53 51 50 49 49 48 47 47 46 45 45 47 47 48 48 48 50 49 50 51 55 61 62 63 64 66 67 68 68 68 68 68 68 68 68 68 68 68 68 69 69
58 53 50 49 49 48 47 47 46 44 43 45 48 47 45 45 47 51 47 49 49 48 48 56 57 58 60 63 64 65 66 66 66 67 67 66 67 67 67 67 68 68 68
52 50 49 48 48 47 45 45 44 43 42 42 47 48 43 45 46 45 46 49 47 48 47 48 45 48 57 59 60 62 63 64 65 66 65 65 66 65 66 66 66 67 67
51 49 48 47 46 45 43 43 42 41 42 42 39 42 42 44 44 45 45 45 45 46 46 46 46 45 45 55 56 60 61 62 64 63 63 64 64 64 64 65 65 66 66
50 50 47 45 45 43 42 41 40 40 40 40 37 36 36 40 43 49 44 45 43 44 46 49 47 47 44 43 46 56 58 60 61 62 62 63 63 63 63 63 64 64 65
48 47 46 45 43 42 40 40 39 39 37 39 39 38 34 31 35 40 43 42 44 41 42 42 45 45 44 43 46 47 54 57 59 60 61 61 61 62 62 62 62 63 63
47 46 45 44 43 41 40 41 42 38 38 36 37 43 38 36 32 31 38 43 39 44 39 39 42 42 43 43 46 50 53 56 58 59 60 60 60 60 60 61 62 62 62
45 45 44 43 42 41 40 39 38 37 37 36 35 35 34 34 33 31 30 33 40 41 42 39 38 42 43 43 40 44 52 55 57 57 58 58 58 59 60 60 61 61 61
42 43 44 42 41 40 39 38 38 37 36 36 35 34 34 33 32 30 29 32 32 36 39 41 39 39 40 39 45 50 52 53 55 55 56 56 57 57 58 58 58 59 59
41 41 41 41 40 39 39 38 37 36 36 34 33 34 34 34 34 33 31 30 29 34 34 36 38 38 43 41 41 47 50 52 52 53 54 55 54 55 55 55 56 56 57
41 41 40 40 39 39 38 37 36 36 36 34 33 33 33 33 34 33 30 29 26 28 33 30 37 37 37 39 42 49 45 49 49 50 51 52 52 51 51 52 53 54 54
43 40 40 39 38 38 37 36 35 35 34 33 33 32 32 33 33 32 31 30 27 23 26 30 30 38 36 38 40 43 42 46 48 48 49 49 48 48 49 50 50 50 51
40 39 39 38 38 37 36 35 34 34 34 33 35 32 31 32 32 31 30 31 30 27 24 32 33 36 37 40 42 42 41 45 46 46 46 46 47 47 47 47 48 49 50
39 38 38 37 36 35 34 33 33 35 33 33 32 32 32 32 30 30 30 30 29 29 26 30 34 36 36 36 38 38 39 38 39 42 44 45 45 45 46 46 47 47 48
38 37 37 36 35 35 34 33 33 33 32 31 32 31 30 36 30 30 29 29 29 30 28 26 31 33 34 36 36 34 36 39 37 41 43 43 44 44 44 44 44 45 45
37 36 36 35 34 34 34 34 33 33 32 31 31 29 30 29 28 29 29 29 30 33 31 30 29 33 34 34 33 34 34 34 36 40 41 41 42 42 42 43 43 44 44
36 35 34 34 34 33 34 34 34 32 31 31 31 30 29 29 28 29 30 31 33 31 31 30 30 31 31 31 32 29 29 32 31 35 37 38 40 40 41 41 41 41 41
35 34 34 33 32 34 39 36 35 32 29 29 29 30 31 33 38 38 36 33 32 31 30 28 29 29 28 28 27 29 28 29 30 32 31 32 32 32 33 36 37 38 39
33 32 31 31 30 36 40 43 40 31 30 29 27 29 29 34 33 39 39 39 38 32 29 27 27 26 26 27 28 27 27 25 22 33 30 29 32 30 32 32 36 38 39
30 30 29 29 28 28 40 41 41 32 30 28 30 30 31 35 34 31 34 38 34 37 37 31 27 26 26 28 27 26 26 25 25 29 29 25 30 28 32 33 36 37 38
28 28 28 28 27 31 39 40 40 31 29 28 30 29 28 29 30 34 34 31 29 28 31 32 30 30 31 32 31 30 28 27 28 29 30 21 28 26 30 31 35 37 38
27 27 28 27 26 27 37 38 37 30 30 29 30 29 29 30 36 39 34 29 29 29 34 36 36 36 36 36 34 30 24 22 21 25 28 25 25 25 27 28 31 36 38
28 29 29 27 30 26 34 37 37 31 28 30 30 30 35 35 38 37 33 30 24 26 28 28 28 28 30 29 34 30 26 21 21 20 27 23 24 25 22 29 28 31 30

GFSMA_sfc_temp_003.txt.gz
Temp
70 70 66 63 66 67 66 66 65 65 65 65 65 65 65 65 66 67 67 63 66 68 70 71 71 72 73 73 73 73 72 72 72 72 72 71 71 71 71 72 72 73 73
65 64 62 61 65 65 64 64 63 63 63 63 63 63 63 63 64 64 65 65 62 64 67 67 68 69 69 70 71 71 71 71 71 72 71 71 70 70 71 71 71 71 71
65 63 63 62 62 62 63 62 62 62 61 62 62 62 62 63 63 63 63 63 63 60 63 65 65 66 67 68 68 68 69 69 69 69 69 69 69 69 69 69 69 69 70
64 62 59 60 61 61 61 60 59 60 59 59 59 60 60 61 62 62 62 62 62 62 60 61 61 62 63 65 66 66 67 67 67 67 68 68 67 67 68 68 68 68 69
63 62 60 58 60 59 58 59 57 57 56 56 58 60 58 59 60 61 61 61 60 60 61 58 57 58 60 61 63 63 65 65 65 66 67 66 66 67 67 67 67 68 68
60 59 58 58 59 57 57 57 56 55 54 53 55 57 57 58 59 60 60 61 59 58 59 58 58 59 57 58 60 61 63 63 64 65 66 65 65 66 66 66 66 67 67
59 58 57 57 56 55 54 55 54 53 52 52 53 55 56 57 58 59 60 60 57 57 57 58 58 58 58 55 56 57 60 61 62 63 64 64 64 65 65 65 65 65 66
57 56 56 54 54 53 53 52 51 52 51 50 48 48 48 55 57 58 56 56 56 57 56 57 56 57 57 57 55 56 57 59 60 62 62 63 63 64 64 64 64 64 64
56 55 54 54 52 52 50 50 50 49 48 49 49 49 47 45 46 53 55 55 55 53 55 54 54 55 54 54 54 54 54 56 58 60 61 62 62 62 63 63 64 64 64
54 54 53 52 52 51 50 50 50 48 48 45 49 49 49 47 43 42 50 52 51 50 51 52 52 52 53 53 52 51 52 55 57 59 60 60 61 61 62 62 62 63 63
53 52 52 51 50 50 49 49 48 47 47 47 45 45 45 46 45 41 39 44 47 49 50 50 50 51 51 52 52 51 53 55 57 58 59 59 60 60 61 61 62 62 62
50 50 50 49 49 49 48 47 47 46 46 45 45 44 44 42 42 40 38 40 40 45 46 48 49 50 51 51 50 50 51 53 55 56 57 57 58 58 58 58 58 58 58
49 48 49 49 48 47 47 47 46 46 45 45 44 44 44 43 43 41 39 38 37 41 44 47 48 48 49 49 49 49 49 51 52 53 54 55 55 55 55 55 55 54 55
49 48 48 48 47 47 47 46 46 45 45 45 43 43 43 43 42 41 39 36 34 39 42 42 47 47 48 47 48 47 48 49 49 50 52 52 52 51 52 50 51 52 53
48 47 47 47 46 46 45 45 45 44 44 44 43 43 41 42 42 42 40 39 35 30 33 40 40 45 45 46 46 47 47 47 48 49 49 49 49 48 48 49 50 50 51
47 46 46 46 45 45 44 44 44 43 43 43 43 41 41 41 41 41 40 39 38 34 31 39 40 42 44 45 46 46 46 46 46 47 47 47 47 47 47 48 48 48 49
46 46 45 44 44 43 43 43 43 42 41 41 41 40 39 40 40 40 39 39 37 37 33 37 41 43 42 42 44 45 45 45 45 45 46 46 46 45 45 45 45 46 46
45 44 44 43 43 42 42 42 41 41 40 39 39 38 38 39 38 38 38 37 37 38 35 32 37 39 40 42 42 41 42 44 44 43 43 44 44 44 44 44 43 44 44
43 43 43 42 41 41 41 41 41 40 39 38 38 37 37 37 36 37 37 36 37 37 37 35 34 39 40 40 38 40 40 41 42 41 42 42 42 42 43 43 44 44 44
42 42 41 40 39 40 40 41 41 40 38 38 38 37 37 36 36 36 37 37 37 37 37 36 34 33 36 38 38 36 35 38 38 40 40 40 41 41 42 42 42 41 41
41 40 39 39 39 40 41 42 41 39 37 37 37 37 38 38 39 39 39 38 37 36 34 32 32 33 33 34 32 34 33 34 36 37 37 38 39 39 39 39 39 39 39
39 39 38 37 37 39 40 42 42 40 38 36 36 37 38 37 37 38 39 39 39 33 31 31 31 31 32 33 34 32 31 29 27 38 35 33 37 36 38 39 38 39 40
37 36 36 36 35 36 40 41 41 40 37 37 36 37 37 38 37 36 37 38 36 38 38 36 32 32 31 33 30 29 30 30 29 34 32 29 35 33 37 38 38 38 39
36 36 35 34 34 35 38 39 39 38 37 37 36 37 36 35 36 36 36 33 34 36 36 36 35 35 34 35 35 34 32 30 32 34 35 25 33 32 36 36 37 37 38
35 34 34 34 33 34 37 38 38 37 36 36 37 37 36 36 37 39 35 31 34 34 37 37 36 36 36 36 35 32 28 25 25 29 33 30 30 30 32 34 37 38 38
34 34 34 33 33 33 35 37 38 37 35 35 37 37 37 37 38 38 35 34 29 30 31 32 32 33 33 33 34 33 29 23 23 23 32 26 29 29 25 35 36 36 37

GFSMA_sfc_temp_006.txt.gz
Temp
78 77 75 75 77 77 76 75 75 75 74 73 74 73 72 73 74 75 75 63 66 68 69 69 70 70 70 71 71 71 71 71 71 72 72 71 71 71 71 72 72 72 72
76 70 67 67 73 74 74 74 72 72 72 72 72 72 71 72 72 73 74 69 62 64 66 67 67 67 68 69 69 68 69 69 69 69 70 70 70 70 70 71 71 70 70
73 69 66 69 72 72 72 72 71 71 70 70 70 70 71 71 72 71 72 71 69 61 62 63 64 65 65 66 67 67 67 67 67 67 68 69 69 68 69 69 69 69 69
67 65 66 69 71 70 70 69 67 68 67 67 68 70 69 69 70 70 70 70 68 69 65 60 61 61 62 64 65 65 65 65 65 66 66 67 68 68 67 68 68 68 69
65 69 70 69 69 68 67 67 65 64 63 64 65 68 67 68 68 69 68 67 66 66 66 63 60 60 59 61 62 63 63 64 64 64 65 66 67 66 66 67 67 67 68
69 71 69 68 68 66 65 65 63 63 61 62 63 65 67 68 67 69 68 68 66 64 65 63 64 64 60 59 59 60 61 62 62 63 64 65 66 65 65 66 67 67 67
66 69 68 66 66 64 63 63 62 60 59 60 62 64 66 66 65 67 66 67 64 64 65 64 64 63 63 60 60 58 59 60 61 61 62 63 65 64 65 65 66 66 66
65 67 66 64 64 62 61 60 59 60 59 58 56 57 57 63 65 65 66 63 63 63 62 62 61 61 61 60 59 56 57 58 59 60 61 62 63 63 64 65 65 66 66
65 65 64 63 61 61 58 58 58 57 56 58 56 55 54 54 54 63 61 62 61 60 60 59 59 59 59 59 58 57 55 55 57 59 61 61 62 62 63 64 64 64 65
64 64 62 62 61 60 58 58 58 56 56 53 57 56 56 54 50 49 59 59 58 57 57 57 57 57 58 57 55 54 54 54 56 58 59 60 61 62 62 63 63 63 63
62 62 61 60 59 59 58 57 56 56 56 55 53 53 53 53 53 48 46 52 55 57 57 55 55 56 57 56 55 54 52 52 54 56 57 59 60 60 61 61 62 61 60
60 60 59 59 59 58 56 55 54 53 54 54 53 52 50 49 49 47 46 48 47 51 54 54 54 54 55 54 53 51 50 50 51 53 55 56 57 57 58 58 58 57 57
58 57 58 58 57 56 55 55 54 54 53 53 52 51 51 50 50 48 46 45 44 48 51 54 54 54 53 53 52 49 48 49 50 52 53 54 54 54 54 55 55 55 56
59 58 58 57 56 56 55 54 54 54 53 53 49 50 49 50 50 48 45 42 40 44 48 49 53 53 52 51 49 48 50 49 49 50 51 51 51 51 51 52 52 52 52
58 57 57 56 55 54 54 53 54 53 52 51 50 50 49 49 49 48 47 45 41 36 39 46 46 51 50 50 49 49 49 48 48 48 49 49 48 48 49 49 50 50 50
57 56 55 55 54 53 53 53 52 52 51 51 50 48 48 48 48 47 46 45 44 40 36 44 45 47 48 48 49 49 49 47 47 48 48 47 47 47 47 48 48 48 48
56 55 54 54 53 52 52 52 51 50 48 48 48 46 45 46 45 46 45 44 43 42 37 41 44 46 45 45 47 48 47 46 47 47 47 46 46 46 46 46 46 47 47
55 54 53 52 51 51 51 51 49 49 47 46 46 44 43 45 43 44 43 42 42 42 39 36 41 42 43 45 44 43 45 47 47 46 45 45 45 45 45 45 45 45 45
52 52 52 51 50 49 49 49 48 48 47 46 45 43 43 43 42 43 42 41 42 42 41 39 39 43 43 42 41 43 43 43 45 44 44 44 44 44 44 44 44 45 44
51 50 50 49 48 48 47 47 47 47 46 45 44 43 43 42 41 41 41 41 41 40 40 39 38 36 38 41 41 40 38 41 40 43 43 43 43 43 43 44 43 42 42
49 49 48 47 47 47 47 46 46 46 45 44 44 44 43 42 40 40 40 39 39 37 37 34 33 35 37 38 37 38 36 37 38 40 40 41 42 42 42 42 42 41 41
47 47 46 46 45 45 40 42 43 44 44 43 42 43 43 41 41 41 40 40 39 35 32 33 33 34 35 37 37 36 33 31 29 40 38 36 41 39 41 42 41 41 41
46 45 45 45 44 44 40 41 41 43 43 42 41 40 41 42 41 40 39 39 39 37 39 38 34 35 34 36 33 31 32 31 31 36 36 32 39 37 41 42 40 40 40
45 45 44 43 42 42 38 39 40 42 42 42 41 41 40 40 40 38 38 35 36 39 40 39 37 37 36 36 36 35 33 32 34 37 37 29 37 36 40 40 40 40 40
44 44 43 41 41 42 38 38 39 41 41 41 41 42 40 38 39 39 36 33 37 38 40 39 38 38 38 38 37 34 30 28 27 31 36 33 34 33 35 37 41 42 42
42 43 41 41 39 40 38 37 39 40 39 40 41 41 40 39 39 38 37 36 33 34 34 34 37 37 37 37 37 36 32 26 26 24 35 29 30 31 27 37 40 39 40

GFSMA_sfc_temp_009.txt.gz
Temp
78 79 78 78 77 77 76 75 75 75 75 74 75 74 73 73 74 74 69 63 65 67 68 69 69 69 69 69 69 69 69 70 69 69 70 70 70 70 70 71 71 71 71
77 76 74 74 75 75 75 74 73 72 72 72 72 73 72 72 72 72 72 64 63 64 65 66 66 67 67 68 68 68 67 68 68 68 68 68 69 69 69 69 70 70 70
76 73 72 72 73 74 74 72 72 72 70 71 70 71 70 70 70 70 70 70 64 62 63 63 64 64 65 65 67 67 67 66 66 66 67 67 68 69 69 68 68 69 69
75 72 71 72 73 72 71 69 68 67 67 67 66 68 69 69 69 70 69 69 67 67 63 62 62 62 63 63 64 65 65 64 65 65 65 66 66 67 68 67 68 68 68
70 67 68 71 71 69 68 68 66 64 62 63 64 66 66 66 68 69 68 67 66 65 64 64 62 62 62 62 63 63 63 63 63 63 64 64 65 66 67 67 67 67 68
69 71 71 70 70 67 67 66 64 64 61 60 63 65 65 66 67 67 67 68 66 64 64 63 61 62 63 62 62 62 61 61 62 62 62 63 64 64 66 66 66 67 67
69 69 70 69 68 66 64 64 64 61 59 60 61 61 64 65 65 66 66 65 65 64 63 62 61 60 61 61 61 60 60 60 60 60 61 62 62 63 65 65 66 66 67
66 67 68 66 65 63 62 62 60 60 59 58 55 57 56 61 63 64 64 63 63 62 61 61 60 59 58 57 57 58 59 58 58 59 60 61 62 63 63 64 65 65 66
64 65 66 65 64 63 59 59 59 57 55 57 57 54 52 52 53 61 61 61 61 60 60 59 59 58 57 56 56 56 56 55 56 57 59 60 60 61 63 63 64 65 65
61 64 65 64 63 62 59 59 59 57 57 53 57 57 56 54 48 48 58 59 60 58 58 57 57 56 56 56 56 55 55 53 55 56 57 57 59 60 61 62 63 64 64
60 63 64 62 61 61 59 58 57 56 56 54 53 52 53 53 53 48 45 50 55 57 57 56 55 55 55 55 53 53 54 53 53 54 55 56 58 59 60 60 61 61 61
59 62 62 61 60 59 57 56 56 55 54 54 53 52 50 48 48 47 45 46 46 51 54 54 54 54 54 53 53 53 52 51 52 53 54 55 56 57 57 58 58 58 58
57 59 60 60 59 57 57 56 55 54 54 53 52 51 52 50 51 48 46 44 43 47 49 54 54 54 55 52 51 51 50 51 51 53 54 54 54 54 54 54 55 55 56
60 60 60 60 58 57 57 56 55 54 54 52 51 50 50 50 50 49 45 42 38 42 46 47 52 53 51 51 50 50 49 50 50 51 52 52 52 51 51 52 52 53 53
61 60 59 58 57 57 56 55 54 54 53 52 51 51 49 50 49 48 47 45 40 34 37 44 45 50 49 49 49 48 48 49 50 50 50 50 49 49 50 50 50 50 50
59 58 57 57 56 56 55 54 53 53 52 52 51 49 48 49 48 47 46 45 44 39 34 42 44 46 47 48 48 47 47 48 48 48 48 48 48 48 48 48 48 49 48
58 57 56 56 55 55 54 53 53 52 50 50 49 47 46 46 45 45 45 44 42 41 36 39 43 45 44 43 45 46 45 45 45 47 48 48 47 47 47 47 47 47 48
58 56 56 55 54 53 53 52 51 51 49 48 47 46 44 47 44 44 43 42 41 42 38 35 40 40 41 43 43 42 43 46 44 46 47 47 47 46 46 46 46 46 47
55 54 54 53 52 51 51 51 51 50 49 48 47 45 44 43 42 42 42 40 41 42 40 37 36 40 40 40 39 41 41 42 45 45 45 45 45 45 45 46 46 46 46
53 53 52 51 50 50 49 49 48 48 48 47 46 45 44 42 41 40 39 39 40 38 38 35 34 34 35 38 39 37 36 38 38 42 42 43 44 44 45 45 44 44 44
52 51 50 49 49 48 49 44 46 46 45 45 45 45 44 44 42 42 40 38 38 35 34 32 32 32 33 34 34 35 34 34 35 37 36 37 38 38 39 42 42 42 43
49 49 48 47 46 47 41 42 42 42 43 43 42 43 43 42 43 43 42 42 40 34 32 31 31 31 32 34 34 33 31 28 26 36 34 33 36 35 37 38 42 43 43
48 47 46 46 45 46 40 41 41 41 41 42 41 40 40 43 41 40 41 41 39 40 39 36 33 33 32 33 32 29 30 29 28 32 32 29 35 33 37 40 42 42 42
46 46 45 45 44 44 39 40 40 40 42 42 41 41 40 40 40 39 37 34 36 36 38 39 36 35 35 34 32 33 32 30 31 33 34 26 33 31 36 36 40 41 42
45 44 44 43 43 43 40 39 39 39 40 40 42 42 41 40 41 41 37 32 34 36 40 40 39 39 40 40 39 34 28 27 26 29 33 29 30 30 31 32 36 42 43
43 43 42 43 42 40 42 39 39 38 37 39 40 40 42 40 41 41 36 34 31 32 33 33 35 36 37 37 39 36 32 25 25 23 31 27 27 28 24 32 33 34 35

GFSMA_sfc_temp_012.txt.gz
Temp
67 68 67 66 65 65 64 63 62 62 61 62 62 61 61 60 60 58 55 64 66 67 68 68 68 68 69 69 69 69 68 68 68 68 68 68 69 69 70 70 70 70 71
69 65 64 64 63 63 62 61 60 59 58 59 60 60 59 59 59 59 55 57 65 65 66 66 66 67 67 67 68 68 68 67 67 67 67 67 68 68 69 69 69 69 70
71 64 63 62 61 62 61 60 59 58 57 59 56 58 58 57 58 60 58 55 58 62 64 65 65 65 65 66 66 66 66 66 65 66 66 66 66 67 67 68 68 68 68
66 63 61 60 61 60 58 56 55 54 53 53 52 54 55 57 58 58 59 57 56 57 60 64 64 65 64 65 65 65 65 64 64 64 64 65 65 65 66 67 68 67 68
63 61 62 60 60 57 56 57 53 52 50 50 53 53 54 54 56 62 57 58 57 56 55 62 62 63 64 64 65 64 64 63 63 63 63 63 64 64 65 66 67 67 67
62 61 63 60 58 55 54 54 52 52 50 49 57 57 53 54 55 54 55 58 55 55 54 53 51 53 61 62 63 63 62 62 62 61 62 62 63 63 64 65 66 66 67
62 61 62 58 56 54 53 54 52 51 48 48 48 49 50 53 53 53 54 53 54 54 53 52 50 50 50 59 60 60 61 61 60 60 60 61 61 62 63 64 65 65 66
61 64 62 57 55 52 52 51 50 49 48 47 44 44 44 48 51 53 52 54 51 52 52 53 51 50 48 47 50 58 58 59 59 58 59 60 60 61 62 63 64 65 65
60 63 60 58 53 51 49 49 49 48 45 46 47 44 41 39 41 48 49 50 50 47 48 49 51 50 49 47 49 50 56 57 56 57 58 58 59 59 60 61 63 64 64
60 61 57 58 52 51 49 49 51 47 46 44 46 51 45 43 38 37 44 46 47 49 46 46 47 47 48 46 50 53 55 56 56 57 57 57 58 59 60 61 62 62 62
60 58 59 56 52 50 49 49 48 47 46 44 43 42 43 42 42 38 35 39 43 45 46 45 45 45 47 47 45 49 54 54 55 55 56 57 58 59 59 60 60 60 59
58 58 58 55 50 49 48 47 47 47 45 45 44 43 42 40 39 37 35 35 36 41 42 46 44 44 44 44 50 53 53 53 53 54 55 56 57 57 57 57 57 58 57
55 55 55 53 48 48 48 48 46 46 45 43 43 42 43 42 42 40 37 35 33 37 39 42 42 43 48 42 43 51 51 52 52 53 54 55 55 54 54 55 55 55 55
55 56 55 50 49 49 48 47 46 45 45 43 42 42 41 41 42 40 38 34 33 32 37 35 44 40 41 41 46 50 42 49 50 51 53 53 52 52 52 52 53 53 53
57 56 54 48 48 48 48 47 45 44 44 43 42 41 40 41 40 39 38 37 32 29 31 33 34 42 40 41 42 45 44 47 49 50 50 50 49 50 50 51 51 51 51
57 54 50 48 47 48 47 46 45 45 44 42 43 41 39 39 38 38 37 36 35 31 29 35 36 36 38 44 45 44 42 47 47 48 48 48 48 49 49 49 49 49 49
55 53 48 47 47 47 47 46 45 45 43 42 41 40 39 39 37 36 35 35 34 32 30 35 37 38 35 36 40 41 41 41 41 46 47 48 48 48 48 48 48 48 48
53 52 48 48 48 47 46 45 44 44 42 41 40 39 38 43 35 35 34 33 32 33 31 30 34 35 34 37 38 36 40 43 41 45 47 47 46 46 46 46 47 47 47
51 47 47 46 46 46 45 44 43 43 41 40 39 38 37 36 34 33 33 31 32 37 32 31 31 34 34 35 34 36 37 37 40 43 44 44 44 45 45 46 46 46 46
46 46 46 45 45 45 45 43 43 40 39 40 40 38 37 36 34 33 33 32 34 31 31 30 30 30 31 33 33 31 31 34 34 39 40 41 42 43 43 44 43 43 43
45 45 45 44 43 44 45 39 40 38 37 36 37 38 38 39 43 41 38 32 32 30 29 27 30 30 29 30 29 30 30 31 32 33 32 33 34 35 35 39 40 41 42
43 44 43 42 41 46 43 43 41 36 36 35 34 35 36 39 39 43 43 43 40 33 30 30 30 29 29 29 29 29 28 27 25 33 27 30 33 32 33 35 40 42 42
43 42 41 41 40 39 42 41 41 35 34 33 33 33 35 41 38 34 38 41 38 40 40 35 30 30 29 30 28 27 28 28 27 31 30 27 32 30 33 36 39 41 41
40 40 40 41 40 40 41 40 40 33 33 33 33 34 33 33 34 37 34 29 30 30 32 35 33 33 32 35 34 33 31 29 30 31 31 24 31 29 32 33 38 39 40
40 40 41 39 37 34 40 40 38 32 31 31 34 34 34 33 39 42 36 27 29 31 37 39 39 39 39 39 38 34 27 25 25 28 31 27 27 27 29 29 32 38 40
39 39 38 36 39 33 41 41 38 33 28 29 31 33 39 38 41 41 36 32 27 29 29 30 31 32 34 32 37 32 27 23 23 22 29 25 25 26 23 30 29 32 31

GFSMA_sfc_temp_015.txt.gz
Temp
63 63 65 66 62 61 60 59 58 58 57 58 58 58 57 56 53 54 54 65 67 68 68 69 68 68 68 69 69 69 68 68 68 68 67 67 68 68 69 69 70 69 70
63 62 64 60 60 60 58 58 56 55 54 55 55 55 55 56 54 53 54 57 65 66 67 67 67 67 67 67 68 67 67 67 66 66 66 66 66 66 67 68 69 69 69
65 62 60 59 58 58 58 56 54 53 53 54 52 54 54 53 55 54 53 53 56 63 65 66 66 66 66 66 67 67 66 65 64 64 65 65 65 65 66 66 67 68 68
65 62 59 58 58 57 55 53 52 51 49 49 48 50 51 54 54 53 53 52 52 55 60 64 64 64 65 66 66 66 65 64 63 63 63 64 64 64 65 65 66 67 68
66 62 59 57 57 55 53 54 50 49 47 47 51 50 51 51 53 57 53 53 53 52 51 60 60 61 62 63 64 64 64 63 63 62 62 62 63 63 64 65 65 66 67
61 61 58 56 55 53 52 51 50 48 47 46 54 53 50 51 52 51 52 55 52 52 50 51 49 51 60 61 61 62 62 62 61 61 61 61 61 62 62 63 64 65 66
63 60 58 56 54 52 51 51 50 48 46 45 46 47 48 50 51 51 50 49 51 51 51 49 48 47 48 57 58 60 60 61 61 60 60 60 60 61 61 62 63 64 65
59 59 58 55 53 50 50 49 49 47 45 44 43 42 42 46 48 49 48 51 47 48 50 50 48 47 45 45 48 57 58 59 59 59 59 59 60 60 61 62 62 63 64
59 59 57 57 52 51 47 47 47 47 44 44 44 43 41 40 39 45 46 46 46 45 44 46 48 48 47 45 47 49 55 57 58 58 59 59 59 60 61 61 62 63 63
57 58 57 58 52 49 48 47 48 45 45 43 44 47 43 42 38 38 42 43 43 45 42 43 43 45 45 44 49 52 55 56 56 57 58 58 59 59 60 61 61 62 61
60 59 58 55 51 48 49 47 45 45 45 43 42 41 41 40 39 37 34 37 40 42 42 41 42 42 43 43 42 46 54 55 56 56 57 57 58 59 60 60 60 59 59
57 58 57 52 54 51 50 45 45 45 44 43 42 41 40 39 38 36 33 33 34 38 40 41 40 40 41 40 48 51 52 53 54 55 56 56 57 57 58 58 57 57 57
55 56 55 53 51 48 48 45 44 44 43 42 42 40 41 40 40 38 35 33 31 34 36 38 38 40 44 39 40 49 50 50 52 53 54 55 55 54 54 55 55 56 56
56 56 55 52 52 50 46 45 43 42 42 41 41 41 40 40 40 39 36 33 29 30 32 33 38 36 38 38 45 49 40 48 49 50 52 52 51 51 51 52 53 53 54
55 55 54 52 51 50 45 44 43 43 42 41 41 40 39 39 38 37 36 35 31 26 29 30 31 37 37 38 41 43 40 46 48 49 49 49 49 49 50 50 51 51 51
56 54 52 51 48 48 45 43 42 43 42 40 41 39 38 37 37 36 35 34 32 29 26 31 32 33 35 40 41 41 40 45 45 46 47 47 48 48 49 49 49 49 50
54 52 51 50 49 45 44 43 43 42 42 42 39 39 38 37 35 34 33 33 32 29 27 30 32 33 31 33 36 38 39 37 39 45 46 46 47 47 47 47 48 48 48
53 52 51 50 48 45 44 43 43 42 41 40 39 38 37 41 34 33 32 31 30 30 27 28 30 32 31 34 34 33 37 40 38 42 45 45 45 45 45 46 46 47 47
51 51 50 47 46 43 43 42 42 41 40 39 38 36 36 35 33 31 31 30 30 35 29 28 29 32 32 33 32 33 34 35 37 42 43 43 43 43 44 44 45 45 45
50 49 48 46 43 43 44 41 41 38 37 38 38 36 35 34 33 31 31 31 32 29 28 27 28 28 30 32 30 29 30 32 33 37 39 40 41 41 42 42 42 42 42
47 47 45 43 42 43 44 39 39 37 36 36 35 36 36 38 43 41 37 31 30 28 28 25 25 28 29 29 28 30 28 30 31 32 32 31 32 33 34 37 38 39 40
45 44 41 40 41 44 44 44 40 37 36 33 31 33 34 39 38 42 43 43 40 29 22 24 28 27 27 29 29 28 28 26 24 32 27 30 32 31 32 33 38 40 41
42 39 39 41 40 40 43 42 41 36 32 30 31 32 33 39 37 33 37 41 40 41 40 34 28 27 27 29 28 26 28 28 27 30 30 27 31 29 32 35 38 39 40
40 40 40 39 37 40 42 41 40 31 31 31 31 31 30 30 32 35 32 30 30 30 31 32 30 30 30 33 33 32 30 28 29 31 31 24 30 28 31 32 37 38 39
38 38 37 37 36 37 41 41 36 31 31 29 31 31 32 32 38 41 35 26 28 29 36 38 39 39 39 38 37 32 25 23 23 26 30 26 27 26 28 29 31 37 39
37 38 38 36 39 32 42 41 37 32 28 29 30 32 37 37 40 41 35 30 27 27 28 28 29 31 33 30 36 30 26 22 22 21 28 24 25 26 22 28 29 30 30

GFSMA_sfc_temp_018.txt.gz
Temp
63 61 61 62 60 59 58 56 56 56 55 55 55 55 53 51 51 54 54 65 67 68 69 69 68 68 68 68 68 68 67 67 67 66 67 66 67 67 67 68 68 69 69
62 61 60 59 58 57 56 56 55 53 52 52 53 53 52 52 51 51 53 57 66 66 67 67 67 67 68 68 68 67 66 65 65 65 66 66 66 65 66 66 67 68 68
63 60 59 57 57 56 56 54 53 51 51 52 50 51 52 50 51 51 52 52 56 63 65 66 66 66 67 67 67 66 65 64 64 64 64 64 64 64 65 65 66 66 67
62 60 58 56 56 55 54 52 51 49 48 48 47 48 49 51 50 50 51 50 51 53 59 64 63 64 64 65 65 65 65 64 63 63 63 63 63 63 64 64 65 66 66
63 61 59 56 55 54 52 53 48 48 46 46 49 48 48 49 50 54 49 50 50 50 49 60 60 61 62 63 63 63 64 63 62 62 61 62 62 62 63 63 64 64 65
62 61 57 56 54 52 51 50 48 46 45 44 53 50 47 48 49 48 49 52 49 49 48 49 47 50 60 60 61 62 62 62 62 61 60 61 61 62 62 62 63 63 64
63 60 58 56 53 52 50 50 48 47 44 43 45 46 46 47 47 47 47 47 48 48 47 47 46 45 46 56 58 60 60 60 61 60 60 60 60 61 61 62 63 63 64
63 62 60 54 52 50 49 49 48 45 44 42 43 41 42 46 46 46 45 48 44 46 46 47 46 45 43 43 47 57 58 59 60 60 60 60 60 60 61 62 63 63 63
62 62 59 54 51 49 47 47 47 46 43 43 42 43 39 40 39 43 43 43 43 42 42 43 44 45 44 42 45 48 55 57 58 59 59 59 60 60 61 61 62 63 63
60 60 58 55 52 50 50 46 47 45 44 42 42 45 41 41 39 39 41 41 41 43 40 40 41 42 42 41 46 50 54 55 57 58 58 59 59 59 60 61 61 62 61
60 58 57 54 52 50 50 47 45 44 44 42 41 40 40 38 38 37 36 37 39 40 40 40 39 38 40 40 41 46 52 53 55 56 57 58 58 58 59 60 60 59 59
57 58 57 56 54 52 50 48 48 48 43 42 41 41 40 39 37 36 34 33 34 37 38 39 38 37 38 38 46 49 50 51 52 53 55 56 56 57 57 58 58 58 57
54 55 55 54 52 48 49 47 45 46 42 41 40 40 40 39 39 37 35 33 32 34 35 37 37 37 42 37 38 48 48 49 50 51 53 54 54 54 54 55 55 55 56
53 55 55 54 52 51 50 46 44 45 41 40 39 39 39 39 39 38 36 33 29 29 31 33 35 35 35 36 42 47 39 47 48 49 50 51 51 51 51 52 52 53 54
53 54 53 52 51 50 49 48 45 42 40 39 39 39 38 37 37 36 35 34 30 26 26 29 31 34 35 35 38 41 37 43 46 47 47 48 48 48 49 50 51 51 51
54 53 52 51 51 50 49 47 44 41 40 39 39 38 37 37 36 35 34 33 31 29 25 29 30 31 33 38 39 39 38 42 43 45 45 46 46 47 48 49 49 50 49
53 53 51 50 49 48 47 46 41 43 40 39 38 39 38 37 35 34 33 32 30 28 25 27 29 31 30 31 34 35 36 35 36 43 44 45 45 46 46 47 47 48 48
53 51 50 50 48 46 45 44 44 41 40 39 39 37 37 40 34 33 31 30 29 29 27 26 27 28 29 31 31 30 35 38 36 40 43 44 45 45 45 45 46 46 46
51 50 49 47 46 46 45 44 42 40 39 39 39 38 37 34 32 31 30 29 29 33 28 27 28 28 29 30 30 30 31 32 36 40 42 42 43 43 43 44 44 44 44
49 49 48 46 43 43 44 43 39 37 37 39 39 36 35 34 33 31 30 30 31 29 28 26 27 25 25 30 27 27 29 32 31 36 38 39 41 42 42 42 42 42 41
48 46 44 44 43 42 43 40 38 36 38 37 36 37 36 36 41 39 36 31 30 28 27 23 24 25 28 28 27 29 28 29 30 32 31 30 31 32 33 37 38 39 39
41 41 40 39 39 42 44 43 40 37 37 35 34 33 33 37 37 43 43 43 40 27 23 20 20 26 27 27 28 27 27 25 24 32 27 30 32 31 32 32 37 39 41
38 36 38 40 39 41 44 43 40 36 35 32 31 31 33 37 35 32 36 40 40 41 41 36 28 27 26 28 27 24 26 27 26 30 29 26 30 28 32 34 38 39 40
37 38 38 39 39 41 43 42 39 33 31 29 30 30 29 29 31 35 32 29 31 31 31 32 29 29 28 31 32 32 29 27 28 29 29 22 29 27 30 31 37 38 39
34 34 35 36 36 38 42 41 36 29 30 29 30 30 31 30 37 40 34 27 29 29 36 39 39 39 39 39 38 31 24 22 22 25 29 25 25 26 28 29 31 36 38
35 37 36 37 39 34 42 41 35 31 28 29 29 30 36 35 39 40 34 30 26 26 28 27 28 30 32 30 35 30 24 20 20 21 26 21 25 24 22 26 29 28 30

GFSMA_sfc_temp_021.txt.gz
Temp
61 61 61 61 60 58 56 55 55 55 53 53 53 53 51 50 51 53 54 65 68 69 69 69 69 69 69 68 68 67 67 66 66 66 66 66 66 66 66 67 67 68 69
61 61 60 60 57 57 55 54 54 53 51 51 51 51 50 50 50 51 52 56 66 67 68 68 67 68 68 68 68 67 65 65 65 65 65 65 65 65 65 66 66 66 67
61 60 59 56 56 55 54 53 52 50 50 51 49 50 50 48 50 51 51 52 55 63 65 67 66 66 66 66 67 66 65 64 64 63 64 64 64 64 64 65 65 66 66
61 58 57 56 54 54 53 52 50 48 47 47 47 47 48 48 48 49 50 49 50 51 60 64 64 64 64 65 65 65 65 64 63 62 62 62 63 63 63 64 64 65 65
61 59 57 55 54 53 52 52 48 48 46 46 49 46 46 47 47 52 48 48 49 48 49 59 60 61 62 62 63 63 63 63 62 61 61 62 62 62 63 63 63 64 64
60 59 56 55 54 52 50 50 48 45 44 44 51 48 45 46 46 46 47 50 47 47 46 47 45 48 59 60 61 62 62 62 62 61 60 61 61 62 62 62 63 64 64
61 61 58 57 56 56 51 50 47 46 43 42 45 45 45 45 45 45 45 45 46 46 46 45 44 43 44 54 56 59 60 61 61 61 60 60 61 61 62 62 63 63 64
63 62 61 59 57 54 49 48 47 44 43 41 42 41 42 45 44 45 44 46 43 44 45 45 44 43 42 41 45 56 58 59 60 60 60 60 61 61 61 62 62 63 63
63 64 62 59 57 55 50 48 47 46 43 41 41 43 38 39 39 41 42 42 42 41 41 42 42 42 41 40 42 45 53 56 58 59 60 60 60 60 61 61 62 62 63
60 63 61 59 56 52 50 47 47 45 44 42 41 44 40 40 39 38 40 40 40 42 39 40 39 41 40 39 45 50 53 54 56 57 58 59 59 59 60 60 61 62 62
58 59 59 57 54 53 51 49 45 45 44 42 41 40 39 38 37 37 36 37 38 39 39 38 38 38 39 39 40 45 51 52 54 55 56 57 57 58 59 59 60 60 60
53 54 56 56 55 52 51 50 48 48 44 44 43 40 40 39 37 36 34 33 33 36 37 37 36 36 36 37 44 48 49 50 52 53 54 55 55 56 57 57 58 58 58
51 52 53 52 52 52 50 49 48 46 46 45 40 40 39 39 38 37 35 32 32 33 34 35 35 35 41 35 36 46 47 47 49 50 52 53 53 53 53 54 55 56 56
54 52 52 52 51 51 50 49 47 45 46 43 43 40 38 38 38 37 36 33 29 29 29 33 34 33 33 35 40 45 37 45 46 48 49 50 49 50 50 51 52 53 54
52 51 51 50 50 49 49 49 47 45 45 42 42 40 40 37 37 36 35 34 32 27 27 29 30 32 33 34 36 38 35 42 45 46 46 47 47 47 48 49 50 51 51
52 50 49 50 50 50 49 48 46 45 44 42 41 39 37 36 35 34 33 33 31 30 26 28 29 30 32 37 37 37 35 41 42 43 44 45 45 46 47 48 48 49 50
51 51 51 50 50 49 48 47 45 44 43 42 41 40 37 36 34 33 33 32 30 28 25 27 28 30 29 30 32 32 34 33 34 41 43 44 44 45 46 46 47 48 48
51 51 51 51 49 48 46 44 43 40 40 40 40 38 36 39 35 34 32 30 29 28 27 24 26 27 27 30 29 28 34 37 35 39 42 43 44 44 45 45 46 46 46
50 50 50 48 46 44 43 41 41 41 42 41 38 38 38 37 34 33 30 29 29 32 27 26 26 27 27 27 27 29 29 30 34 38 41 41 42 43 43 44 44 44 44
49 48 47 45 43 42 41 39 39 39 39 39 39 38 38 36 34 33 31 29 30 28 27 26 26 24 25 28 27 26 27 30 30 35 37 38 40 41 41 42 42 42 41
45 45 43 42 41 40 40 37 38 38 38 38 38 38 37 37 39 37 34 30 29 28 27 23 24 22 24 27 27 29 26 28 29 30 30 30 29 32 33 37 38 39 39
42 41 40 39 38 40 41 40 39 37 37 36 35 34 35 36 35 41 43 43 38 26 23 20 18 24 26 26 26 26 26 24 23 29 27 29 31 30 32 32 37 39 40
39 37 37 37 38 40 42 42 40 36 35 34 34 32 33 35 34 31 35 40 39 41 41 34 28 26 27 28 28 25 25 25 27 29 28 25 30 28 31 33 38 39 40
35 35 35 35 34 37 38 39 38 35 33 32 31 29 28 29 30 33 31 29 30 30 31 32 29 29 29 30 30 29 29 27 28 29 28 21 28 27 30 30 36 38 39
33 33 33 32 32 34 39 39 36 33 32 30 30 29 29 29 35 39 33 26 28 29 36 39 39 39 39 39 38 31 23 22 21 25 28 25 25 26 28 29 31 36 38
32 33 32 32 35 36 42 41 36 31 28 29 29 30 35 34 38 39 32 30 26 26 28 27 28 29 31 29 35 29 21 18 21 20 26 21 24 25 21 26 28 27 30

GFSMA_sfc_temp_024.txt.gz
Temp
62 62 62 61 60 57 56 54 54 54 53 52 52 52 50 50 51 53 54 66 68 69 69 69 69 69 69 68 68 67 66 66 66 66 66 66 66 66 66 67 67 67 67
62 61 60 60 58 56 54 54 53 52 50 50 50 49 49 49 50 51 52 57 66 67 68 68 68 68 68 68 67 66 66 65 65 65 65 65 65 65 65 65 66 66 67
61 61 60 58 56 55 54 52 51 50 49 50 48 48 48 47 49 50 50 51 54 63 67 67 67 66 66 67 67 66 65 64 64 64 64 63 64 64 64 65 65 65 66
61 60 59 57 54 53 52 51 50 48 47 47 46 46 47 47 47 48 49 48 49 51 59 64 64 64 65 65 65 65 65 64 63 63 62 63 63 63 63 64 64 64 65
61 60 59 55 54 52 51 51 48 48 46 45 47 45 45 45 46 50 47 47 48 47 47 58 60 61 62 62 63 64 64 63 63 62 62 62 62 63 63 63 64 64 64
61 59 56 55 54 51 49 49 48 45 45 45 50 46 43 44 45 45 45 49 46 46 45 45 44 47 57 59 60 62 62 62 62 62 62 61 62 62 62 63 63 64 64
60 59 55 54 53 54 53 51 47 46 43 43 44 43 43 43 43 43 44 43 45 44 44 43 43 42 43 53 54 57 60 61 61 61 61 61 61 62 62 63 63 63 64
60 58 57 57 57 55 54 52 47 44 42 41 42 41 41 43 43 43 42 44 42 43 43 43 42 42 40 40 45 54 57 58 59 60 61 61 61 61 62 62 63 63 63
61 61 58 59 58 57 54 53 48 47 42 41 41 43 38 39 39 40 40 41 41 40 39 41 41 41 40 39 43 46 54 55 57 58 59 60 60 60 61 62 62 62 63
60 61 59 59 59 58 55 54 51 46 44 41 40 43 39 40 39 37 39 39 39 41 38 38 39 39 39 38 44 49 52 53 55 57 58 58 59 59 60 61 61 62 62
58 59 59 58 57 56 55 53 50 48 45 42 41 39 38 37 37 37 36 36 38 38 38 37 37 37 38 37 38 44 50 52 54 55 56 57 57 58 59 59 60 60 60
54 56 56 55 55 54 52 52 50 50 47 45 43 43 40 39 37 36 35 33 35 36 36 36 36 35 35 36 43 47 48 49 50 52 53 55 55 56 56 57 57 57 58
52 53 54 53 52 51 50 50 48 49 48 46 46 43 43 41 40 37 36 32 33 33 33 34 35 34 39 34 36 46 46 47 48 50 51 53 53 52 52 53 54 55 55
55 54 53 52 51 50 49 48 47 46 48 45 45 44 42 42 41 39 36 33 29 29 29 34 34 33 33 34 40 45 36 44 46 47 49 49 49 49 49 50 51 52 53
54 51 52 51 49 49 49 49 47 44 46 44 43 43 42 41 40 40 36 36 33 29 28 32 32 31 32 33 36 36 34 41 45 45 46 46 46 47 48 49 50 50 51
51 50 50 49 49 49 49 49 46 45 44 41 40 40 40 40 39 38 35 34 33 31 28 29 30 30 32 36 36 36 34 41 41 43 44 45 45 46 47 47 48 49 50
50 50 50 49 49 48 49 48 46 45 44 42 41 41 39 39 37 36 35 32 32 30 27 28 28 29 29 30 32 31 33 31 31 41 43 44 44 45 46 46 47 48 48
48 49 49 48 48 48 48 46 45 43 42 40 39 38 38 40 36 34 35 32 31 28 28 25 26 27 27 29 29 28 33 36 33 38 41 43 44 44 44 45 46 46 46
49 49 49 49 48 46 45 44 43 41 39 38 37 36 37 38 36 36 35 33 30 33 27 26 26 27 27 27 27 27 27 28 33 38 40 41 41 42 43 44 45 44 45
48 49 48 46 45 44 42 41 40 39 38 38 38 38 38 38 37 36 35 32 31 29 28 26 25 24 25 27 26 26 26 28 29 34 36 37 40 41 42 42 42 42 42
45 43 41 40 40 40 41 38 38 37 36 35 35 36 36 38 39 38 35 33 30 29 28 22 24 22 24 25 25 27 26 28 27 29 29 29 29 30 32 36 38 39 39
41 40 40 39 38 40 42 41 38 36 35 33 31 32 32 35 36 40 42 43 37 27 23 19 19 25 25 25 24 25 25 23 24 29 25 29 30 30 31 31 36 39 41
39 37 38 38 38 39 41 40 37 33 31 30 32 33 34 36 34 32 36 39 38 40 40 30 27 25 26 26 27 23 25 26 26 30 28 25 29 28 31 33 37 39 40
37 36 36 37 37 39 40 38 35 31 32 33 33 32 30 31 32 33 31 29 30 30 31 31 29 29 28 29 28 29 28 27 27 29 28 21 29 27 30 30 36 38 39
33 33 33 33 33 33 38 37 32 32 33 32 32 31 31 30 35 39 32 26 28 29 35 38 39 38 38 38 37 30 22 21 21 24 28 24 25 25 28 29 31 36 38
33 33 32 32 36 33 37 37 34 33 30 30 28 30 35 34 38 39 32 30 25 25 27 26 27 28 30 28 34 28 20 16 19 20 25 21 23 24 21 26 29 27 30

GFSMA_sfc_temp_027.txt.gz
Temp
69 70 68 71 71 70 69 67 68 67 67 66 66 66 66 66 68 69 71 66 69 70 70 70 70 70 69 69 68 67 66 66 66 66 66 66 66 66 66 66 67 67 68
71 71 67 69 70 69 68 68 67 66 65 66 64 64 64 65 66 67 69 70 67 68 69 69 69 69 69 68 67 67 66 65 65 65 65 65 65 65 66 66 66 66 66
71 70 69 68 69 67 66 65 64 63 63 63 63 63 63 64 64 65 65 66 67 64 67 67 67 67 67 67 67 66 65 65 64 64 63 64 64 64 64 65 65 65 65
71 70 69 69 68 65 64 64 62 61 62 62 61 61 62 62 63 63 63 64 63 65 65 65 65 65 65 65 65 65 65 64 63 63 63 63 63 63 64 64 64 65 65
70 70 69 69 66 63 63 62 60 62 60 59 59 59 60 61 61 61 61 61 61 61 62 60 61 61 62 63 64 64 64 63 63 63 62 62 62 63 63 64 64 64 65
69 68 68 67 64 62 61 61 60 58 59 59 59 57 57 58 59 60 60 60 59 58 59 58 59 59 58 59 60 61 62 63 62 62 62 62 62 62 63 63 64 64 64
68 67 67 65 63 62 61 62 58 57 55 57 56 55 56 56 57 58 58 58 57 57 57 57 58 58 58 53 55 58 60 61 62 62 62 62 62 62 63 63 64 64 64
67 67 65 63 62 61 60 59 54 55 55 56 57 56 53 55 55 55 56 56 56 56 55 55 55 55 55 56 54 55 57 58 59 60 61 61 61 62 62 63 63 63 64
67 67 64 62 61 61 59 58 54 54 54 53 53 58 50 53 53 53 52 54 54 54 54 53 53 52 53 54 53 53 54 54 56 58 59 60 60 61 61 62 62 63 63
66 66 64 62 62 61 61 58 57 56 54 52 49 51 51 53 52 49 51 52 52 53 53 52 52 51 51 52 50 50 52 53 55 57 58 59 59 60 61 61 61 62 62
64 64 63 61 60 61 60 60 57 56 55 52 52 47 49 49 50 53 49 49 49 51 52 52 51 50 49 50 51 50 50 51 53 54 56 57 57 58 59 60 60 60 60
62 62 62 61 60 58 58 57 56 56 54 51 48 49 50 50 49 49 49 48 51 49 50 50 49 49 48 49 48 47 48 49 51 52 54 55 56 56 57 57 57 57 58
59 60 60 59 58 58 56 55 54 53 52 51 50 48 50 48 45 47 46 44 43 46 48 49 49 48 47 47 48 47 46 47 48 50 52 53 53 53 53 53 54 55 55
61 62 60 59 59 58 56 55 53 52 51 50 50 48 46 44 44 45 47 41 39 39 41 47 46 46 47 46 46 45 47 44 46 48 49 50 49 49 49 50 51 52 53
60 60 58 57 57 55 54 52 52 51 49 48 48 48 48 44 45 41 41 42 47 40 39 42 44 45 45 46 45 47 46 43 45 46 46 46 46 47 48 49 50 50 51
59 56 56 56 54 54 52 51 51 49 48 45 43 43 45 40 42 40 43 40 41 41 37 43 41 44 44 44 44 45 44 42 43 44 45 45 45 46 47 48 48 49 50
56 54 55 54 53 52 52 49 46 47 46 44 42 42 41 40 40 38 37 36 35 38 37 41 41 42 41 42 43 44 43 43 43 42 43 44 44 45 46 47 47 48 48
53 53 52 51 51 50 50 49 46 46 43 41 40 39 37 40 37 37 36 35 36 36 37 34 37 38 38 41 41 40 41 43 42 42 42 43 44 44 44 45 45 46 47
52 51 51 50 49 48 48 47 45 43 41 39 38 38 37 37 35 36 35 34 32 33 33 34 36 37 38 39 39 39 39 40 40 40 41 41 42 42 43 44 45 45 45
50 49 50 48 46 45 44 42 41 39 38 38 38 37 37 35 34 33 32 32 32 31 35 32 33 35 36 39 37 35 35 39 38 40 40 40 41 41 42 42 42 42 42
45 45 44 43 42 42 41 39 38 37 35 34 34 33 32 34 34 34 34 32 32 33 33 32 33 34 34 35 35 37 34 36 37 38 37 39 38 39 40 40 40 40 40
42 42 41 41 40 41 43 41 38 35 34 32 32 32 32 33 34 35 37 38 37 32 33 32 31 33 34 35 36 34 33 31 28 40 36 36 39 37 39 40 39 40 40
39 39 39 39 39 40 42 40 39 34 33 32 32 33 33 35 33 32 36 38 38 40 41 38 35 35 34 35 34 31 32 31 30 36 35 32 37 35 39 40 39 39 40
38 38 38 38 38 39 41 40 37 33 32 32 32 32 32 32 34 36 35 35 36 37 37 37 37 37 37 37 35 33 33 33 34 36 36 27 36 35 38 39 39 39 39
33 33 33 33 33 34 37 35 33 31 31 31 33 35 35 34 36 38 37 33 34 35 37 38 38 38 38 38 38 35 30 28 27 31 35 31 32 33 35 36 38 38 39
32 32 32 33 36 34 37 36 35 36 32 33 34 34 35 36 38 38 37 33 30 32 34 33 34 34 35 34 34 34 31 25 25 24 34 28 31 31 27 37 38 38 37

GFSMA_sfc_temp_030.txt.gz
Temp
79 81 79 78 78 79 79 77 78 77 77 76 76 76 76 76 77 78 77 67 69 70 71 71 70 70 69 68 67 67 67 66 66 66 66 65 66 66 67 67 67 67 67
80 80 77 74 74 78 79 78 77 77 76 76 75 75 75 75 76 76 76 72 67 69 69 70 70 69 69 68 67 66 66 65 65 65 65 65 65 65 65 65 65 66 66
81 80 77 72 71 77 78 77 76 76 74 74 74 74 74 74 74 73 74 74 70 65 67 69 68 68 68 68 67 66 65 65 64 64 64 64 64 64 64 65 65 65 65
80 80 78 73 75 77 76 74 73 72 72 72 72 72 72 72 73 73 72 72 72 71 66 66 66 66 66 66 66 66 65 64 63 63 63 63 63 63 64 64 64 65 65
80 79 79 77 77 75 74 73 72 72 70 70 70 70 70 70 70 70 70 69 69 70 70 62 62 62 63 63 64 64 64 63 63 63 63 62 63 63 63 64 64 64 65
78 76 78 77 77 73 72 72 71 71 70 69 68 67 67 69 69 69 69 69 68 67 67 66 64 62 59 59 60 61 63 63 63 62 62 63 62 63 63 64 64 64 65
77 75 75 75 76 72 71 71 70 66 65 68 65 64 64 65 66 68 69 68 66 66 66 65 66 65 62 55 56 58 61 62 62 62 62 62 62 62 63 64 64 64 64
77 75 74 74 74 72 72 70 67 65 67 66 65 64 59 61 63 65 66 66 66 65 64 63 64 63 62 64 59 56 57 59 60 60 61 61 61 62 62 63 63 63 64
76 76 73 74 73 72 71 69 66 65 61 62 66 66 58 59 60 62 61 63 63 62 63 62 61 61 61 62 57 56 54 54 57 58 59 60 60 61 61 62 63 63 63
71 74 72 72 71 70 69 68 67 66 64 59 60 62 61 63 59 54 58 59 61 61 62 60 60 59 59 59 53 52 52 53 55 57 58 59 59 60 60 61 62 62 62
67 69 71 70 69 69 69 67 65 65 65 63 59 57 56 57 59 59 55 53 57 59 61 60 60 59 57 57 57 53 50 51 53 55 56 57 58 58 59 60 61 61 61
65 66 67 69 68 67 68 67 64 63 62 64 59 55 56 53 54 54 56 56 55 56 58 58 58 57 57 56 53 48 48 49 51 53 54 56 56 57 57 58 58 58 58
63 64 64 65 66 67 66 65 63 59 59 59 57 55 56 56 55 56 58 48 53 53 53 55 55 55 56 55 54 47 48 48 49 51 53 54 53 53 53 54 54 55 56
67 67 66 65 65 65 66 65 61 59 54 52 54 52 49 49 51 49 48 44 41 47 48 49 52 51 53 51 52 46 51 49 47 49 50 50 50 49 50 51 51 52 53
64 66 67 65 64 64 63 62 60 59 58 57 55 51 49 48 50 46 50 45 45 38 40 47 46 51 52 52 50 51 52 49 47 47 47 47 47 47 48 49 49 50 51
64 64 64 63 62 60 60 59 57 57 53 50 48 46 43 44 43 43 43 43 43 41 39 45 41 45 46 47 48 48 50 47 46 47 46 46 46 46 47 48 48 49 50
64 63 63 61 60 58 56 54 52 52 48 44 41 40 39 41 40 39 39 38 36 36 34 36 39 39 39 42 42 45 49 49 49 47 46 46 45 45 46 47 48 48 49
60 60 60 58 57 56 54 52 47 45 44 40 41 38 37 40 37 38 36 34 33 32 33 32 34 34 33 36 37 39 42 45 46 46 46 45 44 45 45 45 46 46 47
58 57 58 56 54 53 51 50 48 44 42 40 39 38 37 36 35 35 34 32 32 34 32 33 34 38 37 36 35 37 40 44 46 45 45 45 44 44 44 44 45 46 45
56 56 54 52 50 50 48 46 44 42 40 39 39 38 37 36 35 34 33 33 33 33 33 33 36 37 37 38 38 38 39 43 42 45 45 44 44 43 43 44 44 43 43
50 50 48 45 45 44 44 42 40 39 37 36 35 34 34 35 37 34 34 34 34 33 36 35 35 36 38 39 39 41 38 40 41 42 42 43 44 44 44 45 44 43 43
43 43 43 42 42 43 43 43 40 38 36 34 33 33 33 34 34 36 39 39 39 37 35 35 36 36 37 38 41 39 37 34 32 42 40 40 43 42 43 45 45 44 43
41 40 41 42 41 42 43 42 39 36 34 32 33 32 33 35 35 35 36 37 39 40 40 39 36 38 38 40 36 33 34 33 33 38 39 35 41 40 43 46 44 43 43
39 39 38 39 39 40 41 40 37 32 32 32 34 34 35 34 36 37 37 36 37 39 40 41 40 40 40 40 39 37 36 36 38 40 41 32 40 39 42 44 44 43 43
33 33 34 33 33 33 37 36 33 31 31 32 34 35 37 38 37 38 38 36 38 39 41 39 39 39 38 39 39 37 33 32 30 35 40 35 37 37 39 41 43 42 42
33 34 32 33 35 32 35 34 36 35 35 36 37 37 36 37 38 39 39 37 34 36 37 37 39 39 39 39 37 37 35 29 28 27 39 32 34 34 29 39 41 42 41

GFSMA_sfc_temp_033.txt.gz
Temp
76 75 76 76 77 78 80 79 79 78 78 78 78 78 77 77 78 78 73 67 69 71 71 71 71 70 69 68 68 67 67 67 67 66 66 66 66 66 66 66 67 67 67
83 81 77 73 77 78 79 79 78 78 78 77 76 77 76 76 77 77 74 69 68 69 70 71 70 70 69 69 68 67 66 66 66 65 65 65 65 65 65 66 66 66 66
83 82 81 74 77 78 77 79 79 78 76 76 75 75 75 76 75 75 74 71 68 66 68 70 69 69 69 68 67 67 66 65 64 64 64 64 64 64 65 65 65 65 66
82 82 81 77 74 76 72 77 76 74 73 73 73 73 73 74 74 74 73 73 70 69 66 67 67 67 67 67 66 66 66 64 64 63 63 63 63 63 64 64 64 65 65
82 81 81 79 74 73 74 76 74 73 71 71 72 72 71 71 72 73 71 71 71 69 68 63 64 63 64 65 65 65 65 64 64 63 63 63 63 63 63 64 64 65 65
81 80 80 80 76 74 73 74 73 72 71 70 71 69 68 70 70 70 70 70 69 68 68 63 61 60 61 61 61 62 63 64 63 63 63 63 63 63 63 64 64 65 65
81 79 78 79 78 73 73 73 72 69 68 70 66 65 65 67 67 68 69 67 66 66 65 64 64 63 58 58 58 60 61 63 63 62 62 62 63 63 63 64 64 65 65
80 78 76 76 77 75 73 72 70 67 66 67 63 62 57 60 63 65 66 66 65 64 63 63 63 62 60 59 58 57 59 60 60 61 61 61 61 62 62 63 64 64 64
77 77 75 74 75 75 71 70 69 67 63 64 67 63 58 56 58 61 61 62 63 62 62 61 61 61 60 59 55 55 55 55 57 59 60 60 61 61 62 62 63 63 64
71 75 74 71 72 72 69 70 70 66 65 59 61 66 63 62 56 50 57 58 61 61 60 59 59 59 59 57 54 54 54 53 55 57 58 59 59 60 61 61 62 63 63
72 70 72 71 68 70 69 68 68 65 64 61 58 57 59 57 58 55 49 51 56 59 59 60 58 57 57 56 54 53 52 52 54 55 57 58 58 59 60 61 61 61 61
71 68 67 68 68 67 67 67 66 63 62 62 60 59 56 55 52 53 53 51 50 54 57 58 57 56 54 54 54 52 50 50 51 53 55 56 57 57 57 58 58 58 59
66 65 66 65 65 65 65 66 65 63 61 59 61 60 57 58 57 56 55 50 51 51 52 54 54 55 56 53 52 49 49 49 50 52 54 55 54 53 53 54 54 55 56
68 67 65 64 64 64 63 63 62 62 61 58 58 57 54 51 49 47 47 46 42 45 45 49 50 53 52 51 51 48 48 51 51 50 51 52 51 50 50 51 52 52 53
70 70 67 64 63 63 62 62 59 58 57 57 55 53 51 48 46 44 44 44 43 37 41 43 43 47 49 49 49 49 49 51 51 50 49 49 49 48 48 49 50 50 51
69 65 63 63 61 61 62 59 57 56 55 53 51 48 45 43 42 40 40 39 39 39 35 39 39 40 42 45 45 45 46 48 48 49 49 49 48 48 48 48 48 49 50
67 65 63 61 61 59 58 55 53 52 50 47 46 43 41 41 39 37 37 37 35 36 35 33 36 36 36 36 38 39 41 43 45 47 48 48 47 47 47 47 47 48 49
64 62 62 61 60 58 56 53 49 48 45 43 42 41 38 41 38 37 37 35 34 34 35 33 33 33 33 35 35 38 41 43 43 45 46 47 46 47 47 46 47 47 47
59 59 58 57 56 55 54 51 48 46 44 42 41 40 38 37 36 35 34 34 33 33 33 33 33 34 34 37 37 39 39 40 44 46 47 48 47 47 46 46 46 46 46
57 56 54 54 52 51 49 47 44 42 41 40 40 39 39 39 35 34 34 33 33 33 33 33 33 34 37 39 38 36 37 40 40 45 45 45 46 46 46 46 46 45 45
49 49 48 47 46 45 45 42 41 39 38 37 36 36 36 37 38 36 35 33 34 34 33 32 33 35 35 36 36 37 36 38 38 39 39 39 40 40 41 45 45 45 46
43 43 43 43 42 43 44 43 41 38 36 35 33 33 35 36 37 39 38 38 36 34 33 34 35 34 36 36 38 36 33 31 29 38 35 35 39 38 39 41 45 46 46
41 40 41 42 41 42 43 42 40 36 34 33 33 33 33 35 35 35 38 38 39 41 41 38 35 35 36 37 33 32 32 32 31 35 35 32 37 36 39 43 45 45 45
36 36 35 36 38 39 41 39 37 33 32 32 32 32 33 34 35 36 36 36 36 37 38 40 37 37 37 38 37 35 33 33 35 36 37 29 36 35 38 39 44 44 44
33 33 33 33 33 34 38 37 34 32 31 32 33 34 36 37 37 38 37 34 35 36 42 40 40 40 39 39 39 34 30 28 28 31 35 32 32 33 35 35 37 43 44
33 34 33 34 35 33 37 36 33 33 32 34 37 37 37 38 38 39 37 37 33 33 34 34 35 37 38 37 40 35 31 26 27 26 33 27 29 30 25 34 35 36 36

GFSMA_sfc_temp_036.txt.gz
Temp
68 69 72 72 71 71 68 66 66 65 65 66 66 66 65 65 65 64 61 67 70 71 72 72 71 70 69 69 68 68 67 67 67 66 66 66 66 66 67 67 67 67 67
70 70 70 68 69 72 72 69 67 65 65 64 65 65 65 65 64 62 61 62 68 69 71 71 71 70 69 69 68 67 67 66 66 66 66 65 65 65 66 66 66 66 67
72 72 70 68 68 71 71 73 68 65 64 65 63 64 64 63 63 64 62 60 62 66 69 71 70 70 70 69 68 67 66 65 65 65 64 64 64 65 65 65 65 66 66
73 71 69 67 68 70 69 65 67 62 61 61 60 61 61 62 63 63 62 61 59 61 65 69 69 69 68 68 68 67 66 65 64 64 64 63 63 64 64 65 65 65 65
74 71 69 68 68 66 66 65 67 62 59 59 60 59 59 59 61 65 61 60 59 58 57 64 65 65 66 67 67 67 66 65 64 64 63 63 63 63 64 64 64 65 65
72 72 70 69 69 65 67 66 65 61 59 58 65 61 57 58 59 58 59 62 58 58 56 55 54 57 63 65 64 65 65 65 64 64 63 63 63 63 63 64 64 65 65
73 67 69 66 70 68 68 69 64 60 58 58 55 53 54 57 57 57 58 56 57 58 55 55 53 52 55 62 61 62 63 64 64 63 63 62 62 63 63 64 64 64 65
72 71 71 66 65 68 66 68 66 57 56 56 52 50 47 50 53 56 55 57 55 56 56 56 55 54 51 51 52 60 62 63 63 62 62 61 61 62 62 63 63 64 64
69 70 70 72 66 63 68 65 64 60 57 54 57 52 47 47 47 51 54 54 55 53 54 55 55 56 53 51 54 55 59 59 60 60 61 61 60 61 61 62 63 63 64
68 71 66 65 68 70 66 64 62 61 56 56 53 60 54 52 48 45 51 53 54 55 54 53 53 55 54 50 53 53 56 56 57 59 59 59 60 60 61 61 62 63 63
67 66 69 67 65 67 67 64 61 61 59 56 56 50 51 50 49 47 44 48 51 53 52 54 53 52 53 51 47 52 55 55 56 57 57 58 59 59 60 60 61 61 61
64 64 67 66 66 64 65 63 63 60 58 57 54 51 51 51 48 49 46 45 47 48 49 52 53 51 51 50 54 54 54 54 54 55 56 57 58 58 58 57 58 58 58
61 61 64 63 63 64 63 62 61 59 57 57 55 54 51 52 52 52 51 47 46 48 49 51 50 50 53 49 49 50 52 52 52 53 55 56 56 55 55 54 55 55 56
62 64 63 63 63 62 62 61 60 60 58 56 56 53 52 52 51 49 49 44 40 40 41 41 43 46 47 48 48 51 46 51 52 53 53 53 53 52 52 52 52 53 53
62 60 60 61 61 61 61 60 59 59 57 56 55 53 50 48 48 47 47 46 44 36 35 38 38 41 43 43 46 45 45 48 50 52 52 51 50 50 50 50 50 51 51
60 58 58 58 59 59 58 57 56 55 54 52 51 50 46 44 44 43 42 42 41 39 34 36 35 36 38 41 42 41 41 43 45 48 50 50 50 50 49 49 50 50 50
56 56 56 55 57 57 56 54 52 52 49 47 46 45 43 43 40 39 39 39 37 37 35 33 34 35 35 35 38 38 40 40 42 46 48 49 49 49 48 48 48 49 49
54 53 53 54 53 52 51 50 47 47 45 43 42 41 40 41 39 38 38 37 36 36 36 33 33 32 33 34 36 36 39 43 42 44 46 47 48 48 49 48 48 48 48
51 51 50 49 49 48 48 47 45 44 43 42 41 40 39 39 36 36 36 35 35 35 34 35 32 33 33 34 34 36 38 38 41 43 47 48 48 47 47 47 47 47 47
45 45 45 44 43 43 43 42 42 40 40 40 40 39 39 38 37 35 34 33 33 33 33 33 33 33 34 34 34 33 32 35 34 42 43 44 46 46 46 47 47 46 46
42 42 44 44 44 43 43 41 40 39 38 36 36 36 36 37 39 37 35 34 34 33 33 32 32 32 33 32 30 31 30 31 32 33 32 32 32 33 36 41 43 44 45
42 40 41 42 41 43 44 43 39 37 36 35 33 33 34 37 39 40 39 38 37 34 32 32 30 29 29 30 30 29 27 24 22 31 28 32 31 33 32 33 42 45 46
38 38 39 40 40 41 43 41 39 35 34 33 33 33 34 36 35 34 38 39 39 41 40 34 29 28 29 30 28 24 25 23 25 29 28 29 30 31 32 39 43 44 45
35 36 35 36 37 40 41 40 38 33 32 32 32 32 33 33 34 34 35 34 34 33 34 36 31 30 30 31 30 28 28 27 28 29 29 25 28 30 33 31 41 43 43
33 33 33 33 33 34 39 38 34 32 31 31 33 33 34 34 37 38 34 29 30 31 41 41 40 41 40 40 38 29 22 20 22 25 29 26 27 26 29 32 32 40 43
32 33 32 33 36 31 39 38 34 31 28 31 33 34 38 36 39 39 32 29 27 28 29 30 30 32 34 32 40 31 23 14 15 17 27 21 24 25 22 28 29 31 31

GFSMA_sfc_temp_039.txt.gz
Temp
67 67 65 65 65 64 63 61 61 61 61 63 63 63 62 62 59 60 61 67 70 72 72 72 71 71 70 69 69 68 68 67 67 67 67 66 67 67 67 67 67 67 68
70 68 66 66 65 65 66 65 63 61 61 61 62 62 62 62 59 58 59 62 68 70 71 72 71 71 70 69 69 68 67 67 66 66 66 66 66 66 66 66 66 66 67
68 70 67 65 66 66 67 70 69 63 61 61 60 61 61 60 59 59 58 59 63 66 69 71 71 70 70 69 68 68 67 66 66 65 65 65 65 65 65 65 65 65 66
70 67 67 66 67 65 66 65 67 65 59 58 58 58 59 60 59 58 58 58 58 60 65 69 70 70 70 70 69 68 67 66 65 65 64 64 64 64 64 64 65 65 65
71 69 68 67 66 67 66 66 65 65 59 57 58 57 57 57 59 61 57 57 57 57 56 64 66 67 68 68 69 69 67 66 65 64 64 64 64 63 64 64 64 64 65
70 70 68 66 66 65 66 63 62 59 58 58 62 60 55 56 56 56 56 60 56 56 55 56 56 58 65 67 68 68 68 66 65 65 64 64 63 63 63 64 64 64 65
71 65 64 63 66 66 67 65 60 59 56 57 56 52 52 53 54 55 55 55 55 56 53 53 52 52 57 65 66 66 66 67 66 65 64 63 63 63 63 63 64 64 64
66 69 68 63 62 64 63 62 60 57 60 57 54 48 48 50 53 55 53 55 54 55 55 54 52 51 51 52 53 63 65 66 66 65 64 63 62 62 62 63 63 63 64
66 66 65 65 65 64 63 62 61 58 56 54 55 51 44 46 46 50 53 52 53 52 53 55 54 53 51 49 54 58 61 63 65 64 63 62 62 61 62 62 63 63 63
66 66 65 64 62 63 62 64 64 62 55 53 51 56 51 50 47 46 48 51 51 54 54 53 54 54 52 51 53 54 59 60 61 62 62 61 61 61 61 62 62 63 63
65 65 65 63 62 63 64 61 60 59 58 56 54 49 48 48 47 45 43 46 50 54 55 56 55 54 53 50 49 53 57 58 59 60 60 60 60 60 61 61 61 61 61
61 64 64 63 64 64 61 60 60 60 59 58 56 51 50 51 50 45 43 43 46 51 52 53 54 52 50 48 52 55 56 57 58 57 58 58 59 59 59 59 59 59 58
59 61 62 62 62 64 63 62 59 59 58 57 55 54 54 53 52 51 50 46 46 46 47 46 48 50 52 49 51 53 54 55 54 55 55 56 57 57 56 56 57 57 57
57 61 63 63 63 63 61 61 60 59 56 56 56 54 54 53 51 50 50 46 42 40 40 40 42 43 46 46 50 50 47 49 48 49 51 53 54 53 53 54 54 54 54
59 58 57 57 58 58 59 60 58 58 57 56 55 55 53 50 49 48 48 48 49 40 37 38 38 39 41 43 45 43 42 43 45 46 47 47 49 48 49 51 52 52 52
55 54 54 55 55 55 56 55 55 54 54 52 51 50 47 46 46 45 45 44 44 43 38 37 37 38 40 41 43 40 40 42 44 45 46 47 49 50 51 51 51 51 51
52 52 52 52 52 52 52 51 49 49 48 47 47 47 44 43 41 41 41 41 41 41 39 34 36 36 36 38 39 38 39 39 39 44 46 47 49 49 49 49 49 50 50
49 48 49 48 47 48 47 46 45 44 43 44 43 42 40 42 39 39 39 39 39 39 38 34 33 32 33 35 36 36 39 41 40 43 45 47 48 48 49 49 49 49 49
44 44 44 43 43 43 44 45 45 43 42 42 42 41 40 39 37 37 37 37 35 35 35 36 33 33 33 34 34 35 35 37 41 43 45 47 48 48 47 47 48 48 48
41 41 41 41 41 40 41 42 41 40 39 39 40 39 39 38 37 36 34 33 34 34 34 34 33 33 34 35 34 34 33 35 34 40 42 43 45 45 45 45 45 45 45
40 39 39 40 40 42 43 39 39 38 37 36 36 37 36 38 39 37 35 34 34 34 33 32 32 32 32 32 30 31 30 30 31 32 32 32 32 32 33 39 41 43 43
40 39 39 41 41 43 44 42 39 36 35 34 34 34 35 37 40 41 40 39 37 34 32 32 32 31 30 29 28 29 28 24 21 29 28 29 31 29 30 30 40 43 44
38 37 38 39 40 41 43 41 39 35 34 33 33 34 34 34 34 33 37 38 37 39 39 35 30 28 27 28 26 23 25 22 24 27 27 26 28 28 30 36 41 43 44
35 35 35 36 37 40 41 40 38 33 33 32 33 33 33 33 34 34 34 34 33 33 34 36 30 29 29 30 29 27 27 25 27 28 28 20 26 27 29 29 39 41 42
32 32 33 33 33 35 40 39 35 30 27 28 31 31 32 32 38 39 33 30 30 31 39 40 39 40 41 41 38 28 21 18 21 24 27 25 25 25 27 28 29 39 42
33 34 32 27 35 24 40 39 31 26 23 28 29 31 39 35 39 39 28 27 25 26 27 28 28 30 32 30 38 30 22 13 13 15 26 21 23 24 21 27 27 29 28

GFSMA_sfc_temp_042.txt.gz
Temp
62 63 63 63 64 63 62 61 60 60 59 59 60 60 60 58 59 60 60 66 70 72 73 72 72 71 70 70 69 69 68 67 67 67 67 67 67 67 67 67 67 68 68
65 65 64 63 64 64 64 62 61 60 59 59 60 60 60 59 58 59 59 62 68 70 72 72 72 71 70 70 69 69 68 67 67 67 66 66 66 66 66 66 66 67 67
66 67 66 65 65 64 64 62 61 60 59 59 58 59 59 58 57 58 58 59 63 66 69 72 72 71 70 70 69 68 68 67 67 66 66 66 65 65 65 65 65 66 66
68 67 67 66 66 64 65 63 62 60 59 58 57 57 58 58 57 57 57 57 58 60 65 69 71 71 70 70 70 69 68 67 66 66 65 65 65 65 65 65 65 65 65
70 69 68 68 65 66 65 65 62 60 58 56 57 57 56 56 56 59 55 56 56 57 57 63 67 68 69 70 70 69 68 66 66 65 65 64 64 64 64 64 64 64 65
68 68 67 67 65 65 64 63 63 58 58 57 61 61 55 55 54 54 55 58 56 56 55 56 58 60 66 69 69 70 69 67 66 65 65 65 64 64 64 64 64 64 65
66 64 63 63 63 64 65 64 62 60 55 54 54 57 56 57 53 53 54 55 55 56 54 54 55 54 59 66 68 69 69 68 67 66 65 65 64 64 64 64 64 64 64
66 66 63 62 63 63 61 61 60 57 57 53 52 49 53 54 52 55 52 55 54 56 55 54 52 52 53 54 56 66 67 68 68 67 66 65 64 63 63 63 63 64 64
65 65 65 63 62 63 63 63 62 59 59 52 53 52 45 46 46 48 50 52 53 51 54 54 54 54 52 51 56 59 63 65 67 67 66 65 64 63 63 63 63 63 64
63 64 64 63 62 61 61 60 61 60 56 53 51 54 52 49 47 47 47 47 48 51 50 50 54 54 54 53 54 55 59 61 65 66 66 64 63 63 62 63 63 63 63
61 63 64 63 62 61 61 61 61 61 60 60 53 49 50 50 49 47 45 45 47 49 50 53 54 54 54 52 51 54 59 61 63 63 64 64 62 62 62 62 62 62 61
57 60 62 62 61 61 61 60 60 58 59 57 57 56 52 50 51 47 45 44 45 50 51 53 53 51 49 48 51 53 57 59 61 61 61 61 60 60 59 60 60 60 59
54 58 59 59 60 62 62 62 60 58 59 58 57 55 55 53 52 50 49 47 42 45 45 45 45 46 48 46 49 53 56 58 59 58 58 58 56 54 53 53 54 56 58
54 56 58 58 58 59 61 61 57 57 58 57 56 54 54 54 52 52 51 46 41 41 41 42 42 44 44 45 47 50 49 50 50 51 52 53 52 51 50 51 52 53 54
55 55 55 55 55 56 56 56 55 54 56 56 55 55 53 52 51 51 50 49 48 43 39 39 39 41 43 46 47 45 44 48 48 48 48 49 48 48 49 50 50 51 52
51 52 52 52 52 52 53 52 51 51 50 50 52 52 49 47 46 46 46 44 43 44 41 39 38 39 41 43 45 41 42 45 46 48 48 48 47 47 49 50 50 52 52
48 48 49 48 48 48 48 47 46 46 48 48 47 46 44 44 43 42 42 42 41 41 40 36 37 37 38 39 41 40 41 41 40 46 47 47 47 47 48 49 50 51 51
44 44 45 45 44 44 44 43 42 42 45 44 43 42 41 42 40 40 40 39 39 39 38 35 34 33 34 37 37 37 39 41 40 42 43 45 45 47 49 49 50 49 49
41 41 42 41 41 41 41 41 41 41 41 42 41 41 40 40 38 38 38 36 36 36 36 36 33 33 33 34 34 35 35 37 39 41 43 46 47 48 49 48 48 48 48
39 39 39 40 40 39 39 38 37 36 36 38 39 39 39 38 37 36 35 34 34 35 35 35 34 33 34 34 34 34 33 34 35 40 42 44 44 45 46 46 45 45 45
39 38 38 39 39 40 41 37 36 37 36 36 36 37 37 40 41 39 36 34 34 34 34 33 33 33 33 32 32 32 32 31 31 31 32 32 32 31 33 39 40 42 43
40 41 40 39 41 43 43 42 37 35 36 35 34 34 35 36 38 42 41 40 38 34 33 32 32 30 30 30 29 28 26 24 23 30 28 28 30 30 30 31 39 42 43
37 37 38 40 40 40 42 41 39 33 32 32 33 33 34 35 34 34 37 38 38 39 39 33 30 27 27 28 25 22 24 22 24 27 26 25 27 28 29 34 40 42 43
35 35 36 36 38 40 42 40 38 33 30 27 29 27 29 30 33 33 32 31 31 31 32 35 30 29 29 30 29 27 27 25 27 27 27 19 25 26 28 28 38 40 42
33 33 33 34 33 34 41 39 31 23 24 24 29 29 30 30 39 39 30 27 28 28 37 39 38 39 40 41 37 27 20 17 20 24 27 24 24 25 26 26 28 38 41
33 33 25 25 35 21 40 39 30 25 22 28 28 29 38 35 39 38 28 26 25 26 27 28 28 29 31 29 37 29 22 12 13 15 25 20 23 24 19 26 27 28 28

GFSMA_sfc_temp_045.txt.gz
Temp
61 61 62 62 63 63 62 60 60 59 58 58 58 58 61 60 57 59 60 64 69 73 74 73 72 71 71 70 70 69 68 68 68 68 67 67 67 67 67 68 68 68 68
62 61 62 62 62 63 63 61 60 59 58 58 58 58 59 57 57 58 59 60 67 70 72 73 73 72 71 71 70 69 68 68 67 67 67 66 66 67 67 67 67 67 68
63 64 62 61 62 62 63 62 61 60 58 58 57 59 58 58 56 57 58 58 61 66 69 72 72 72 72 71 71 69 69 68 67 67 67 66 66 66 66 66 66 66 67
65 64 64 64 64 61 62 61 61 59 57 57 56 57 58 57 57 56 56 57 58 60 64 69 71 72 72 71 71 70 69 68 67 66 66 66 65 65 65 65 65 65 65
68 67 66 66 63 63 62 63 61 60 57 56 56 56 56 56 56 59 55 56 56 57 57 63 66 68 69 71 71 71 69 68 67 66 66 65 65 65 65 65 65 65 65
66 66 66 65 63 63 63 62 62 58 58 58 60 60 59 60 56 54 55 57 55 56 55 56 57 60 66 69 71 71 70 69 67 66 66 65 65 65 64 65 64 64 65
66 64 64 63 62 63 64 63 62 59 57 54 53 52 53 54 53 53 53 54 54 56 54 55 55 55 59 67 69 70 70 70 68 67 66 65 65 65 65 65 64 64 65
65 64 63 62 61 62 61 61 61 59 57 54 53 48 50 52 51 54 52 54 54 53 54 55 53 54 54 55 58 67 69 70 70 68 67 66 65 65 65 64 64 64 64
64 64 64 63 61 61 61 61 60 59 59 52 52 55 47 46 46 50 49 50 51 48 51 52 52 52 53 55 58 60 64 67 69 69 68 67 65 65 64 64 64 64 64
61 62 62 62 62 60 60 61 60 59 56 59 52 55 52 51 50 49 48 48 47 51 48 50 52 53 55 54 55 57 61 62 65 67 68 68 66 65 64 64 64 64 64
57 59 60 61 60 60 60 59 58 58 59 60 55 52 51 51 49 48 51 49 49 49 51 50 53 54 54 54 52 54 57 59 62 65 67 67 66 65 64 63 63 62 61
54 56 58 59 59 59 59 59 59 58 59 59 57 54 53 51 49 48 46 50 48 48 49 48 49 51 50 49 52 54 55 55 55 57 58 61 64 63 61 58 57 57 57
52 54 56 58 58 59 59 59 60 60 58 57 56 55 53 55 54 51 50 49 46 45 42 42 42 45 48 48 49 51 53 53 55 57 58 59 56 54 54 55 56 56 56
50 54 55 55 55 57 57 57 56 55 54 57 56 53 53 53 52 52 51 48 44 42 42 44 40 42 45 45 47 51 49 53 54 56 54 54 53 52 53 54 54 53 54
53 52 52 52 52 53 53 54 53 53 56 55 54 54 53 52 51 50 50 49 48 42 42 40 37 38 40 44 47 48 48 52 53 52 51 51 52 52 51 51 52 52 52
48 49 49 49 49 49 49 48 47 48 51 50 49 49 47 46 45 45 44 45 44 44 41 41 38 37 40 44 46 44 44 49 50 50 50 50 50 50 50 50 51 51 50
45 45 46 46 46 45 45 45 44 45 48 46 45 45 43 43 42 42 42 42 42 42 39 38 37 38 39 40 41 40 42 42 42 48 49 49 49 49 49 49 49 49 50
42 42 43 43 42 42 41 41 41 41 41 41 42 43 41 43 40 40 40 39 39 39 38 36 34 34 35 37 37 38 40 41 40 42 45 46 46 47 47 48 49 50 50
40 40 40 39 39 39 39 38 38 38 38 38 38 37 38 38 38 38 38 37 36 37 36 36 34 34 34 34 33 34 35 36 39 41 43 45 45 47 48 49 49 49 48
38 38 38 38 38 37 37 36 36 35 35 36 36 36 37 37 36 34 35 34 34 35 35 35 34 34 34 34 35 34 33 35 35 39 42 44 44 45 45 46 46 46 46
38 37 38 39 40 41 40 35 35 37 37 36 36 36 38 40 41 39 36 35 35 34 34 34 33 33 33 33 32 32 32 31 31 30 32 31 31 32 32 38 40 42 43
40 41 41 40 41 42 43 41 38 36 36 35 34 34 35 37 38 43 43 42 39 34 33 32 32 30 28 28 28 29 26 22 23 29 27 28 30 30 30 30 38 41 42
38 37 38 39 40 41 42 41 39 33 29 29 29 29 32 34 33 33 37 38 38 40 40 31 28 27 26 27 24 22 23 22 24 27 26 24 26 27 29 33 39 41 43
35 36 36 37 37 40 42 40 37 28 26 25 27 24 27 29 32 32 30 29 29 30 32 33 28 28 28 28 28 26 26 24 26 27 26 18 24 26 28 28 37 39 41
33 32 33 32 26 27 40 38 30 23 24 23 28 28 29 29 39 38 29 27 27 28 35 38 37 38 39 39 35 27 29 17 20 24 26 24 24 24 26 25 28 38 40
33 27 21 21 34 20 40 39 29 26 22 27 28 29 36 35 39 39 28 26 25 26 27 27 27 28 30 29 36 28 22 11 13 14 25 20 22 23 19 26 27 28 28

GFSMA_sfc_temp_048.txt.gz
Temp
60 60 61 61 62 62 62 61 60 59 58 58 58 57 57 57 56 57 59 63 67 71 74 74 73 72 72 71 70 69 69 68 68 68 67 67 67 68 68 68 68 69 69
61 61 60 61 61 62 62 61 60 59 59 58 58 58 57 57 56 56 58 60 65 68 71 74 74 73 73 72 71 70 69 68 68 68 67 67 67 67 67 67 67 68 68
62 62 61 60 61 62 62 61 61 60 58 58 57 57 57 57 56 57 57 58 60 64 68 72 73 73 72 73 72 71 69 68 68 67 67 66 66 66 66 66 66 67 67
64 62 61 61 61 61 61 61 61 59 58 57 56 57 57 57 57 57 56 56 57 60 63 68 71 72 72 72 72 72 70 69 68 67 67 66 66 66 65 65 65 65 66
65 64 64 64 62 61 60 61 60 60 58 58 57 57 56 57 60 59 55 55 56 58 58 62 66 67 69 72 72 72 72 70 68 67 67 66 66 65 65 65 65 65 65
65 65 65 64 62 62 61 60 60 58 59 58 58 58 54 55 55 55 55 56 55 56 56 56 57 60 65 69 71 72 72 71 69 67 67 66 66 65 65 65 65 65 65
64 63 64 63 62 62 63 62 60 59 58 54 56 57 54 54 54 56 54 54 53 54 54 54 54 54 57 66 69 71 72 72 70 68 67 66 66 66 65 65 65 65 65
65 63 62 62 61 60 60 60 60 58 60 54 57 52 53 53 51 53 51 52 51 52 52 53 52 53 53 54 59 67 70 72 71 70 68 67 66 66 66 66 65 65 65
64 63 63 63 62 60 60 60 59 59 59 53 53 57 51 50 50 55 54 51 49 49 49 51 51 52 52 54 58 62 65 67 69 71 69 68 67 66 66 65 65 65 65
58 60 61 61 61 60 59 60 59 58 57 58 53 55 53 52 49 49 54 53 51 52 49 50 50 51 54 55 56 57 60 63 66 68 69 69 68 67 66 65 65 65 64
55 56 57 57 58 58 59 59 57 57 57 59 56 53 52 50 50 48 49 51 52 49 49 51 53 50 52 53 52 54 59 61 64 65 65 64 63 63 64 64 64 63 61
53 55 56 56 57 57 58 58 58 57 59 59 58 55 53 50 48 48 46 47 49 48 46 47 46 46 47 48 52 54 56 58 60 59 60 61 62 59 59 57 58 57 57
51 52 54 55 56 58 59 58 57 57 57 57 57 56 55 54 54 51 50 49 47 46 45 46 43 43 46 44 46 53 55 57 58 59 60 60 60 59 56 56 54 54 55
49 51 53 53 53 54 55 58 57 56 54 56 55 55 54 53 52 52 50 48 45 44 41 42 43 40 41 42 45 51 50 55 56 57 59 59 57 56 53 54 55 56 57
51 50 50 50 50 51 51 54 54 53 53 52 51 51 51 48 49 49 49 48 47 43 43 44 39 37 39 41 45 45 48 50 55 55 56 53 50 50 51 53 55 55 54
46 47 47 47 47 47 47 47 48 51 50 49 49 48 46 46 45 45 45 45 45 44 41 42 39 39 41 44 45 44 45 49 52 54 51 49 49 51 52 52 52 52 53
43 43 44 44 43 43 44 43 43 48 47 46 44 44 42 44 43 43 43 43 42 42 39 38 38 38 39 40 41 42 42 42 42 47 48 49 50 50 50 50 50 51 50
41 40 41 41 40 40 39 40 39 39 40 39 39 39 38 41 38 38 37 37 36 38 38 36 34 34 35 37 38 39 41 42 40 43 45 47 47 48 48 49 48 48 49
38 38 39 38 37 37 37 36 36 36 36 36 36 35 36 36 35 34 35 35 36 37 36 36 34 35 35 35 34 35 36 36 39 41 43 45 46 47 47 47 48 48 48
40 37 37 37 37 36 36 35 36 37 37 37 38 38 37 36 36 36 35 34 35 35 36 35 34 34 35 35 35 34 34 35 35 39 41 43 44 45 45 46 46 46 46
40 39 41 41 42 41 39 38 39 38 37 36 36 37 38 41 43 40 37 35 36 35 35 34 34 34 33 33 32 31 29 29 29 30 31 31 31 31 32 38 39 42 43
40 41 40 40 40 42 42 41 38 36 36 35 33 33 35 37 38 43 43 42 39 32 30 26 25 28 27 26 26 26 25 21 21 27 26 28 29 29 30 30 37 41 42
38 38 38 40 40 41 42 41 38 30 28 26 27 28 31 34 32 31 36 37 37 39 40 30 27 26 26 26 23 21 22 21 23 26 26 23 26 26 28 32 38 41 42
36 36 36 35 34 39 41 39 36 26 23 23 25 23 27 28 32 30 29 28 28 29 31 32 28 27 27 28 27 25 26 24 26 27 26 17 24 25 27 28 36 38 40
33 32 29 26 24 25 40 38 29 20 22 22 28 28 29 29 39 38 29 26 27 28 35 37 37 37 38 38 35 26 20 17 20 24 25 23 24 24 26 26 28 37 38
32 26 21 19 33 20 40 38 29 25 21 27 27 29 36 34 39 39 28 26 24 25 26 27 27 28 29 28 35 27 21 11 12 14 24 19 22 23 19 26 27 28 28

GFSMA_sfc_temp_051.txt.gz
Temp
71 71 71 71 71 72 72 72 72 72 72 72 72 71 71 72 73 73 73 64 67 70 73 75 74 73 72 71 71 70 69 68 68 68 67 67 67 68 68 68 69 69 69
72 71 71 71 71 71 72 72 72 72 72 71 71 72 71 71 72 71 72 73 65 67 70 73 74 74 74 73 71 71 69 68 68 68 67 67 67 67 67 67 68 68 68
72 72 71 71 71 71 71 71 71 70 70 70 70 71 71 72 71 71 71 71 72 64 66 71 73 74 74 73 73 72 70 70 68 68 67 67 66 66 66 67 67 67 67
72 72 71 71 72 71 70 70 70 69 69 69 71 72 71 71 71 72 71 71 71 71 68 67 70 72 73 73 73 73 72 70 68 68 67 67 66 66 66 66 66 66 66
73 72 72 72 72 71 69 69 69 68 69 70 69 71 70 69 70 70 71 68 70 69 71 67 65 67 69 72 73 74 73 70 69 68 68 67 66 66 66 66 65 65 65
72 72 72 72 71 69 69 68 68 69 69 69 67 67 68 68 68 69 70 69 68 68 68 68 69 70 65 69 71 73 73 72 70 68 68 67 67 66 66 66 65 65 65
71 70 69 69 69 68 70 69 68 66 65 64 60 64 65 68 67 67 69 67 67 67 67 67 67 68 69 65 68 70 72 73 71 69 68 67 67 66 66 66 66 66 66
71 69 68 67 68 68 68 67 66 65 63 61 60 56 57 66 65 66 65 64 65 65 64 65 65 66 66 68 67 66 69 72 73 71 69 68 67 67 67 67 66 66 66
67 67 67 66 67 65 65 66 65 64 62 59 60 60 55 56 58 66 64 61 62 63 63 62 62 62 64 64 61 61 63 66 70 70 68 67 68 67 67 67 67 66 65
63 64 64 65 65 65 64 65 65 64 63 61 57 59 58 58 53 52 60 62 58 62 61 61 62 63 62 61 59 59 60 61 65 67 65 66 63 64 67 66 65 66 65
61 61 62 62 63 63 64 64 64 62 63 63 60 57 56 54 57 55 51 56 61 63 62 62 61 62 61 61 58 57 58 61 64 66 66 66 64 63 62 62 63 62 60
59 60 60 61 62 62 61 61 62 62 62 61 62 60 59 58 56 53 50 51 52 59 59 58 57 57 57 57 56 55 56 59 61 64 66 66 65 64 64 60 61 61 60
57 57 58 59 60 61 62 62 61 60 60 59 59 59 57 57 56 55 53 52 49 55 57 57 54 52 53 53 53 51 54 56 59 62 64 65 63 62 61 61 60 58 56
54 56 56 57 57 58 60 61 58 58 59 58 57 57 56 56 56 56 53 52 48 48 53 56 49 49 50 51 50 50 54 53 55 58 61 61 60 59 58 57 54 54 54
53 53 54 54 54 55 56 57 57 56 55 55 55 55 54 53 54 55 53 53 51 47 50 51 49 46 45 48 49 51 51 51 52 54 55 55 52 52 52 52 51 53 54
50 51 51 52 51 52 53 54 54 54 53 52 52 51 50 50 50 50 51 51 51 50 46 45 42 41 45 46 46 47 47 48 51 53 52 51 50 50 50 51 51 51 52
47 48 48 48 48 48 49 50 50 51 51 49 49 48 47 48 48 47 47 47 45 44 43 40 40 41 42 42 43 44 44 43 44 49 50 50 49 49 49 50 50 51 51
45 45 46 45 45 45 46 47 46 46 45 44 44 44 43 45 43 44 44 43 42 42 41 38 38 38 38 40 40 40 41 43 42 44 47 48 48 48 49 49 49 49 49
44 44 44 43 42 43 43 43 42 41 41 41 42 42 41 43 41 41 41 39 40 41 40 41 38 38 39 37 37 37 38 39 41 42 44 45 45 46 47 47 48 48 48
42 42 43 42 41 40 40 40 40 40 40 41 42 42 42 42 40 39 38 37 38 39 40 38 37 37 38 37 37 36 38 38 38 43 43 43 44 44 44 45 46 45 45
42 43 43 43 43 42 41 40 40 40 39 39 39 40 40 42 42 42 40 39 39 39 38 37 37 39 38 39 36 37 38 39 40 39 40 42 42 43 44 43 42 42 43
41 42 42 42 42 42 43 42 40 39 38 37 36 35 37 38 39 43 42 42 41 38 35 35 35 36 36 36 37 36 36 35 35 39 38 39 41 41 41 42 40 41 42
40 39 40 41 41 42 42 41 38 36 34 33 33 35 36 37 36 37 38 38 38 40 39 38 36 36 35 36 34 33 33 34 34 38 36 35 38 37 41 40 39 40 42
38 38 37 38 39 40 41 39 36 33 32 32 33 33 35 36 38 36 35 35 35 36 37 37 37 37 37 37 36 35 35 34 36 37 36 31 37 36 40 40 36 38 40
34 32 32 32 32 34 40 38 33 32 31 32 35 36 37 37 40 37 35 32 33 34 36 37 37 37 37 37 38 36 33 31 31 34 35 33 35 34 37 38 39 38 39
33 32 30 29 35 31 40 38 33 34 32 34 34 35 37 38 39 39 35 34 31 33 33 34 34 34 33 34 34 35 33 29 29 30 34 31 32 32 31 38 38 39 40

GFSMA_sfc_temp_054.txt.gz
Temp
79 81 82 82 82 82 82 82 81 82 81 81 81 80 80 81 81 82 82 67 67 70 72 74 75 73 73 72 72 71 69 68 68 68 67 67 68 68 68 68 69 69 69
81 80 81 80 81 82 82 82 81 81 81 81 80 81 80 80 80 80 81 80 67 68 70 72 74 75 74 73 72 71 70 69 68 68 68 67 67 67 67 68 68 69 69
81 80 81 80 81 82 81 81 80 80 79 80 79 80 80 81 81 80 80 80 79 65 67 70 72 73 74 74 74 72 71 70 69 69 68 67 67 67 67 67 67 68 67
81 80 80 80 81 81 80 80 79 78 78 79 79 80 81 81 80 81 80 80 79 79 71 68 69 71 73 74 74 74 72 70 69 69 68 68 67 66 66 66 66 66 66
81 80 80 81 81 80 79 79 78 78 76 78 78 79 79 79 79 79 79 79 78 76 77 72 66 66 68 71 73 74 74 72 70 69 68 68 67 67 66 66 66 66 66
81 80 81 80 81 79 78 78 76 77 75 76 76 75 76 77 77 77 79 79 79 76 76 75 75 74 64 68 70 73 73 73 71 70 69 68 68 67 67 67 66 66 66
80 78 78 79 79 77 77 77 76 74 73 73 66 69 74 76 77 78 78 78 76 76 75 74 74 75 75 66 68 69 71 73 73 70 69 69 68 67 67 67 67 66 66
78 76 76 75 75 74 74 74 73 69 67 68 63 59 63 73 76 76 76 74 74 74 73 72 73 73 72 73 71 66 68 71 72 72 70 69 68 68 68 67 67 67 66
73 72 70 69 69 68 66 68 69 68 64 65 64 63 63 65 68 74 72 73 72 72 72 70 69 70 70 71 68 67 62 64 67 70 70 68 65 64 65 65 65 66 65
70 71 71 72 72 71 67 67 68 67 66 63 62 64 65 66 59 57 69 71 72 71 71 72 70 70 69 69 64 60 59 60 64 67 69 69 66 65 64 64 64 66 65
69 68 69 69 69 69 70 70 69 68 66 64 63 62 63 59 58 56 56 63 68 71 71 70 68 68 66 65 64 61 56 59 62 64 67 69 69 66 64 65 63 63 64
67 67 66 67 68 68 67 66 66 65 65 65 63 64 62 62 59 58 55 56 58 64 67 67 65 63 62 62 59 54 55 56 58 61 64 67 67 66 64 63 63 62 62
65 65 64 65 66 66 65 65 63 63 63 62 61 61 61 60 59 58 56 56 57 62 65 66 61 61 60 60 59 51 54 54 56 58 62 64 65 65 64 65 63 62 62
63 62 63 63 63 64 65 65 63 62 60 59 60 59 59 59 60 58 57 59 54 57 60 60 57 57 57 56 54 52 56 53 53 55 57 58 58 58 59 62 58 56 56
59 60 60 61 61 61 60 60 59 58 57 56 56 57 58 58 59 58 57 58 54 50 52 53 57 52 50 54 51 54 51 50 52 54 55 54 53 53 54 54 54 54 53
57 58 58 59 59 59 60 58 58 58 57 55 56 57 57 57 55 55 54 54 54 53 49 52 48 45 49 51 49 50 50 47 49 52 52 52 52 52 52 52 52 51 51
56 56 56 56 56 57 58 57 55 55 55 54 55 55 54 55 55 54 54 54 53 51 47 44 45 45 46 46 47 48 49 47 46 48 50 50 50 50 50 50 50 50 51
54 54 54 54 54 54 55 56 53 52 53 52 52 52 50 51 51 52 52 50 49 47 46 42 43 43 42 45 44 44 44 48 49 46 47 48 48 49 49 49 50 50 50
53 53 52 52 52 51 52 52 52 50 49 50 49 49 49 50 47 47 46 45 44 45 44 44 42 44 43 40 39 41 41 42 45 45 46 46 46 47 47 48 48 48 48
49 48 50 49 49 48 46 45 45 45 45 45 46 47 47 46 45 44 42 41 42 43 43 43 41 42 42 41 39 41 46 47 47 48 47 44 44 43 44 45 46 45 44
45 45 46 47 47 45 44 43 43 43 43 42 42 42 44 44 43 44 44 44 44 44 43 40 41 42 43 44 42 43 43 44 47 44 45 47 46 48 48 46 44 43 43
43 43 44 45 44 44 43 43 44 43 42 42 40 40 42 41 42 43 43 43 43 41 40 41 41 42 42 42 44 41 40 39 38 44 42 43 46 44 46 47 44 42 43
42 42 43 43 43 43 42 41 41 42 40 38 39 40 41 42 41 42 40 39 40 40 40 43 41 42 41 41 38 36 37 38 38 42 39 39 44 42 46 46 42 41 42
41 41 41 42 41 42 41 40 39 39 37 38 39 39 41 42 40 41 41 40 40 41 41 42 42 42 41 42 40 39 38 38 41 42 40 34 43 41 45 45 40 39 40
37 36 38 38 36 38 40 39 38 38 36 37 40 41 42 42 40 38 39 35 39 39 38 37 37 37 37 37 39 40 36 34 35 39 41 36 40 38 42 43 44 38 39
34 36 33 35 37 36 40 39 37 41 37 39 40 40 38 41 39 39 39 39 36 38 38 38 39 38 37 38 36 39 37 31 33 33 38 34 36 35 34 43 43 43 43

GFSMA_sfc_temp_057.txt.gz
Temp
80 82 83 83 83 83 83 82 82 82 82 82 82 82 81 81 82 81 80 69 70 71 72 74 75 74 73 72 72 71 70 69 68 68 68 68 68 68 68 69 69 70 69
82 81 82 82 82 83 83 83 82 82 81 82 82 82 82 81 81 80 80 79 69 70 71 73 74 75 75 74 73 72 71 70 69 68 68 67 67 67 68 68 68 69 69
82 82 82 82 82 83 83 82 82 81 80 81 80 81 81 81 81 81 81 80 77 66 69 72 73 74 74 75 75 74 72 71 70 69 69 68 67 67 67 67 67 68 68
83 82 81 81 83 82 81 80 80 79 79 79 79 80 77 79 81 81 81 81 79 78 69 69 71 72 73 74 75 75 73 71 70 69 70 68 67 67 67 67 66 66 67
83 82 81 82 83 81 80 79 78 78 76 76 76 77 78 78 80 80 79 79 79 77 76 71 67 67 68 70 73 74 74 72 71 70 69 69 68 67 67 67 66 66 66
83 82 81 81 80 78 77 76 75 76 75 75 76 75 76 77 78 77 78 79 79 78 76 74 73 71 65 68 70 72 73 73 72 70 70 69 69 68 67 67 67 66 66
82 80 79 78 77 77 77 78 76 74 72 73 67 69 71 76 76 76 79 78 77 76 75 73 73 72 72 67 69 70 71 72 72 71 70 69 69 69 68 68 67 67 67
79 75 74 73 72 72 74 73 71 69 68 69 64 60 61 70 74 74 75 74 74 73 72 72 72 71 70 70 66 65 66 68 70 70 70 69 68 68 68 67 67 67 67
75 74 72 70 69 68 67 68 67 65 63 64 64 62 61 62 66 71 71 72 71 71 72 70 70 70 69 68 67 64 60 61 64 67 69 70 69 67 65 65 66 67 67
72 72 72 71 71 71 68 68 68 67 65 63 62 63 64 65 59 59 67 69 70 71 71 70 69 68 67 65 63 57 57 59 62 65 67 68 70 68 66 66 66 66 66
70 70 69 69 69 69 69 69 69 68 67 64 64 63 63 59 59 55 54 59 66 69 69 68 67 65 64 62 60 56 56 58 60 62 64 66 68 70 68 67 67 67 66
68 68 67 67 68 68 67 66 66 66 65 65 63 65 62 57 57 56 54 59 56 61 66 65 63 61 60 60 56 54 55 56 57 60 62 65 66 65 64 67 67 66 65
66 66 65 65 66 66 66 65 63 63 62 62 62 61 62 60 57 56 55 55 55 61 63 62 60 59 59 57 55 52 55 54 55 58 60 61 61 61 61 64 64 61 63
64 64 64 64 65 65 65 63 62 61 60 60 60 58 57 57 57 56 55 54 51 56 59 60 57 56 55 54 51 54 53 52 55 57 57 57 58 58 60 62 61 60 59
61 61 62 62 62 62 63 61 58 58 57 56 56 56 56 55 56 57 56 55 55 51 52 54 52 52 51 52 49 51 50 49 52 54 55 54 54 54 55 57 57 57 57
59 59 60 60 60 60 60 60 59 59 57 56 56 56 56 57 57 56 56 55 55 53 50 51 49 47 49 51 50 49 49 49 48 51 52 52 52 53 53 53 53 53 53
58 58 58 57 58 58 59 58 57 57 57 56 57 56 55 56 55 54 54 54 53 51 49 45 47 46 47 46 47 47 47 48 48 48 50 50 50 51 51 51 51 51 51
57 56 56 56 56 56 57 57 55 54 54 54 54 53 52 53 52 52 51 50 49 47 46 44 42 42 42 44 45 44 44 47 47 48 48 48 48 48 49 50 50 50 50
55 55 54 54 53 53 54 55 54 53 52 52 51 51 50 51 48 47 46 45 44 45 44 43 41 43 42 40 39 42 42 42 46 47 48 48 47 47 47 48 48 48 48
52 51 51 52 51 50 48 48 49 49 48 48 48 48 47 47 45 44 43 42 43 43 44 42 41 41 41 42 40 39 40 44 43 48 48 46 46 45 45 46 46 44 45
48 47 47 47 48 46 46 45 45 45 44 43 43 43 44 44 44 45 44 43 43 42 41 40 40 40 40 41 38 39 37 39 41 40 39 41 41 41 43 46 45 44 44
45 44 44 45 45 46 44 44 45 43 43 42 40 41 41 42 43 44 44 43 42 39 38 38 38 38 39 38 39 36 35 32 32 39 36 36 40 37 39 40 43 42 43
42 42 43 44 43 43 43 43 44 43 40 39 39 39 41 42 41 42 41 41 41 41 40 39 37 37 36 37 34 33 33 32 33 36 34 32 37 35 39 43 44 42 42
41 41 42 43 42 42 42 41 42 39 37 38 38 39 40 40 38 40 39 38 38 39 39 41 38 38 37 38 37 36 34 33 35 36 35 28 36 34 37 38 41 40 41
38 36 39 40 37 38 41 40 39 37 35 36 39 41 41 41 39 39 38 34 36 37 39 38 38 38 38 38 38 34 31 30 29 33 34 31 33 32 35 35 37 40 40
35 36 34 35 38 36 40 40 38 38 36 37 38 38 39 40 40 40 36 36 34 35 35 35 35 36 36 36 37 34 32 26 28 28 32 28 29 30 27 35 35 35 36

GFSMA_sfc_temp_060.txt.gz
Temp
69 69 70 70 70 70 70 69 71 71 71 72 72 71 71 70 69 69 67 68 70 72 74 75 75 74 73 72 72 71 70 69 69 68 68 68 67 68 68 68 69 69 69
70 70 69 70 69 70 71 71 70 70 70 70 71 71 71 71 70 70 69 67 68 70 72 74 74 75 75 75 73 73 71 71 69 69 68 68 67 67 67 68 68 69 69
72 71 70 69 70 71 72 71 71 70 69 71 70 71 71 71 71 71 70 70 68 66 69 73 74 74 74 75 75 74 72 71 71 70 69 69 68 67 67 67 67 68 68
74 72 71 70 72 71 70 69 69 68 67 69 72 73 73 74 73 74 72 70 69 70 67 70 71 73 73 74 75 75 73 71 71 70 70 69 68 67 67 67 66 67 68
75 72 71 71 72 71 71 72 73 72 70 70 69 68 69 69 69 72 68 69 69 70 69 68 66 68 69 71 73 74 74 73 70 71 70 70 69 68 67 67 67 66 67
75 72 72 74 76 73 72 72 70 70 67 67 72 68 64 66 67 67 67 70 68 67 66 66 62 62 65 69 71 72 73 73 72 70 70 70 69 69 68 68 67 67 67
76 73 71 74 73 72 71 72 71 69 67 67 64 64 63 65 65 66 66 69 66 65 65 64 62 62 62 67 68 69 69 70 71 71 70 70 69 69 69 68 68 67 67
74 71 70 69 69 68 68 68 67 65 65 65 61 58 57 59 63 64 64 65 63 63 63 63 62 62 60 59 60 61 63 65 67 68 69 69 69 68 68 67 68 68 67
70 68 67 67 67 66 65 66 65 64 62 63 63 61 57 53 56 60 62 62 61 61 60 61 61 61 59 56 54 55 59 61 64 66 67 68 69 70 68 68 67 68 68
66 67 66 64 63 62 62 62 63 62 61 60 59 61 62 60 56 54 57 59 60 62 60 63 59 58 57 54 54 56 57 59 62 64 65 67 68 69 70 67 67 68 68
63 63 63 61 61 61 61 61 61 61 60 59 58 60 59 58 57 55 53 57 61 61 59 61 59 54 55 51 50 52 57 58 60 61 64 65 67 68 67 67 68 67 68
61 62 62 60 60 60 60 59 59 59 58 58 61 60 59 54 52 51 53 51 54 57 56 55 53 51 51 50 53 53 55 55 57 60 62 63 64 65 64 65 66 66 65
58 58 58 57 58 59 59 59 58 60 60 59 60 57 58 58 55 54 53 53 52 53 55 50 49 49 53 48 47 51 53 54 58 59 60 61 60 60 61 63 65 64 67
55 56 57 57 58 59 58 57 57 58 58 57 57 56 57 57 57 56 55 53 50 51 53 46 46 45 46 46 48 50 47 53 55 57 58 58 57 57 60 62 63 62 62
57 54 55 55 56 56 56 60 56 56 55 55 55 55 54 54 55 54 54 54 52 47 45 43 42 43 44 44 47 46 46 51 52 53 53 53 54 55 55 58 59 60 59
54 53 53 53 54 54 54 56 56 56 54 53 54 54 53 53 53 53 52 52 50 48 43 43 41 40 43 46 47 47 47 49 50 51 52 52 52 52 53 54 54 54 54
51 52 52 51 51 52 52 55 54 54 54 53 53 53 52 51 51 48 47 46 46 43 41 41 40 40 41 39 43 43 43 43 45 49 50 50 50 51 51 51 52 52 52
51 50 50 49 50 50 49 50 51 51 52 51 52 51 47 49 46 45 45 46 45 43 40 38 39 38 40 39 37 41 43 44 41 47 49 49 49 49 49 50 50 50 51
49 49 49 48 48 48 47 46 48 46 47 46 45 46 44 46 45 43 42 41 37 41 40 39 37 40 39 39 38 36 37 37 42 48 49 49 48 47 48 48 49 48 48
47 45 45 46 45 43 43 43 44 42 41 42 42 42 42 44 42 38 38 38 41 40 41 40 38 38 38 39 34 33 33 36 37 44 45 46 48 47 46 46 46 45 45
43 43 45 46 46 45 45 44 44 44 42 41 41 42 40 42 45 45 41 40 41 40 38 36 36 38 38 38 31 31 30 30 32 33 32 33 34 35 37 43 44 45 44
41 42 43 44 43 45 44 45 44 42 42 40 39 39 40 42 43 45 44 44 42 38 36 35 35 32 30 30 29 28 28 24 24 31 29 29 32 32 33 34 44 43 43
39 41 42 43 42 42 44 45 45 41 38 37 37 37 39 40 39 37 41 42 41 42 40 33 29 28 28 29 28 27 27 24 26 30 29 26 30 31 32 39 45 42 43
39 40 41 41 40 41 43 43 42 34 31 32 34 34 35 35 36 37 35 33 33 33 34 37 30 29 30 30 30 30 29 28 29 30 29 21 28 29 31 32 43 42 41
38 35 38 38 36 37 41 41 36 28 28 30 34 36 37 35 40 40 34 32 31 32 39 39 38 39 38 39 37 29 23 22 23 27 28 27 27 27 29 30 32 42 41
35 35 34 34 38 32 41 40 36 31 31 32 33 34 40 37 41 40 32 30 29 30 31 31 31 33 34 33 37 29 24 17 19 20 27 23 26 26 21 29 30 31 31

GFSMA_sfc_temp_063.txt.gz
Temp
65 65 64 64 64 64 64 64 64 66 66 67 68 67 68 67 67 67 65 67 71 73 75 75 75 74 73 72 72 71 70 69 69 69 68 67 67 67 68 68 69 69 69
68 67 66 65 65 65 66 67 67 67 67 66 68 68 68 68 67 68 67 65 68 70 73 74 75 75 75 75 73 73 71 70 70 69 69 68 67 67 67 67 68 68 69
69 69 67 66 67 67 69 67 67 67 66 68 67 68 70 72 71 71 68 69 68 66 70 74 74 74 74 75 75 75 72 71 71 70 69 69 68 67 67 67 67 68 68
71 69 68 67 68 68 67 67 66 66 65 66 68 71 71 71 72 68 68 68 67 68 67 70 72 73 73 74 75 75 74 72 71 71 70 70 68 67 67 67 67 67 67
73 70 69 69 69 68 68 69 70 70 69 69 69 69 66 64 65 68 65 66 67 66 67 66 66 67 69 71 72 73 73 73 72 70 70 70 69 68 68 67 67 67 67
73 70 69 69 73 71 71 70 70 69 68 68 69 69 68 66 64 64 64 67 65 66 62 62 60 61 65 68 70 71 71 71 71 71 69 69 69 69 69 68 68 67 67
75 72 69 72 72 71 70 71 69 68 66 66 65 64 62 67 63 64 63 63 64 62 61 60 59 58 59 63 65 65 67 68 68 68 69 69 68 69 69 69 68 67 67
71 71 70 69 69 68 69 68 67 65 65 66 62 59 58 61 62 61 60 62 60 61 60 61 59 57 55 54 57 61 63 65 66 67 68 68 69 69 69 68 67 68 68
69 67 67 66 67 66 65 65 65 64 62 62 62 61 56 52 54 59 60 60 60 58 57 58 57 56 53 51 52 54 59 61 64 66 67 67 68 69 70 68 68 68 68
65 66 64 63 62 60 60 60 62 60 58 57 58 60 59 61 56 54 56 57 58 58 59 60 56 54 52 50 53 56 57 59 61 63 65 66 67 68 69 69 68 68 68
63 62 62 61 59 59 58 58 58 57 58 57 56 56 56 57 57 56 53 53 57 59 59 57 56 51 51 49 48 52 56 58 60 61 63 64 66 67 67 67 67 68 67
59 60 60 58 58 58 58 58 58 57 56 56 56 57 56 54 52 51 50 51 52 54 53 54 52 48 48 47 52 53 55 57 60 61 62 63 63 62 62 64 65 67 67
56 56 57 56 55 57 58 57 57 56 56 55 56 55 56 55 56 55 54 51 50 52 52 51 46 46 49 45 47 49 53 55 58 61 61 61 60 60 61 62 64 65 65
55 55 56 55 55 56 56 56 55 55 55 56 57 57 56 56 55 55 54 52 50 51 51 48 43 43 44 44 48 49 46 53 55 56 57 57 56 57 58 62 63 62 64
55 53 53 53 54 54 54 54 56 55 54 54 54 55 54 54 55 54 54 54 52 45 48 42 43 41 42 42 46 45 44 51 52 53 54 53 53 54 55 56 58 59 60
53 53 52 52 52 52 52 53 55 55 54 53 53 53 53 53 52 52 52 51 50 50 46 42 39 39 41 44 46 42 46 48 50 51 52 52 52 52 53 53 54 55 55
52 51 51 51 50 49 49 49 54 54 53 52 53 52 51 51 50 48 47 46 45 45 44 42 42 41 42 38 41 43 42 40 41 50 50 50 50 50 51 52 52 52 53
51 51 50 50 49 48 48 47 51 51 51 51 51 49 48 49 46 46 44 45 44 43 40 40 40 34 37 39 36 37 40 43 39 48 49 49 49 49 49 50 50 50 50
49 49 49 48 47 46 44 44 49 48 48 47 47 47 46 45 44 43 43 42 41 39 36 38 37 38 39 38 33 35 36 36 41 47 48 48 48 48 48 48 48 48 48
45 44 45 46 45 44 43 43 44 43 43 43 42 41 41 44 42 40 38 37 38 36 40 38 37 38 38 38 33 32 32 34 34 41 42 45 46 47 47 47 46 45 46
43 43 43 44 44 45 45 44 44 43 42 41 41 41 41 43 45 44 40 39 41 40 38 36 36 37 38 36 31 30 29 28 29 31 30 32 32 32 35 41 44 45 44
40 40 40 41 43 45 45 46 44 42 41 40 39 39 41 43 44 45 45 44 42 38 37 35 35 35 30 29 29 28 27 23 24 29 28 29 30 30 31 32 44 43 43
37 37 39 41 41 42 45 45 45 41 39 38 37 37 39 41 38 37 42 42 42 43 40 33 30 29 28 29 28 27 26 23 25 28 28 26 28 29 31 37 43 43 43
36 37 40 41 40 42 44 44 42 37 36 36 36 35 33 33 35 35 34 33 33 33 34 35 31 30 30 30 31 30 29 27 28 29 28 21 26 28 29 30 43 42 42
38 36 39 38 36 37 42 42 34 28 30 30 33 34 34 34 41 41 33 31 32 32 40 40 38 39 39 39 36 29 24 21 22 26 27 26 25 26 27 28 31 42 42
36 36 34 35 38 35 42 42 35 29 30 30 32 34 41 36 41 40 32 31 29 29 30 31 31 33 35 33 38 29 24 15 18 19 27 22 25 25 21 28 29 29 30

GFSMA_sfc_temp_066.txt.gz
Temp
63 62 63 62 62 62 63 62 62 63 63 64 65 65 65 65 64 65 64 65 70 73 75 76 75 74 74 73 72 71 70 70 69 69 68 67 67 67 68 68 68 69 69
65 64 63 63 62 62 63 63 63 63 64 64 65 66 66 66 65 66 65 64 67 70 73 75 75 76 76 75 74 72 72 70 70 69 69 68 67 67 67 67 68 68 69
67 66 64 63 64 64 64 64 64 64 64 65 64 66 66 70 70 70 69 68 66 65 69 74 75 75 75 75 75 75 74 71 71 70 70 69 68 67 67 67 67 68 68
69 67 66 65 66 66 65 64 64 64 64 64 67 67 70 69 69 67 65 65 65 69 67 69 72 73 73 73 74 74 74 73 71 70 70 70 69 68 67 67 67 67 68
70 68 67 67 67 67 66 68 68 69 68 69 68 69 68 68 66 66 64 64 64 64 63 66 66 66 68 70 72 72 72 71 71 70 70 69 69 68 68 68 67 67 68
70 68 68 68 69 70 69 69 69 68 68 68 67 68 67 68 66 63 63 64 63 62 61 60 59 60 65 68 69 69 69 69 69 69 69 68 68 69 69 68 68 67 68
72 69 67 68 68 70 70 70 69 68 67 65 65 61 62 62 63 61 60 60 62 63 59 61 57 56 58 62 64 65 66 67 68 68 68 69 69 68 68 69 69 68 67
72 71 70 69 69 68 68 69 68 66 65 65 60 57 55 57 58 58 57 58 58 62 61 60 56 54 52 53 56 61 62 64 66 67 67 68 68 68 69 68 69 67 68
69 68 67 67 67 66 65 65 64 64 61 60 60 58 53 51 53 57 58 60 61 60 59 56 55 53 51 51 53 54 59 60 63 65 66 67 68 68 69 70 69 68 68
64 64 64 63 64 62 62 61 61 59 58 56 56 58 57 57 54 51 55 56 57 57 54 56 54 52 52 50 54 56 57 60 62 63 64 65 67 68 69 68 68 68 67
61 61 61 60 59 58 58 58 57 56 56 55 54 54 55 54 55 53 50 52 54 56 55 53 51 50 52 49 48 53 57 60 63 63 64 65 66 65 65 66 67 67 67
58 59 60 58 57 57 57 57 57 56 56 55 55 55 54 53 51 51 50 50 51 52 53 53 51 50 48 47 52 54 56 58 60 63 63 62 62 62 63 64 65 65 67
56 57 57 56 55 56 56 56 55 55 54 53 54 54 54 54 55 53 52 51 52 51 50 49 48 47 48 45 47 49 54 56 57 60 61 60 59 59 61 64 63 64 66
55 55 56 56 56 56 54 54 53 54 53 53 53 54 55 56 54 55 54 53 50 51 50 46 46 45 43 44 48 48 46 53 55 56 56 56 55 56 57 60 62 62 63
55 54 54 54 54 53 53 52 52 52 52 51 52 52 54 55 55 55 55 54 53 49 48 44 43 43 41 42 46 43 43 51 52 53 53 53 53 53 55 56 57 57 58
54 52 52 52 52 51 51 51 51 53 53 53 53 53 53 52 52 52 52 52 51 50 46 43 41 42 41 43 45 41 43 47 49 50 51 51 51 52 53 53 54 55 56
52 51 51 50 49 49 49 48 49 54 53 52 52 52 51 51 50 49 48 48 47 47 46 41 42 42 42 40 39 40 40 39 40 49 49 50 50 50 51 52 52 53 53
49 49 48 48 47 47 47 46 47 49 51 50 51 50 48 49 47 47 46 45 45 44 44 40 40 38 39 38 35 36 39 42 38 46 50 49 49 49 49 50 50 50 50
46 46 47 46 46 46 45 45 46 47 49 48 48 48 47 46 45 44 44 43 41 41 39 40 37 39 37 39 34 33 35 34 40 45 47 48 48 48 48 48 48 48 48
44 43 43 44 44 43 42 42 43 43 44 44 44 44 44 45 43 42 41 40 40 37 37 36 35 35 38 38 35 32 32 32 33 39 41 43 44 45 47 47 46 46 46
41 41 41 42 41 42 43 41 43 43 42 42 42 42 42 44 44 43 40 37 38 39 38 36 36 37 37 36 31 30 29 28 30 30 30 31 31 31 34 40 43 44 45
39 39 39 40 40 43 45 46 45 42 42 41 39 40 42 43 45 45 45 44 43 39 37 36 35 36 31 30 29 28 27 24 25 29 28 29 29 30 30 32 43 44 44
36 37 37 38 38 39 45 46 45 41 39 38 37 38 39 41 39 38 43 42 42 43 41 35 32 31 29 30 28 27 26 25 26 29 28 26 28 28 30 35 41 43 43
35 35 37 38 37 41 44 44 43 38 37 36 37 37 36 36 35 35 33 32 32 32 34 36 31 30 31 30 31 31 29 28 28 29 28 21 25 27 28 29 42 43 42
37 37 39 39 37 38 43 43 38 34 34 34 35 36 33 33 39 41 32 30 31 32 40 39 38 39 39 38 34 29 26 24 25 27 27 26 25 25 27 28 30 41 41
37 37 34 36 39 35 42 42 34 27 28 29 31 33 40 35 42 41 32 30 29 30 31 31 31 34 34 35 38 31 27 21 22 20 26 22 24 24 21 28 28 28 29

GFSMA_sfc_temp_069.txt.gz
Temp
63 63 62 62 61 61 61 61 61 62 62 62 63 63 63 63 63 63 63 65 68 72 75 76 76 75 74 73 72 72 71 70 70 69 68 68 67 67 68 68 68 69 69
63 62 62 62 61 61 62 62 62 62 62 62 63 64 64 64 63 66 68 67 66 69 72 75 76 76 76 76 75 74 71 71 71 70 69 68 68 67 67 67 68 68 68
63 63 62 61 62 62 62 62 62 62 62 63 63 64 64 64 66 69 69 68 67 65 68 73 75 75 75 75 75 74 74 73 71 70 70 69 68 68 67 67 67 68 68
66 64 63 62 63 63 62 62 62 62 63 63 63 65 68 69 69 68 68 68 66 68 67 68 71 73 73 73 73 73 72 71 71 71 70 70 69 68 68 67 67 67 68
68 66 64 64 65 64 63 64 64 68 65 67 68 68 65 67 67 67 64 63 63 63 64 65 66 66 68 70 71 71 71 69 69 69 69 69 69 69 68 68 67 67 68
68 66 65 65 66 65 65 67 68 67 67 68 67 65 63 63 64 61 61 63 61 61 60 59 58 61 66 68 68 68 69 68 68 68 68 69 69 68 68 68 68 68 68
70 68 65 66 65 65 66 69 68 67 66 65 63 62 60 61 60 59 57 58 59 58 58 60 60 59 58 64 64 65 66 67 68 68 68 68 68 69 69 68 69 69 68
71 70 68 66 68 68 68 66 66 66 65 65 61 57 55 57 57 57 56 57 55 58 59 60 58 56 52 53 57 61 63 64 65 66 67 67 68 68 69 69 69 68 68
69 69 68 67 67 66 65 65 65 64 61 59 60 59 56 50 52 56 57 56 56 56 58 57 55 52 51 51 53 55 59 62 64 65 65 66 67 68 69 69 69 69 68
62 63 63 62 62 62 62 62 62 61 59 56 56 57 56 57 55 51 54 54 54 55 54 53 52 52 51 50 54 56 59 61 64 64 65 65 66 67 67 67 68 68 67
61 61 61 60 60 59 59 59 56 56 56 55 54 54 53 53 54 54 50 53 52 53 53 53 52 50 51 50 49 53 58 60 63 65 65 64 64 64 64 64 65 67 67
58 58 58 59 59 58 57 56 55 55 54 54 54 53 56 53 50 50 49 50 49 48 49 51 51 49 50 50 52 54 57 58 61 62 64 63 62 62 63 65 65 65 66
56 56 57 57 56 56 55 55 55 54 54 52 52 52 52 52 53 53 52 52 49 46 47 48 48 48 49 48 48 49 54 56 57 59 60 60 58 58 60 64 64 64 65
56 56 56 56 56 56 55 53 53 52 53 53 52 52 52 53 52 53 53 53 50 50 48 46 46 46 46 46 49 48 45 53 55 56 56 56 55 55 57 60 60 61 63
56 55 55 54 54 54 52 52 51 51 51 50 50 50 50 52 53 55 54 55 52 48 46 44 43 44 44 45 46 42 42 50 52 53 53 52 52 53 54 56 57 58 58
53 52 52 51 51 51 51 51 50 51 51 51 50 50 50 52 52 52 52 52 51 51 48 44 42 42 44 44 46 41 42 46 49 51 51 51 51 51 53 54 54 55 56
52 51 50 49 49 49 47 46 47 48 49 50 50 52 51 51 50 49 49 48 48 48 46 41 42 42 42 41 42 41 39 39 40 49 49 50 50 50 51 51 52 52 53
50 48 48 47 46 46 45 44 45 45 46 48 50 50 49 49 47 47 46 46 45 45 44 40 40 39 40 40 39 37 38 41 38 46 50 49 49 49 50 49 49 50 51
49 48 47 45 45 45 44 43 43 44 45 46 48 48 48 47 45 44 44 43 42 42 41 40 37 39 39 39 36 34 35 33 40 44 46 46 48 48 49 48 48 48 48
44 43 43 44 43 42 42 41 41 41 41 42 44 45 45 45 44 43 42 41 41 40 39 39 38 37 38 38 36 34 32 32 33 38 40 41 43 43 46 47 46 46 46
41 41 40 41 41 41 42 40 40 40 40 42 42 42 43 43 45 44 41 40 40 39 37 35 36 37 37 36 33 30 30 30 30 30 30 32 31 32 34 38 41 44 45
38 39 38 39 39 42 45 46 44 39 42 41 40 41 42 44 45 46 45 44 43 39 37 36 36 36 34 31 29 30 30 27 27 29 29 30 30 30 31 33 43 44 44
36 36 37 37 37 38 45 46 46 42 40 39 38 38 39 41 40 40 43 42 43 43 42 38 36 34 30 30 30 27 27 26 26 29 29 27 29 30 31 34 40 43 43
35 35 36 36 36 38 45 45 44 39 38 37 37 37 37 36 37 35 32 31 31 33 33 35 32 31 31 31 31 30 28 27 28 29 28 23 27 29 29 30 42 43 43
34 33 37 39 37 35 44 44 39 35 35 34 36 37 37 35 39 40 32 31 31 32 39 40 39 39 39 38 34 30 26 24 25 28 28 27 26 27 28 28 30 40 41
35 36 35 37 39 35 43 43 38 34 33 33 34 34 40 34 41 42 32 31 29 30 31 30 31 34 33 34 40 30 28 21 23 22 28 25 26 25 22 28 28 28 29

GFSMA_sfc_temp_072.txt.gz
Temp
62 62 61 61 60 60 60 60 60 61 61 62 62 62 62 62 62 62 61 64 68 70 74 76 76 76 74 73 72 72 72 71 70 70 69 68 68 68 68 68 68 69 69
62 62 61 61 60 60 61 61 61 61 61 61 63 63 63 63 63 63 64 67 67 68 71 74 76 76 76 75 75 74 73 72 71 71 70 69 68 68 68 67 68 68 68
63 63 61 60 61 60 61 60 60 60 60 62 62 63 63 63 64 68 67 68 68 65 68 71 74 75 75 74 74 74 73 71 71 71 70 70 69 68 68 68 67 68 68
64 63 61 61 61 61 60 60 60 60 60 61 62 64 64 66 66 66 66 64 64 66 67 68 70 73 72 72 73 73 71 69 69 70 69 69 70 69 68 68 68 68 68
66 64 62 62 62 61 61 61 61 61 62 62 64 67 67 64 64 64 62 62 62 62 61 65 67 67 69 71 72 71 70 69 69 69 69 69 69 69 69 68 68 68 68
67 66 64 64 64 63 62 62 63 65 66 67 67 64 62 62 61 60 59 61 61 60 59 59 59 62 66 69 69 69 69 69 68 68 68 68 69 69 69 69 69 68 68
69 68 67 65 64 63 64 67 67 66 65 65 63 59 59 60 59 56 56 56 58 57 57 56 59 59 61 64 65 66 67 67 67 68 67 68 68 68 69 69 68 68 68
70 69 68 66 65 64 67 67 66 64 64 64 61 56 54 56 56 56 54 55 54 56 56 56 55 56 55 53 57 61 63 65 66 66 66 67 67 68 69 69 69 69 68
69 68 67 66 66 66 65 65 65 65 63 60 59 61 56 50 51 55 55 54 54 53 53 53 54 54 51 50 52 55 60 63 66 66 66 66 67 67 68 69 69 68 68
64 64 63 62 62 61 61 61 62 61 61 59 57 57 56 55 51 49 53 52 52 53 51 52 51 52 52 50 54 57 59 61 65 66 66 66 66 66 66 66 67 67 67
61 61 61 61 60 59 59 59 58 57 57 54 53 53 52 52 57 54 49 50 50 51 53 50 50 49 51 49 48 55 58 60 63 66 65 65 64 64 65 66 66 66 67
58 59 59 59 58 58 58 58 57 56 54 53 53 52 56 53 49 50 51 50 49 50 50 50 49 46 47 50 52 55 57 58 61 62 63 62 61 62 63 65 66 66 66
56 57 57 57 56 57 57 56 56 55 53 52 52 52 52 53 53 52 51 51 51 48 49 49 47 46 49 48 49 50 54 56 58 59 60 60 58 58 60 62 64 64 65
57 56 55 55 56 57 55 55 53 52 52 52 52 53 53 52 51 51 51 50 49 49 47 47 45 46 45 44 48 49 47 53 55 56 56 55 54 55 57 59 61 61 61
56 55 55 54 54 53 53 52 51 52 51 51 50 50 51 51 51 52 52 54 53 49 46 44 42 44 45 45 46 45 45 50 52 52 53 52 52 53 55 56 57 58 58
54 53 52 53 52 52 51 50 49 50 50 50 50 50 50 50 50 50 51 52 52 51 49 44 43 42 44 45 45 43 44 45 49 51 51 51 51 51 53 54 54 56 56
52 51 51 50 49 49 48 47 47 47 47 48 49 48 49 49 49 49 49 49 48 48 46 41 42 42 42 42 42 42 42 39 40 49 50 50 50 51 51 51 52 53 54
51 50 49 49 48 48 46 45 45 44 45 45 46 47 47 49 48 47 47 46 46 45 45 41 40 39 40 41 40 40 40 41 39 47 49 50 49 49 49 49 50 50 51
47 48 48 48 47 45 44 43 43 42 42 43 44 45 48 47 46 45 45 44 43 43 41 41 38 39 39 39 37 37 37 35 39 44 46 47 48 48 49 48 48 48 48
45 44 45 45 43 42 41 41 41 40 40 40 41 42 45 46 45 44 42 42 41 40 41 40 39 38 38 38 37 35 34 33 33 38 40 41 42 44 46 47 46 46 46
42 41 41 41 40 41 41 39 39 39 38 39 39 42 43 44 45 44 42 41 41 40 39 37 37 38 37 36 35 34 32 31 31 30 31 32 32 33 34 39 42 45 45
39 39 38 39 38 41 45 46 43 38 39 39 39 41 42 44 45 46 45 45 43 39 38 37 36 37 36 35 33 30 30 27 27 30 30 31 31 31 31 33 44 44 44
36 37 37 37 37 37 45 46 46 42 38 39 39 39 40 41 41 41 43 42 43 43 42 38 36 36 34 34 29 27 28 26 29 29 29 28 29 30 31 34 41 44 44
35 35 35 36 36 38 45 45 46 40 36 38 38 38 38 37 37 37 35 33 31 32 33 35 34 32 31 30 31 32 30 28 29 29 28 23 27 29 29 31 42 44 43
34 33 35 35 35 37 44 45 39 35 35 35 37 38 38 37 39 40 32 30 29 30 39 40 39 40 39 38 34 30 27 25 26 28 28 28 27 28 29 30 32 40 42
35 36 34 35 39 37 42 45 40 35 34 34 35 35 40 37 40 42 30 29 28 28 30 30 30 33 33 36 39 31 28 23 24 23 29 26 27 27 25 29 30 29 30

GFSMA_sfc_temp_075.txt.gz
Temp
69 71 71 71 71 71 72 72 73 73 74 74 74 75 75 76 76 75 75 65 67 71 74 76 76 76 76 74 73 72 72 72 71 71 69 69 68 68 68 68 68 69 69
71 71 71 71 71 71 72 72 73 72 73 73 74 75 75 76 76 76 76 76 67 69 71 73 75 76 76 75 74 74 73 72 72 71 71 70 69 68 68 68 68 68 68
72 72 72 71 71 71 71 71 71 72 72 72 74 76 76 77 76 75 77 76 76 65 68 72 73 75 75 74 74 73 72 70 70 70 70 71 70 69 69 68 68 68 68
72 72 71 71 72 71 70 71 71 71 71 72 74 75 76 76 77 77 76 76 75 75 70 68 70 72 74 73 73 73 71 70 69 69 70 70 69 70 69 69 68 68 68
72 72 71 72 71 70 70 71 70 72 71 72 72 75 72 75 75 74 75 73 73 73 74 67 66 68 70 72 72 71 70 69 69 69 69 69 69 69 69 69 69 68 68
71 71 71 72 72 70 69 70 71 70 72 70 68 68 75 75 74 73 72 71 72 70 71 70 71 70 67 69 70 69 69 69 68 69 68 68 68 69 69 69 69 69 68
69 66 68 70 71 70 71 71 71 68 66 68 67 72 72 73 70 70 70 70 68 68 68 69 70 70 68 65 66 67 67 67 67 67 68 68 68 68 69 69 69 68 69
68 68 68 67 69 70 71 69 70 68 69 70 65 64 65 69 69 67 68 67 66 67 66 65 66 65 63 62 63 63 65 66 67 67 67 67 68 68 68 69 69 69 69
67 68 68 67 67 67 69 68 68 67 66 63 65 65 63 61 62 66 65 66 65 66 65 63 63 62 62 62 62 62 61 63 66 67 67 67 67 68 68 68 68 68 68
63 65 66 66 66 66 65 65 65 64 64 65 64 64 64 63 60 59 64 64 64 63 63 62 61 60 58 57 58 58 60 62 65 67 66 66 65 66 66 67 67 67 67
62 61 62 62 62 62 61 61 60 61 62 61 63 61 61 60 61 57 56 61 61 61 61 60 57 60 57 57 58 58 59 61 63 65 65 65 64 64 65 67 67 67 67
61 61 60 60 60 60 59 58 59 58 57 59 61 60 61 60 58 55 54 57 57 60 59 58 54 53 54 57 56 55 57 59 60 62 64 62 61 61 63 65 66 65 66
58 58 58 58 58 57 57 57 57 57 57 58 59 59 59 59 60 58 57 57 57 59 57 56 54 51 55 54 55 52 54 56 58 60 61 59 58 58 60 63 64 63 64
60 59 57 57 56 55 55 55 55 56 57 57 56 56 57 57 57 56 56 54 53 56 55 56 52 52 52 52 50 50 51 54 55 56 56 55 54 55 57 59 60 61 61
59 59 58 57 55 55 55 55 56 56 56 56 56 56 55 56 57 57 55 56 55 51 52 52 49 49 50 51 48 49 48 51 52 53 52 52 52 53 55 56 57 58 59
57 56 56 54 55 55 56 55 53 54 54 54 55 54 54 55 56 57 55 55 55 53 50 48 47 46 47 47 47 46 45 46 50 51 51 51 51 52 53 54 55 56 56
55 55 55 54 53 52 52 52 52 52 53 53 53 53 54 55 54 54 54 54 52 50 48 43 43 44 44 44 43 43 44 44 46 50 51 50 50 51 51 51 53 53 54
55 55 54 54 53 51 50 51 50 50 50 50 51 51 51 52 53 53 52 50 49 48 47 43 41 40 41 42 42 41 42 43 45 50 50 50 50 50 50 50 50 51 51
52 52 53 51 49 50 50 50 50 49 49 48 48 49 51 51 51 50 50 47 46 45 45 43 39 41 40 40 38 39 39 40 43 45 46 47 48 49 49 48 48 48 49
50 50 50 49 49 48 47 46 46 46 46 46 46 47 48 49 50 49 46 45 44 43 43 42 40 39 39 39 39 37 37 38 41 43 42 43 44 44 48 47 46 46 47
48 48 47 47 47 47 46 46 46 46 46 45 45 45 46 46 46 47 45 44 43 42 41 39 39 39 38 37 37 38 38 39 39 39 39 40 41 41 43 43 44 45 45
45 45 45 45 44 45 46 47 45 44 44 43 44 44 45 45 46 46 46 45 44 42 39 39 39 38 39 38 37 37 37 38 37 39 39 38 40 39 40 42 44 44 44
43 43 43 44 44 45 46 47 47 45 44 43 42 42 42 43 43 43 44 44 44 44 43 41 39 39 37 38 37 35 37 37 38 37 38 37 38 38 40 40 41 44 44
42 42 42 43 43 43 45 46 46 45 42 42 41 41 40 39 39 38 37 36 35 37 39 41 41 39 40 39 41 39 38 36 36 36 37 35 36 37 39 41 43 44 44
40 38 41 40 39 40 45 46 43 39 39 39 41 40 40 38 40 41 37 35 37 38 41 40 40 40 40 39 38 37 35 34 32 34 35 36 34 35 37 39 40 41 43
38 39 36 38 40 38 44 45 41 40 38 38 37 37 41 39 41 42 37 37 35 36 37 37 38 38 39 40 39 37 35 31 32 31 34 33 33 34 32 36 37 38 39

GFSMA_sfc_temp_078.txt.gz
Temp
77 79 79 79 80 81 81 81 81 82 82 82 82 82 83 83 84 85 85 67 68 71 73 75 76 77 76 75 74 73 72 72 72 71 70 69 69 69 69 69 69 69 69
77 77 79 79 80 81 81 82 81 81 81 82 82 83 82 83 84 84 85 83 67 69 71 73 75 76 76 75 74 73 72 71 71 71 71 70 69 69 69 69 68 68 68
78 79 80 80 80 81 81 81 81 81 80 81 81 83 83 83 83 83 83 83 81 65 68 72 73 75 75 75 74 73 71 70 70 70 70 70 70 69 69 69 68 68 68
79 79 80 80 81 80 80 79 79 78 79 80 81 82 82 83 83 84 83 83 82 82 72 70 70 72 74 74 74 73 70 69 69 69 69 69 69 70 69 69 69 68 68
78 78 79 80 80 79 78 78 78 79 79 79 79 81 82 81 83 82 82 81 81 79 80 70 66 68 71 73 73 72 70 69 69 69 68 69 69 69 69 69 69 69 68
77 77 78 79 80 77 77 77 78 79 79 79 77 72 74 81 81 81 80 80 80 77 77 76 76 72 67 70 71 70 69 69 68 68 69 68 68 68 69 69 69 69 69
77 76 73 74 78 77 77 78 78 77 76 75 70 73 78 80 79 78 79 79 77 76 76 77 78 76 71 67 68 68 68 68 67 67 67 67 68 68 68 69 69 69 69
74 74 71 68 70 73 77 77 76 73 73 74 73 71 69 74 77 76 77 76 75 76 74 74 74 73 72 72 67 64 66 67 67 67 67 67 67 68 68 69 69 69 69
72 70 69 67 67 67 71 75 73 73 71 72 69 70 68 67 70 75 72 74 73 74 74 71 71 70 70 70 65 63 62 63 66 67 67 67 67 67 67 68 68 68 68
66 66 66 65 64 65 65 69 72 73 72 68 68 71 72 72 65 65 70 70 71 71 71 71 69 68 68 67 60 58 60 62 65 67 67 66 66 66 67 67 68 68 68
63 62 63 63 63 63 62 62 62 62 65 66 66 64 68 69 69 64 63 68 68 70 70 69 68 67 65 62 63 59 59 62 64 65 65 64 64 64 65 66 67 67 68
63 63 62 62 63 61 60 60 59 58 58 59 59 59 60 60 63 63 61 64 64 66 67 67 66 65 64 61 57 56 57 59 61 62 63 62 61 61 63 65 65 65 66
62 61 61 61 60 60 59 58 57 56 56 56 58 58 62 62 64 64 62 62 61 66 65 67 66 64 62 62 57 55 55 57 58 60 61 60 58 58 60 62 63 63 64
64 63 62 62 61 60 57 56 56 56 56 56 57 59 62 62 62 61 59 59 56 58 63 63 64 62 61 60 57 52 55 54 56 56 56 55 54 55 57 59 60 61 61
63 63 63 61 60 60 59 58 57 57 57 58 59 60 60 60 61 60 59 59 57 52 57 61 57 58 58 56 53 54 52 52 53 53 53 52 52 53 55 56 57 58 58
62 62 60 59 58 59 59 58 58 59 58 58 59 59 59 59 59 60 58 58 56 53 52 59 56 51 51 51 50 48 48 48 50 51 51 51 51 52 53 54 54 55 56
59 57 56 57 58 59 59 58 58 57 57 57 57 57 58 60 59 60 59 58 56 54 50 48 48 47 46 44 44 45 45 45 47 50 51 50 50 51 51 51 52 53 53
60 56 55 56 57 58 58 57 55 55 55 54 54 54 54 55 55 57 56 56 54 54 49 47 43 41 42 44 43 43 44 45 46 49 50 50 50 50 50 50 50 51 51
61 61 58 57 58 58 58 58 59 56 56 57 56 55 57 57 55 57 57 55 53 51 49 46 41 42 41 41 39 40 40 41 44 47 48 48 48 49 49 48 48 48 49
60 60 59 59 58 57 58 57 56 55 54 54 55 55 54 54 54 55 54 53 51 47 46 45 42 40 40 40 39 37 36 39 40 45 44 45 45 45 48 47 46 46 47
57 57 58 56 56 56 54 54 53 54 54 53 52 52 51 51 47 50 51 50 47 45 43 42 40 40 39 37 36 38 38 38 40 43 47 47 47 46 46 45 44 45 45
56 55 54 54 52 53 48 49 52 51 51 51 49 50 51 46 47 47 47 46 47 44 42 41 40 39 39 39 38 37 37 36 37 46 44 44 46 44 45 46 44 44 45
53 51 52 53 52 53 47 48 47 51 50 49 48 48 48 49 46 48 46 45 45 44 45 45 40 40 39 40 39 36 38 40 44 42 43 42 44 43 44 44 42 44 45
51 51 51 51 51 51 47 48 47 50 49 48 48 48 47 44 43 43 42 40 39 39 40 42 43 43 42 41 42 43 44 44 42 41 42 37 42 41 43 44 43 44 44
49 47 50 49 48 48 45 47 47 47 46 45 47 48 45 43 43 42 41 38 39 40 42 41 41 41 42 43 44 43 39 38 36 39 39 39 38 39 41 42 44 42 43
47 46 41 46 46 45 45 46 46 44 43 45 46 46 43 43 43 43 42 41 40 43 42 42 42 42 43 42 41 44 41 36 37 35 39 35 36 38 34 39 41 41 42

GFSMA_sfc_temp_081.txt.gz
Temp
77 79 80 80 80 80 81 80 81 82 82 83 83 83 83 84 84 84 83 68 70 71 73 75 76 76 76 75 74 73 73 72 72 72 71 70 69 69 69 69 69 69 69
78 79 79 79 79 80 80 81 81 82 82 83 82 83 83 83 84 84 84 78 68 70 71 73 75 76 76 76 74 73 72 71 71 71 71 71 70 69 69 69 69 69 69
79 79 79 77 78 79 81 82 82 82 81 82 82 83 83 84 84 83 83 83 77 67 70 72 73 74 75 75 74 73 71 70 70 70 70 70 70 70 69 69 69 69 68
79 79 78 78 79 81 80 80 79 79 79 80 80 81 82 83 83 84 84 83 82 81 70 70 72 71 72 74 74 73 71 70 69 69 69 69 69 69 70 70 69 69 69
78 79 79 79 81 79 79 78 78 78 77 78 79 81 78 81 81 83 82 82 81 79 79 69 67 67 70 73 74 72 70 69 69 69 69 69 69 69 69 69 69 69 69
78 78 77 77 78 77 77 77 77 78 78 78 76 75 78 78 80 81 81 81 80 78 77 76 72 69 68 71 71 71 70 69 68 68 68 68 68 68 69 69 69 69 69
77 75 75 74 75 74 77 77 77 76 75 76 70 73 74 77 79 79 79 78 78 76 76 75 76 72 68 67 69 69 69 68 68 68 67 67 68 68 69 69 69 69 69
75 74 72 72 71 69 69 72 75 74 74 75 70 70 67 72 76 76 76 76 76 75 74 74 74 72 70 69 65 65 67 67 68 68 68 67 67 67 68 69 69 69 69
72 71 71 71 69 67 64 65 66 72 68 70 70 69 66 64 70 73 72 74 73 73 73 71 72 71 70 68 63 62 62 63 66 68 68 67 67 67 68 68 68 69 68
68 68 68 68 67 66 65 64 65 65 68 65 66 68 71 70 65 64 69 70 71 72 72 70 69 69 68 67 58 59 60 62 65 67 67 66 66 66 66 67 68 68 69
64 66 64 66 65 65 64 64 61 60 60 61 61 62 63 63 65 63 60 65 67 69 71 70 69 68 66 65 62 59 59 61 64 65 66 65 64 64 65 66 67 67 68
63 62 63 63 64 63 62 60 59 58 58 57 57 57 58 57 56 56 56 59 63 67 67 67 66 66 64 63 59 57 58 59 61 63 64 63 62 61 62 64 65 65 65
63 64 64 63 62 61 60 60 58 57 57 56 56 56 56 57 59 61 60 60 60 64 64 65 65 64 63 60 58 55 56 57 59 61 61 60 58 58 59 61 63 63 63
65 65 64 64 63 62 60 59 58 57 57 56 56 56 57 57 59 61 60 58 56 58 61 63 62 62 60 59 55 53 54 55 57 58 57 56 55 55 57 58 59 60 60
63 63 62 61 61 60 59 58 57 57 57 57 57 57 58 60 60 60 59 58 56 52 54 59 55 57 57 54 54 53 52 52 54 53 53 52 52 53 55 56 57 57 58
63 62 61 60 59 59 58 57 58 59 58 59 58 58 59 59 59 58 57 57 57 54 51 55 54 51 53 52 49 50 49 49 51 51 51 51 51 52 53 53 54 55 55
62 60 58 58 57 57 58 59 59 58 58 58 57 57 57 57 57 57 57 57 55 54 49 48 48 49 49 47 45 45 45 45 46 49 51 51 51 51 51 51 52 52 53
62 58 56 56 56 57 59 58 57 57 56 56 56 55 56 56 55 56 55 54 53 53 50 48 45 42 43 45 43 42 44 45 45 47 50 50 50 50 50 50 50 50 51
62 61 55 53 54 55 57 59 58 56 56 56 56 55 55 55 54 54 54 53 53 51 50 47 42 42 41 41 39 40 40 40 44 46 48 49 49 49 49 49 48 48 48
60 60 60 55 54 54 55 56 56 56 55 55 56 55 55 55 53 54 52 52 51 48 48 46 42 40 40 40 39 37 36 38 39 44 43 45 46 46 48 47 46 46 47
58 58 59 58 57 54 54 56 54 53 53 52 53 53 52 51 47 49 51 50 48 47 45 42 41 40 39 37 36 37 36 36 38 39 39 41 41 41 42 44 44 45 46
57 57 56 56 55 55 52 51 53 53 53 53 51 51 51 46 47 48 48 48 49 45 43 42 41 40 40 39 37 36 35 33 33 39 38 40 39 38 40 40 44 45 45
54 54 54 54 54 54 50 49 49 53 51 50 49 49 49 50 47 48 47 46 46 46 46 44 41 41 39 39 37 35 35 36 37 38 37 35 37 36 38 42 43 44 45
52 52 52 53 53 53 48 48 48 49 50 49 48 48 48 47 46 46 44 41 41 40 41 43 43 42 41 40 39 39 38 38 37 37 36 31 35 35 36 39 43 45 45
48 48 50 50 50 49 47 47 47 45 44 46 48 48 48 46 46 45 40 37 38 39 42 42 42 44 44 44 43 39 36 35 33 33 34 34 33 33 35 37 39 44 44
45 46 45 46 48 47 47 46 46 44 42 44 46 47 46 45 45 44 41 40 37 39 38 37 37 39 41 41 44 40 37 33 32 29 34 30 32 32 30 36 36 36 38

GFSMA_sfc_temp_084.txt.gz
Temp
68 68 70 69 68 69 68 69 68 70 71 73 73 72 72 72 72 72 69 67 70 73 74 75 76 76 76 75 74 73 72 72 72 71 71 71 70 69 69 69 69 69 69
69 69 69 69 69 70 70 70 70 70 70 71 72 73 72 73 73 76 71 69 68 70 72 74 74 75 76 76 75 74 72 71 71 70 70 70 70 70 69 69 69 69 69
70 70 69 68 69 70 71 70 71 72 72 72 71 72 73 73 76 75 73 70 68 66 70 74 74 74 74 76 74 73 72 70 70 70 70 69 69 69 70 70 69 69 69
72 70 69 68 70 71 70 69 70 69 68 68 69 70 73 75 74 73 74 75 71 71 67 70 72 72 73 75 74 73 71 70 69 69 69 69 69 69 69 70 69 69 69
73 71 70 70 72 70 69 70 70 69 67 67 69 70 73 73 74 75 72 72 70 70 68 67 67 67 70 73 74 72 71 70 69 69 69 68 68 68 69 69 69 69 69
73 71 71 71 72 71 69 70 69 69 68 68 71 71 71 72 69 69 71 71 69 69 67 65 62 64 68 71 73 72 71 69 68 68 68 68 68 68 69 69 69 69 69
69 70 68 68 68 69 70 70 69 68 66 67 67 67 68 69 67 70 68 67 67 67 67 66 63 62 63 68 70 70 70 69 68 68 68 68 68 68 68 69 69 69 69
70 69 68 66 67 65 67 67 65 66 66 67 63 61 60 61 66 67 65 66 64 65 66 66 64 63 60 59 61 67 68 69 68 68 68 67 67 67 68 69 69 69 69
68 68 67 66 65 64 63 64 64 63 61 64 64 61 56 55 59 62 63 63 63 62 62 63 64 63 61 58 59 60 63 64 66 68 68 67 67 67 67 68 68 69 69
65 66 66 65 65 64 63 63 63 62 62 61 62 65 62 61 58 54 60 61 62 63 60 61 61 62 61 57 58 59 61 62 66 67 67 66 66 66 66 67 68 68 68
63 63 63 63 64 64 64 64 62 62 62 61 61 60 58 58 58 57 55 58 62 64 62 61 60 59 60 56 55 56 60 62 65 66 66 65 65 64 65 66 67 66 66
62 62 62 62 62 62 63 62 62 60 58 58 58 57 56 54 53 53 52 53 56 61 60 60 58 58 56 55 56 57 58 60 62 63 64 63 62 61 62 64 65 65 65
61 61 61 61 61 62 61 60 59 58 58 57 57 56 56 55 55 56 54 54 55 56 56 57 59 56 57 53 52 54 56 58 60 62 63 61 58 58 59 61 62 63 63
61 62 62 61 61 62 60 59 59 58 57 57 56 56 56 55 56 57 55 54 51 53 54 54 55 55 53 51 51 54 51 56 58 59 58 56 55 55 57 58 59 59 60
62 62 61 61 61 61 60 59 58 57 57 57 56 56 56 56 56 57 56 55 53 48 49 51 49 51 49 49 50 48 48 54 55 54 54 53 52 53 55 55 56 56 57
61 60 60 60 60 60 59 58 57 57 56 55 56 55 55 55 55 54 54 54 53 51 48 50 47 47 49 49 50 48 48 50 52 52 52 51 51 52 53 53 54 54 54
57 58 58 58 58 57 57 56 56 56 55 55 55 55 54 54 53 53 53 53 52 51 48 46 46 46 46 45 44 45 46 45 47 50 51 51 51 51 51 51 51 52 52
56 55 54 55 56 56 56 56 55 55 55 53 52 52 52 53 52 52 51 50 50 50 49 47 44 42 43 44 43 42 44 46 45 48 50 50 50 51 50 50 50 49 50
54 55 53 53 54 54 55 55 55 54 52 52 52 51 51 51 50 49 49 49 48 49 49 46 42 42 41 41 39 40 40 40 44 47 49 50 49 49 49 49 48 48 48
52 53 53 51 52 53 53 53 53 52 52 52 52 51 50 50 49 49 48 47 48 47 46 45 42 40 40 40 39 37 36 38 39 45 45 45 47 47 49 47 47 46 47
50 51 51 51 50 51 52 52 52 51 51 49 49 50 49 50 49 49 48 46 47 46 44 42 41 40 39 37 37 37 36 36 37 38 38 40 40 41 39 44 44 45 46
47 49 49 49 48 51 52 52 52 50 50 50 48 48 48 46 47 49 49 49 47 44 43 40 40 39 39 38 37 36 35 33 33 38 36 37 39 36 35 36 45 45 45
45 45 46 47 47 47 51 51 51 48 48 48 47 46 46 46 45 43 47 47 47 48 47 43 40 40 39 38 36 35 34 34 35 37 37 34 32 32 34 40 44 44 45
46 47 45 45 45 47 50 50 49 44 44 44 44 44 43 42 43 44 42 40 38 38 41 43 42 41 39 38 39 38 37 36 35 36 36 29 30 30 31 33 44 45 45
44 42 45 45 44 44 48 48 46 41 40 41 43 44 43 44 46 47 40 35 34 36 42 43 43 45 45 45 42 38 35 34 32 33 31 30 28 29 30 32 35 45 45
43 43 41 44 45 43 47 47 46 39 38 39 42 45 47 45 47 46 37 35 35 34 37 36 35 39 41 41 45 38 36 34 32 26 29 26 27 28 23 31 32 32 34

GFSMA_sfc_temp_087.txt.gz
Temp
67 68 65 65 63 63 62 62 63 64 64 66 67 67 67 68 68 67 66 67 71 73 76 76 76 76 76 76 74 74 72 72 71 70 71 71 70 69 69 69 69 69 69
69 67 66 65 65 66 65 66 65 65 66 67 70 69 69 69 69 71 72 69 68 71 73 75 75 75 75 76 75 74 72 71 70 70 70 70 70 70 69 69 69 69 69
69 68 68 67 68 68 67 67 67 66 66 68 68 69 70 70 70 73 70 67 67 66 69 74 75 74 74 76 75 74 72 71 70 69 69 69 69 69 70 70 69 69 69
70 67 66 65 66 66 66 65 66 66 65 66 67 69 69 71 73 74 74 72 71 70 66 70 72 73 73 75 75 74 71 70 69 69 69 69 68 69 69 69 69 69 69
68 66 66 66 67 67 66 67 66 67 66 67 67 68 67 68 72 73 69 69 69 66 65 66 68 68 69 72 74 73 71 70 69 69 69 68 68 68 68 69 69 69 69
70 68 67 68 68 67 67 67 67 67 67 67 69 69 66 69 71 71 69 71 69 66 64 63 62 63 67 71 73 73 71 70 69 68 68 68 68 68 68 69 69 69 69
70 67 66 66 68 67 68 68 67 67 65 65 63 65 65 68 71 70 68 65 65 64 64 61 60 61 64 69 70 71 71 70 69 68 68 68 67 68 68 69 69 69 69
68 67 65 65 65 64 66 66 66 64 64 65 62 61 58 61 64 64 63 64 62 63 64 63 61 60 59 59 62 68 69 70 69 68 68 67 67 67 68 68 68 69 69
66 65 65 65 64 63 62 63 63 63 62 62 63 61 56 55 57 60 61 62 61 60 60 61 60 60 58 57 60 61 64 65 67 69 68 67 67 67 67 67 68 68 68
63 64 64 64 65 64 63 63 63 62 61 60 60 62 61 60 56 54 59 61 60 60 58 58 59 59 57 55 57 57 61 62 66 68 68 67 66 66 66 67 68 67 67
62 62 63 63 63 63 62 62 61 62 63 61 61 59 60 58 56 55 52 57 61 61 59 61 61 60 58 56 54 57 60 62 65 66 67 66 65 64 64 65 66 66 66
61 61 62 62 61 62 62 62 61 60 60 60 59 59 57 56 54 53 52 52 54 56 59 60 59 56 54 53 56 58 59 61 63 64 66 65 63 61 62 63 65 65 65
59 60 61 60 61 61 61 62 61 60 59 58 57 57 56 56 56 56 55 53 52 55 56 57 55 54 55 52 52 54 57 58 60 63 64 63 59 58 59 61 62 62 62
59 60 60 60 60 60 60 60 60 59 59 58 58 57 56 56 56 56 55 54 50 53 54 55 52 52 50 50 51 53 51 56 58 61 60 57 56 56 56 58 58 59 59
61 61 60 61 61 61 61 60 59 58 58 58 58 57 57 56 56 56 56 55 53 48 51 51 49 49 49 49 51 47 47 55 56 56 55 53 53 54 55 55 56 56 56
58 58 59 59 60 60 60 59 58 59 58 57 57 56 56 56 56 56 55 54 54 51 48 49 46 47 47 49 50 48 48 51 53 53 53 52 52 53 53 53 53 54 54
55 55 55 56 57 58 58 57 57 57 57 56 56 56 55 55 54 54 53 52 51 50 48 45 45 45 47 46 45 44 47 46 47 51 52 52 51 52 51 51 51 51 51
54 53 53 53 54 56 56 56 55 55 55 54 54 54 54 53 52 51 51 50 50 49 48 46 43 41 43 45 44 43 44 46 45 48 50 51 50 51 51 50 49 49 49
51 52 52 51 51 53 55 55 55 55 55 55 54 54 53 52 50 49 49 49 48 48 47 45 42 42 41 41 39 40 41 41 44 47 50 50 50 50 49 49 48 48 48
48 49 50 50 50 51 53 53 53 52 52 52 52 52 51 50 49 48 49 48 47 45 45 44 43 41 41 40 40 38 37 39 40 45 47 47 47 47 49 48 47 46 47
46 47 47 48 49 49 50 51 51 51 50 50 50 51 50 50 49 49 47 46 45 44 42 41 41 40 39 38 37 38 37 37 38 39 39 40 40 41 42 45 44 46 46
44 44 44 45 46 49 50 51 50 49 49 49 48 49 49 47 49 50 50 49 48 44 41 39 40 40 40 39 38 36 35 33 33 39 36 36 39 37 38 36 44 45 45
44 43 43 43 43 44 50 51 51 47 46 47 46 47 46 47 47 46 49 49 49 49 47 43 40 41 39 40 38 35 35 34 35 37 36 34 36 35 32 39 44 45 45
44 44 43 45 45 45 48 50 50 44 43 43 44 44 43 43 44 43 43 40 39 40 42 43 42 43 42 41 40 37 36 36 35 36 37 32 33 30 30 31 44 45 45
41 42 43 43 42 44 47 47 47 41 39 40 42 42 42 41 45 46 39 36 37 37 43 44 44 45 45 45 40 36 34 34 32 33 34 34 28 28 29 29 32 45 45
38 39 38 40 42 42 45 46 46 41 39 40 40 41 46 42 46 47 40 38 36 34 34 34 35 39 43 43 45 39 37 34 32 31 33 27 27 28 23 29 30 31 32

GFSMA_sfc_temp_090.txt.gz
Temp
66 69 69 68 67 65 62 61 60 61 61 62 63 63 64 65 65 66 64 66 70 74 76 76 76 76 75 75 75 73 72 71 71 70 70 70 70 69 69 69 69 69 69
67 66 68 67 66 65 64 62 60 61 62 63 64 65 66 67 66 67 65 66 68 71 73 75 76 76 75 75 76 74 72 71 70 70 70 69 69 69 69 69 69 69 69
67 68 67 66 66 66 63 62 62 63 63 65 64 66 67 67 68 69 67 68 66 66 70 74 75 75 74 75 76 74 72 71 70 69 69 69 68 69 69 69 69 69 69
68 68 67 66 66 65 64 64 63 62 63 63 64 65 67 68 69 69 71 71 70 71 67 70 72 74 74 74 76 74 72 70 70 69 69 68 68 68 69 69 69 69 69
69 67 67 68 66 65 65 65 63 64 62 63 65 66 66 66 68 72 71 70 66 67 64 65 67 68 70 72 75 74 72 70 69 69 68 68 68 68 68 68 69 69 69
71 68 67 67 67 66 65 65 64 64 64 65 68 67 65 66 67 68 70 70 65 65 64 63 62 62 66 70 73 73 72 70 69 68 68 68 67 67 68 68 69 69 69
69 68 67 67 68 67 67 67 65 64 63 64 62 63 63 66 66 66 68 67 66 63 62 61 60 60 62 69 71 72 72 71 69 68 68 67 67 67 68 68 69 69 69
68 68 66 66 66 65 66 67 65 62 63 62 61 59 58 61 63 65 63 64 64 62 61 61 60 60 60 60 63 69 70 71 70 69 68 67 67 67 68 68 68 69 69
66 66 66 65 64 64 64 63 63 63 60 61 62 60 55 55 57 59 59 60 59 58 59 60 59 59 58 57 60 62 65 68 69 69 68 68 67 66 67 68 68 67 67
62 62 63 62 63 62 61 62 62 61 61 59 60 61 61 60 55 55 58 59 60 60 59 59 58 58 57 56 57 58 62 63 66 68 69 68 66 66 66 67 68 67 66
62 62 62 62 62 62 61 61 61 60 61 60 60 59 59 59 58 55 53 54 58 59 59 60 59 56 57 56 56 57 61 63 65 67 67 67 66 64 64 65 66 66 65
60 61 61 61 61 61 62 62 61 60 60 60 59 59 57 57 55 53 52 53 56 56 58 58 58 57 57 56 56 57 59 61 64 65 67 67 65 62 62 63 64 65 64
59 60 60 60 61 61 61 61 61 60 60 60 60 60 58 57 56 58 53 52 52 53 54 56 57 57 56 53 54 54 57 60 61 63 65 66 61 59 59 60 62 62 62
59 60 60 61 61 61 61 60 61 61 60 59 58 58 58 58 57 57 58 55 51 52 52 53 53 54 53 52 52 54 52 57 58 61 62 60 57 56 57 58 58 59 59
60 60 60 59 59 59 59 59 59 59 58 59 59 58 57 56 56 57 56 56 53 48 50 50 49 49 50 50 51 49 49 55 57 57 55 53 53 53 55 55 55 56 56
55 56 58 58 59 60 60 60 60 60 59 59 58 58 57 57 57 56 55 55 55 52 48 49 47 47 48 49 50 48 49 52 55 54 53 52 52 53 53 53 53 53 54
53 53 54 54 55 56 58 58 58 58 58 58 57 57 56 56 56 55 55 54 53 52 49 45 45 45 45 45 45 46 47 46 46 53 53 53 52 52 52 52 51 51 51
50 51 51 52 52 53 56 56 56 56 56 56 56 55 55 54 54 53 53 52 51 50 49 45 43 42 44 44 43 42 44 46 45 49 51 52 51 51 51 50 50 49 49
48 48 48 48 50 50 51 54 55 55 55 55 55 54 55 53 53 52 52 50 48 47 47 45 42 42 42 42 40 41 41 40 44 46 50 51 51 50 50 49 49 48 48
45 46 47 47 48 49 50 50 53 52 52 52 53 53 54 53 53 51 49 48 47 45 45 44 41 40 39 40 40 39 38 39 40 45 47 48 49 49 49 49 48 47 47
43 44 44 45 45 47 49 48 49 51 50 50 50 51 50 50 49 50 49 47 47 46 44 42 41 40 39 38 38 38 38 37 38 40 40 41 41 41 42 48 45 46 46
42 42 42 42 42 46 48 50 49 46 47 49 48 48 49 47 48 51 51 50 49 46 44 43 41 41 40 38 38 36 36 34 35 38 37 36 39 37 39 39 44 46 46
39 40 42 44 42 43 48 49 48 45 44 44 45 46 46 46 47 47 49 49 49 50 50 45 43 39 38 38 36 34 35 35 36 35 35 34 36 36 37 39 44 45 45
37 38 38 40 41 44 47 47 47 44 43 42 42 43 43 45 44 45 44 42 43 44 44 45 43 41 41 40 40 40 38 36 35 36 37 33 34 34 34 32 41 45 45
35 35 38 38 37 39 44 46 46 43 41 42 42 41 41 42 46 47 41 39 39 40 44 45 45 45 46 46 42 38 34 34 32 33 35 34 32 32 29 29 31 43 45
35 36 36 35 38 35 41 44 45 42 41 41 43 42 45 42 46 47 39 39 37 37 36 36 36 40 44 43 44 41 36 34 32 31 34 33 30 29 23 28 29 30 32

GFSMA_sfc_temp_093.txt.gz
Temp
66 67 67 68 67 66 66 64 64 60 59 60 60 61 62 62 62 63 63 65 69 73 76 76 76 75 75 75 75 73 72 72 71 70 70 70 69 69 69 69 69 69 69
66 66 66 66 66 67 67 66 64 61 59 60 61 62 62 63 63 64 64 64 67 70 73 75 76 76 76 75 75 75 72 72 71 70 69 69 69 69 70 69 69 69 69
67 66 65 66 67 66 67 65 63 62 60 61 60 62 63 64 64 66 65 65 66 66 69 74 75 75 75 75 75 75 73 71 70 69 69 68 68 68 69 69 69 69 69
68 66 66 65 65 65 66 64 64 63 60 60 61 62 64 65 65 66 67 66 67 71 67 70 72 74 74 74 75 75 73 71 70 69 69 68 68 68 68 68 68 69 69
68 67 66 65 66 65 64 65 63 64 60 60 61 63 63 64 66 69 67 67 68 67 65 66 67 68 70 72 74 75 73 71 70 69 68 68 68 68 68 68 68 69 69
68 67 66 66 65 65 65 64 64 62 62 62 65 65 63 64 65 65 66 69 66 64 64 63 63 63 66 70 72 74 73 71 70 69 68 68 67 67 68 68 69 69 69
68 66 65 65 63 66 66 66 65 61 61 62 61 60 62 63 64 65 65 65 65 64 64 62 61 60 61 68 69 72 72 71 70 69 68 67 67 67 68 68 68 68 69
66 65 65 64 64 65 66 65 65 61 62 62 60 58 57 60 62 63 63 63 63 63 62 61 60 60 59 60 62 69 71 71 70 69 68 68 67 67 67 68 68 68 67
64 64 64 64 63 65 63 63 63 62 60 59 60 59 55 54 57 59 58 60 61 60 60 60 59 59 58 58 61 64 67 69 70 70 69 68 67 66 67 67 68 67 67
62 63 63 62 62 63 62 62 62 62 60 59 59 60 60 59 56 54 57 58 58 59 59 58 59 59 59 58 58 58 63 64 68 69 70 69 67 66 66 66 67 66 66
61 61 61 61 61 61 60 60 60 60 60 59 59 58 58 59 58 56 53 53 56 57 60 61 61 60 59 58 56 58 61 64 66 68 69 68 67 66 64 65 65 66 66
60 60 60 60 60 60 61 60 60 60 59 59 59 58 58 57 57 55 53 52 53 54 55 56 56 57 58 58 57 58 60 63 65 66 68 68 67 64 62 63 64 65 64
59 60 60 60 60 60 60 61 61 60 60 60 60 60 59 58 57 58 54 53 52 52 54 55 56 55 56 55 56 55 58 61 62 64 66 67 66 61 60 60 61 62 62
59 60 60 60 60 60 60 60 60 60 60 60 60 60 60 59 58 58 58 57 52 52 53 53 53 54 54 54 54 54 55 58 60 62 63 63 59 57 57 58 58 58 59
56 58 59 59 60 60 60 60 60 60 60 60 60 59 59 59 57 58 58 57 56 50 50 50 49 50 51 52 53 51 51 56 58 59 57 55 54 54 54 55 55 56 55
52 53 54 55 57 58 59 59 59 59 59 59 59 58 58 58 57 57 56 56 55 53 50 49 47 47 48 49 51 49 49 53 56 56 55 53 53 53 54 53 53 53 53
51 51 52 53 53 54 56 57 58 58 58 58 58 58 58 58 57 56 56 56 55 53 50 46 46 45 46 46 46 46 48 47 49 54 54 53 52 53 53 52 52 52 51
48 48 49 50 51 51 52 54 55 56 56 56 57 56 56 55 56 56 55 55 54 52 50 45 44 43 44 44 43 44 45 46 45 49 52 53 52 52 52 51 50 50 49
46 46 46 46 47 48 49 50 53 54 55 55 56 55 55 55 54 54 54 53 53 50 48 46 42 43 42 42 41 42 41 40 43 47 50 51 52 51 51 50 50 49 48
43 43 44 44 44 45 47 47 48 49 52 52 53 53 54 54 54 53 52 51 49 48 47 45 43 41 41 41 41 40 39 39 38 44 47 48 50 51 51 50 49 47 47
40 41 42 42 43 44 47 46 46 46 47 48 49 50 51 50 49 52 51 49 49 47 45 42 41 40 39 38 39 39 39 35 36 38 39 42 43 43 43 47 46 46 46
38 39 39 40 40 44 47 48 47 43 44 45 47 49 49 48 48 50 50 50 50 48 46 44 41 42 40 39 37 37 37 35 35 38 38 37 40 38 40 40 44 46 46
36 36 37 38 38 39 46 47 47 44 42 42 42 43 45 47 47 47 50 49 49 50 50 48 45 44 41 40 37 34 34 34 35 36 36 34 37 36 38 41 45 46 46
34 35 35 36 36 39 44 45 45 43 43 43 41 41 41 44 45 45 45 44 44 45 47 46 47 45 44 42 41 39 36 34 35 36 37 34 31 32 36 37 43 45 45
32 32 35 34 34 35 42 43 43 43 42 42 43 43 41 40 44 47 42 39 41 41 45 46 46 46 46 45 42 37 33 35 33 33 35 35 32 31 33 34 35 43 45
32 34 33 33 35 33 39 43 43 41 40 42 44 44 45 44 45 46 41 40 38 39 39 38 39 43 45 45 45 40 36 35 33 32 34 33 31 32 30 30 30 31 33

GFSMA_sfc_temp_096.txt.gz
Temp
66 66 66 68 68 67 67 64 65 65 61 61 59 59 60 60 60 60 61 64 68 72 75 76 76 75 75 74 74 74 73 72 71 70 70 70 69 69 69 69 69 69 69
67 67 67 66 67 67 67 67 63 63 63 61 59 59 60 61 61 61 62 63 66 69 72 75 76 76 76 76 75 75 73 72 71 70 69 69 69 69 70 69 69 69 69
67 67 67 66 67 67 66 65 63 61 59 60 59 61 60 60 62 63 63 63 64 65 68 73 75 75 75 76 75 75 73 72 71 70 69 69 68 68 69 69 69 69 69
65 65 66 66 67 65 64 63 62 62 62 59 61 60 61 62 62 63 64 65 64 67 66 69 72 74 75 75 75 76 73 71 70 70 69 68 68 68 68 68 68 69 69
66 65 66 66 66 63 63 63 62 63 62 61 60 61 61 61 63 67 63 64 64 65 65 66 67 69 71 73 74 75 73 71 70 69 69 68 68 68 68 68 69 69 69
66 65 66 68 64 63 63 63 63 62 62 63 64 64 61 62 62 62 64 67 66 64 63 63 64 65 67 71 73 74 74 72 70 69 69 68 68 67 68 68 68 69 69
67 66 66 66 63 62 63 63 62 62 61 61 59 59 60 61 62 64 63 64 65 64 64 64 64 64 63 68 69 71 74 72 70 69 69 68 68 68 68 68 68 68 68
65 67 67 65 64 63 64 64 63 61 62 62 58 57 55 59 60 63 62 63 63 63 63 63 62 61 60 61 63 68 72 72 71 70 69 68 68 68 67 68 68 68 67
64 63 64 64 63 63 62 62 62 63 60 60 60 58 54 54 57 58 59 60 61 60 61 61 60 59 59 59 62 64 67 69 71 71 70 69 68 67 67 67 68 67 66
63 63 63 62 62 62 62 62 62 62 60 58 58 60 59 59 55 54 56 57 59 59 59 58 59 59 58 58 60 61 64 66 70 71 71 70 69 67 66 66 66 66 66
64 63 63 62 61 61 61 61 61 62 62 60 59 58 57 57 57 55 54 55 56 57 58 59 60 58 58 58 58 59 62 66 70 70 70 71 70 68 66 65 65 65 66
61 60 60 60 60 60 60 60 60 60 60 59 59 58 58 57 57 55 53 53 53 55 55 57 58 58 58 57 57 58 60 64 67 68 69 70 69 67 65 64 64 65 64
59 59 60 59 59 59 59 60 60 60 59 59 59 59 58 58 58 57 56 56 53 55 54 54 56 56 56 56 56 56 58 62 65 67 68 69 68 64 62 62 61 62 62
55 58 59 59 59 59 59 59 59 60 60 59 59 59 60 60 59 59 58 57 55 53 53 54 52 55 55 55 55 55 56 59 61 64 66 66 62 60 60 60 59 59 59
53 54 55 57 59 59 59 59 59 60 60 60 60 59 59 60 60 59 59 58 56 53 52 52 51 51 52 53 53 52 52 55 58 60 61 58 56 56 57 57 56 56 56
50 50 52 54 54 55 56 58 59 59 59 59 59 59 59 59 58 58 57 57 57 55 51 51 49 48 50 51 52 51 50 53 56 58 56 55 54 54 55 55 55 54 54
48 49 49 51 51 52 53 54 56 56 57 58 58 58 58 58 58 57 57 57 56 55 53 46 46 46 47 48 47 48 50 50 52 55 55 54 54 54 54 54 53 53 52
46 46 47 47 48 49 50 50 51 53 54 55 56 56 56 56 56 57 56 55 55 54 51 46 44 44 45 46 46 46 46 47 47 53 54 54 53 53 53 53 52 51 50
43 44 44 44 44 45 47 48 48 49 50 53 54 54 55 55 55 55 55 55 54 52 52 47 43 43 43 44 42 43 43 42 45 48 52 53 53 52 52 52 51 50 49
40 40 41 42 42 43 45 45 46 45 46 47 49 51 52 53 53 54 53 53 52 51 50 47 43 42 42 41 43 41 39 41 40 43 47 48 51 52 52 51 50 48 47
38 38 39 39 40 42 44 45 45 44 43 44 46 48 50 49 48 50 51 52 50 50 48 45 43 41 40 39 41 40 41 39 39 38 38 40 43 45 46 50 47 47 47
35 36 36 37 37 42 45 46 45 42 43 43 42 44 45 47 48 50 50 50 51 49 47 46 43 44 42 41 40 39 37 36 36 38 36 36 41 39 41 42 46 47 46
33 33 34 35 35 36 44 45 45 41 41 42 42 43 43 45 46 46 48 49 49 50 51 50 46 45 42 41 40 36 36 37 36 35 36 35 37 37 39 42 45 46 47
32 32 32 33 33 36 43 44 44 38 39 42 43 41 42 43 43 44 44 44 45 46 48 48 49 47 46 43 44 41 39 36 33 34 36 34 33 35 37 38 45 46 46
30 30 31 31 30 32 41 43 41 35 36 36 40 44 43 42 44 46 43 41 42 43 45 47 48 47 47 46 44 39 36 37 34 33 34 35 32 33 34 35 37 44 46
30 30 30 29 33 30 37 41 41 35 33 34 36 39 44 45 46 46 43 42 40 41 40 39 41 44 45 45 45 44 39 37 33 32 33 33 32 32 31 33 34 34 35

GFSMA_sfc_temp_099.txt.gz
Temp
67 69 72 75 76 71 72 72 75 75 75 73 72 70 72 73 74 74 74 65 67 72 75 76 76 75 75 74 74 74 73 72 71 70 70 70 70 69 70 70 70 69 69
67 67 68 69 73 75 74 70 68 70 69 70 67 71 69 73 74 73 73 74 66 68 72 74 76 76 76 75 75 75 74 72 72 71 70 69 69 69 69 69 69 69 70
70 70 70 68 70 72 73 69 66 67 66 68 67 69 71 73 73 73 74 74 73 65 68 73 74 75 76 76 76 75 75 73 72 71 70 69 69 69 69 69 69 69 69
71 70 70 69 71 69 70 66 65 63 65 63 66 66 71 71 73 74 73 74 74 75 69 69 72 73 74 76 76 76 75 72 71 70 70 69 69 68 68 69 68 69 69
70 70 69 70 71 68 67 67 66 66 62 61 63 66 68 71 72 73 73 73 74 73 74 69 67 68 70 74 76 76 75 72 71 70 70 69 69 68 68 68 68 69 69
69 69 69 70 71 67 66 66 66 65 65 63 64 64 65 68 71 71 72 74 74 72 72 73 72 71 67 71 74 75 75 73 71 70 70 69 69 68 68 68 68 69 69
68 67 68 69 69 67 66 66 68 66 64 61 60 60 65 67 68 70 72 72 73 72 72 72 73 73 73 68 71 72 74 75 72 70 70 69 69 68 69 68 68 68 68
68 66 68 67 67 65 66 66 65 64 64 62 60 62 59 67 67 69 69 70 70 71 69 69 70 71 72 72 71 69 72 75 73 71 70 69 69 69 68 68 68 68 67
67 67 68 67 65 65 63 64 65 64 60 61 62 60 57 58 63 66 66 69 68 68 70 69 69 70 71 72 68 68 66 70 73 72 71 70 69 69 68 68 68 67 67
67 66 67 66 64 63 63 62 63 62 62 58 59 62 66 63 59 59 63 64 67 67 67 66 67 68 69 70 67 64 64 65 71 72 71 70 69 69 68 68 68 67 66
66 66 66 66 63 61 61 60 59 60 60 60 60 61 61 62 61 58 58 60 61 62 65 66 65 67 67 68 68 66 62 65 71 72 72 71 70 70 69 68 67 66 66
62 65 64 63 63 62 61 61 61 60 60 60 60 62 62 61 60 59 56 58 58 61 61 63 64 64 65 65 61 59 60 64 69 71 72 72 71 70 69 67 66 66 64
54 56 60 60 59 60 60 60 60 59 59 60 61 61 62 62 60 58 59 59 55 58 58 58 61 62 63 63 62 57 58 63 66 69 70 70 70 67 66 65 65 64 64
51 53 55 59 59 60 60 59 59 59 60 59 59 60 61 60 60 60 59 56 55 56 55 58 56 58 60 60 60 56 59 60 62 66 68 68 65 63 63 63 63 62 61
51 50 52 54 55 55 57 59 59 59 59 59 59 59 59 60 60 60 59 59 56 53 55 55 56 56 57 59 57 57 57 56 59 60 61 61 59 59 60 60 60 59 59
49 49 49 50 51 52 53 55 55 57 58 59 60 59 60 60 60 60 59 59 59 57 54 56 55 51 52 53 53 53 54 54 56 58 58 56 56 57 57 57 57 57 56
49 48 48 49 49 50 51 51 52 53 53 55 56 58 58 59 58 58 58 58 57 56 54 49 48 48 48 50 51 52 52 53 54 56 56 55 55 55 55 55 55 55 54
48 47 47 47 48 48 49 49 48 49 50 51 52 54 55 56 56 56 56 56 56 56 55 50 46 45 47 49 49 49 49 50 53 54 55 54 54 54 54 54 54 53 52
45 46 46 45 46 46 47 48 48 48 48 49 49 50 52 53 54 55 55 55 55 54 54 49 45 44 44 45 44 44 45 46 47 51 55 54 54 53 53 53 52 51 51
43 43 44 44 44 45 46 47 47 47 47 47 48 49 50 51 51 51 52 54 54 52 52 50 45 43 44 43 45 44 41 42 43 46 49 51 53 53 53 53 52 50 49
42 42 43 43 43 45 46 46 45 45 45 45 46 47 48 47 46 49 49 50 51 52 50 48 43 42 40 41 43 41 42 41 41 43 43 46 48 49 52 52 49 48 48
40 41 40 40 41 43 44 46 46 44 43 43 43 44 46 45 47 48 48 49 49 49 49 49 47 46 45 47 46 44 40 38 38 41 41 43 48 45 48 48 48 48 48
38 38 39 39 39 40 43 44 45 43 41 42 42 43 44 46 45 46 47 47 48 49 49 50 48 47 46 46 45 42 40 43 41 40 42 41 44 43 46 45 47 48 47
37 37 37 38 37 39 41 43 43 43 41 41 41 42 43 44 45 45 46 44 45 46 48 48 49 51 50 47 45 45 44 41 37 39 44 40 41 42 42 42 46 47 47
34 35 36 35 35 35 39 41 41 40 39 40 41 42 42 43 44 46 44 42 42 44 47 46 47 48 48 47 47 42 38 39 34 35 37 37 35 36 38 39 41 46 47
34 35 34 35 35 34 37 39 41 40 38 39 40 41 42 42 43 45 43 41 40 42 43 42 42 44 46 46 45 46 41 39 35 33 36 36 34 35 34 37 39 40 44

GFSMA_sfc_temp_102.txt.gz
Temp
69 70 75 83 82 80 82 76 82 83 82 81 82 81 81 82 82 83 83 66 68 71 74 76 76 75 75 74 74 74 73 72 72 71 70 70 70 70 70 70 70 70 70
76 75 69 70 76 83 83 81 80 82 77 81 79 81 81 80 81 82 82 81 66 68 71 73 76 76 76 75 75 74 74 72 72 71 71 70 70 69 69 69 69 69 70
78 78 77 77 76 77 81 80 78 79 76 73 74 78 77 78 80 81 81 81 80 64 68 72 74 75 76 76 76 76 74 73 72 71 71 70 70 69 69 69 69 69 69
78 77 77 77 78 77 76 74 75 72 71 66 66 69 76 78 80 81 81 81 81 81 71 68 71 73 74 76 76 76 75 74 72 71 71 70 69 69 69 69 69 69 69
78 77 77 77 78 73 70 70 70 71 68 68 66 69 69 72 78 80 80 80 80 79 80 72 66 68 70 73 76 76 76 74 72 71 70 70 69 69 69 69 69 69 69
77 76 76 76 77 74 72 68 67 67 68 68 65 64 65 70 71 73 76 78 80 79 80 78 78 74 66 70 73 75 75 75 72 71 70 70 70 69 69 69 69 69 69
75 75 74 74 73 73 75 74 73 66 65 68 65 65 63 69 70 69 71 72 73 77 78 78 78 79 77 68 70 73 74 76 74 72 71 70 70 69 69 69 69 68 68
73 73 73 72 73 72 73 72 70 65 65 67 64 65 62 68 67 72 72 69 72 74 76 77 77 76 75 74 72 69 72 75 76 73 71 70 70 69 69 69 69 68 68
71 71 71 70 70 71 70 71 69 65 62 64 66 63 56 59 69 73 67 71 71 73 75 76 75 74 75 76 73 70 67 70 73 74 72 71 70 69 70 69 69 69 67
71 71 70 70 70 69 69 68 66 64 64 60 62 64 64 67 60 58 63 70 72 71 74 74 74 74 74 72 69 67 65 65 71 74 73 72 71 70 70 69 69 68 67
64 67 69 70 69 67 67 64 61 61 62 61 60 60 61 60 60 58 58 61 63 69 71 71 70 69 68 66 67 66 63 65 70 72 73 72 72 71 70 70 69 68 67
57 57 59 66 66 66 64 63 62 62 60 59 59 58 59 58 57 57 56 58 59 64 62 63 63 64 65 65 64 61 60 63 68 71 73 72 72 71 71 70 69 68 67
52 52 55 55 61 63 62 62 61 60 60 59 59 59 59 58 59 58 57 57 57 63 63 63 63 66 64 67 68 59 59 61 65 70 73 72 70 69 69 69 68 67 66
50 51 53 53 54 55 57 60 60 59 60 59 59 58 58 59 60 59 58 57 55 57 61 62 60 60 60 61 62 57 62 59 62 66 70 70 68 65 66 65 66 65 65
51 49 50 50 51 52 53 55 56 56 58 59 59 59 59 60 60 61 60 60 57 53 55 59 57 57 58 59 59 60 59 59 60 63 64 63 60 60 61 62 63 63 62
53 53 50 49 50 51 51 51 52 53 54 55 56 58 59 60 60 60 60 59 59 57 53 60 59 54 55 55 57 58 60 56 58 61 59 58 58 58 59 60 60 60 59
54 52 52 52 52 51 51 50 50 50 49 50 52 52 54 56 58 59 60 60 58 58 55 57 51 51 50 52 52 54 54 56 56 57 58 57 56 57 57 57 57 57 57
52 53 53 53 51 52 53 52 52 52 51 50 50 50 50 53 53 55 56 55 56 55 55 53 51 47 48 50 51 51 50 51 53 55 56 55 55 55 55 55 55 55 55
52 52 52 50 51 51 53 53 53 53 53 52 52 51 52 53 53 52 51 52 54 55 55 54 52 48 48 47 45 46 47 47 49 52 55 54 54 54 54 54 54 54 53
51 50 51 50 49 50 51 50 51 51 51 51 52 51 52 52 51 51 52 52 51 50 53 53 51 46 46 45 47 45 43 44 45 47 52 53 53 53 54 54 53 51 50
49 49 49 49 49 49 49 47 49 49 48 48 50 50 50 47 45 48 49 51 50 48 48 50 47 45 43 42 44 45 46 45 43 44 45 47 50 51 52 53 51 49 49
48 48 47 47 47 48 44 45 46 47 48 47 47 48 49 47 48 47 48 47 48 47 45 45 48 47 47 46 50 45 43 40 39 42 44 43 47 47 49 52 51 50 49
47 45 46 46 45 46 44 43 44 46 47 46 45 45 46 49 47 49 48 48 48 48 48 47 44 46 48 50 51 44 44 45 46 42 45 41 43 43 47 50 50 49 48
44 44 44 44 43 44 42 42 42 45 45 45 45 46 46 47 47 46 47 47 47 47 48 50 49 48 48 51 50 49 47 47 40 41 45 39 41 41 44 46 48 48 48
42 41 42 42 41 41 42 41 41 43 43 44 46 47 46 45 45 44 44 43 46 47 48 47 47 47 47 48 49 47 41 39 37 35 40 37 37 37 41 43 46 48 47
40 41 40 41 41 40 41 41 41 42 42 43 45 46 44 44 43 42 43 43 41 44 46 46 45 45 48 47 48 47 45 41 41 33 37 35 34 36 34 39 39 41 44

GFSMA_sfc_temp_105.txt.gz
Temp
71 73 71 72 77 78 79 74 78 80 79 80 83 83 82 83 82 82 82 67 70 72 74 76 76 76 75 75 74 74 73 73 72 72 71 71 71 70 70 70 70 70 70
77 76 76 76 78 77 79 79 78 77 79 77 80 82 81 81 82 82 82 76 68 70 72 74 75 76 76 76 75 74 74 73 73 72 71 71 70 70 70 69 69 69 70
80 79 78 77 79 80 79 76 78 77 77 73 78 81 78 80 78 81 81 81 74 66 69 72 74 75 76 76 76 75 74 73 73 72 72 71 70 70 70 70 69 69 69
80 79 78 77 79 79 80 79 76 74 73 73 71 75 77 76 74 77 79 81 79 80 68 70 71 73 74 75 75 76 75 74 72 72 72 71 70 70 70 70 69 69 69
80 79 78 78 79 78 76 74 73 73 70 70 71 73 72 72 76 77 77 79 79 78 78 70 67 68 70 73 75 77 76 75 73 72 72 71 70 70 70 70 69 69 69
79 78 77 77 78 77 76 72 71 72 70 70 67 68 69 70 71 73 74 76 77 78 77 76 73 70 66 70 73 75 76 75 74 72 72 71 71 70 70 70 69 69 69
77 76 76 76 76 75 75 75 72 70 69 69 64 64 65 67 68 65 67 72 73 76 75 75 75 76 75 68 69 72 74 75 75 72 72 71 71 70 70 70 70 69 69
74 74 74 73 74 73 73 72 72 68 70 70 65 64 59 62 66 69 71 70 70 72 72 73 75 75 74 75 70 68 72 75 76 75 72 72 71 70 70 70 70 69 69
72 69 70 70 72 72 70 70 70 69 65 67 68 64 57 57 64 69 68 70 71 70 71 71 73 74 74 74 70 68 66 69 74 75 74 73 71 71 71 70 70 70 69
65 63 63 65 68 69 68 69 69 68 67 63 65 65 65 61 57 58 69 70 72 71 71 70 72 72 73 72 69 67 64 64 71 74 74 74 72 71 71 71 70 70 69
61 58 57 59 62 66 68 67 67 66 66 64 63 62 62 62 60 57 56 62 68 71 71 70 69 70 72 69 67 64 61 63 69 71 73 74 73 72 72 71 71 70 69
55 55 55 56 56 58 65 66 66 65 64 63 62 61 59 59 57 56 54 56 57 59 61 62 64 65 64 63 62 61 62 64 67 69 70 72 74 72 71 71 70 70 69
50 50 51 52 53 53 55 57 63 64 64 62 61 60 60 60 61 60 57 55 54 56 58 59 63 64 64 64 64 59 59 61 64 68 70 71 72 70 69 70 70 70 69
50 51 50 50 51 51 52 53 53 55 59 59 58 58 58 58 58 58 56 55 52 54 55 58 60 61 62 61 62 58 61 59 61 65 67 69 68 67 67 67 69 68 68
53 53 52 50 50 50 50 50 51 50 53 53 56 57 58 58 58 58 58 57 55 51 53 57 58 60 61 61 60 61 60 59 60 61 62 64 63 62 63 64 64 63 63
54 55 53 53 52 51 50 50 49 50 50 50 51 51 53 54 58 59 58 58 57 55 52 57 58 59 57 57 58 58 59 56 57 59 60 60 61 60 61 62 61 61 60
53 53 54 54 53 53 53 51 50 50 49 49 49 49 50 51 52 53 55 57 57 57 54 58 57 54 53 54 53 54 55 57 58 57 59 59 60 60 59 58 58 59 59
54 53 52 52 52 52 52 52 51 52 51 51 51 50 50 52 51 51 51 51 52 54 55 54 55 49 50 50 51 51 52 53 54 56 57 58 59 58 57 57 56 57 56
53 53 52 51 50 51 51 51 51 51 51 51 51 50 51 51 50 50 50 49 50 51 50 52 52 50 48 47 46 47 48 49 50 52 56 56 56 55 55 55 55 55 54
51 50 50 51 50 50 50 47 48 49 49 49 50 50 50 49 46 46 48 49 50 49 49 49 49 47 46 46 46 45 44 45 47 49 53 54 54 54 54 54 54 52 52
50 50 49 49 49 49 48 44 45 46 47 47 48 49 49 47 45 47 45 46 46 45 46 46 46 45 44 43 44 46 46 45 45 45 49 50 51 51 52 53 51 50 51
48 48 47 47 46 48 47 45 44 43 45 46 45 46 47 46 48 47 49 48 47 44 43 43 44 45 47 45 47 44 44 40 39 44 45 47 50 48 50 51 52 50 50
47 46 46 46 45 46 46 44 43 43 43 44 44 44 45 48 46 47 47 47 47 48 47 45 43 44 45 48 48 45 43 42 45 44 46 45 45 46 49 50 51 50 50
44 44 44 44 44 44 44 43 43 42 43 44 44 44 45 45 46 45 43 42 43 45 46 47 45 44 45 45 45 46 46 46 44 41 46 43 41 43 46 47 50 50 49
42 41 42 42 41 41 43 42 42 40 41 42 45 46 46 44 45 44 41 39 41 43 48 48 47 47 47 47 47 44 42 41 38 36 42 37 37 37 40 41 47 49 49
40 40 39 40 41 40 43 43 42 40 39 41 43 45 46 45 45 43 40 39 37 39 42 41 42 43 45 45 47 45 43 40 41 34 37 39 34 35 34 36 40 45 45

GFSMA_sfc_temp_108.txt.gz
Temp
66 69 69 69 69 71 69 68 70 72 71 73 74 75 72 73 71 71 68 67 71 74 76 76 76 76 75 75 74 74 73 73 73 72 72 71 71 71 70 70 70 70 70
67 67 69 68 69 71 71 68 68 70 72 70 71 72 76 72 72 72 70 68 68 71 73 75 76 76 76 76 75 75 74 73 73 73 72 71 71 71 70 70 70 70 70
70 70 68 68 69 71 72 69 67 67 68 71 69 71 70 73 71 72 71 71 68 67 70 74 74 75 75 76 76 76 75 73 73 73 72 72 71 70 70 70 70 69 69
72 70 68 67 68 69 68 67 67 66 65 65 65 65 67 69 71 72 73 72 70 72 68 70 72 73 74 75 76 76 75 73 72 72 72 72 71 71 70 70 70 69 69
75 70 68 68 69 67 67 67 65 65 64 64 65 65 64 64 67 73 73 73 74 72 69 68 68 69 71 73 75 76 76 74 73 72 72 72 71 71 70 70 70 69 69
70 68 68 68 68 66 66 65 64 64 64 63 65 65 65 65 64 65 67 71 73 70 72 69 68 67 67 71 73 75 76 76 74 72 72 72 71 71 71 70 70 69 69
69 66 66 66 67 65 65 66 64 63 63 64 61 64 64 64 65 68 69 69 71 72 73 73 70 69 68 68 71 73 75 76 75 74 72 71 71 71 71 71 70 70 69
68 67 64 63 64 64 65 65 64 64 63 63 62 62 58 62 64 66 67 68 68 70 68 70 70 71 68 65 66 69 72 75 76 75 73 72 71 71 71 71 71 70 69
62 61 60 60 61 63 64 65 64 63 62 64 62 61 56 56 58 62 63 66 68 67 69 69 68 70 72 70 68 66 66 70 74 76 74 73 72 72 71 71 71 70 70
58 56 55 57 57 59 60 63 65 63 62 60 62 63 64 60 56 56 63 64 66 67 68 68 69 70 70 67 66 65 64 65 70 73 74 74 73 72 72 71 71 71 70
56 55 55 55 55 55 55 55 59 62 62 61 61 62 62 62 62 58 56 58 65 66 68 67 68 68 68 67 65 65 63 65 69 71 73 74 74 74 72 72 72 71 70
52 52 52 52 53 53 53 54 55 58 62 62 61 62 61 59 59 58 56 57 57 59 61 64 63 65 65 64 62 61 61 63 67 71 74 75 72 71 71 70 70 71 71
49 49 50 49 50 51 52 52 52 52 52 54 61 61 62 61 62 61 59 57 55 56 57 59 60 61 62 61 61 59 59 62 65 68 72 72 70 69 69 69 69 69 69
49 51 51 50 51 51 51 51 50 50 51 50 51 52 56 59 61 60 57 56 53 54 55 56 58 60 60 60 60 57 61 60 62 66 68 69 67 65 65 67 68 68 67
51 51 50 50 50 51 51 50 48 47 48 49 49 50 51 52 53 57 57 56 54 50 52 54 55 59 59 60 60 60 60 58 60 62 63 62 61 61 63 63 65 65 65
49 49 49 49 49 48 48 50 48 46 45 46 48 48 49 50 51 53 52 54 56 54 51 55 56 56 58 58 59 59 59 56 58 60 60 59 58 59 60 61 63 63 62
50 49 50 49 49 49 49 48 48 49 48 47 47 47 49 50 50 50 50 51 51 51 51 55 56 56 55 57 55 57 57 57 58 57 58 58 58 58 58 59 61 62 61
48 48 48 47 47 48 48 47 46 47 47 46 47 47 47 50 47 47 47 48 49 50 48 48 52 51 52 52 53 52 52 53 54 55 56 57 57 57 57 58 59 59 58
44 45 45 44 44 44 46 44 45 45 46 46 46 45 46 46 43 43 44 45 46 48 48 47 48 49 49 48 47 47 48 49 50 51 54 55 56 56 57 58 58 57 56
42 42 42 43 43 43 43 43 42 42 42 44 45 44 44 44 42 41 43 41 44 43 45 45 45 47 46 46 46 45 46 46 47 48 51 53 55 55 57 57 56 54 53
41 41 41 41 41 42 45 40 40 39 38 41 41 44 43 44 45 46 44 41 41 40 40 41 42 44 44 44 44 45 45 46 45 46 48 50 52 52 53 54 52 51 52
39 39 39 39 38 44 46 47 44 38 38 38 38 40 41 43 44 47 47 47 45 39 38 37 40 39 42 44 46 45 44 41 40 43 45 47 50 50 51 52 52 51 51
37 37 37 37 37 37 45 46 45 39 37 37 37 38 40 44 42 41 43 43 43 45 45 40 37 38 40 42 42 41 42 41 43 45 44 43 45 46 49 51 51 51 51
35 35 35 36 35 38 43 44 44 37 35 36 37 38 38 39 39 42 38 35 36 38 40 42 39 39 39 40 41 43 42 43 44 42 44 40 41 42 45 47 50 50 50
33 32 35 34 33 34 42 43 42 34 34 35 38 39 39 38 43 46 38 34 35 37 44 45 45 44 45 46 45 41 38 38 38 39 40 40 38 39 40 42 46 50 49
33 33 33 33 36 34 40 44 42 34 31 34 35 37 41 41 44 45 38 34 31 32 35 36 35 36 39 39 44 39 37 37 37 38 38 38 36 36 35 37 40 47 47

GFSMA_sfc_temp_111.txt.gz
Temp
65 66 67 68 70 70 68 66 68 67 67 68 69 69 67 67 68 70 66 67 71 74 76 77 77 75 75 75 74 74 73 73 73 72 72 71 71 71 71 71 70 70 70
65 66 65 67 69 70 70 67 66 67 67 68 68 69 71 69 70 71 69 67 68 71 74 76 77 77 76 75 75 74 74 73 73 73 72 72 71 71 71 71 70 71 70
66 67 65 65 66 67 67 66 65 65 65 66 66 69 68 68 72 73 73 68 68 67 70 74 75 76 76 76 76 75 74 73 73 73 73 72 71 71 71 70 70 70 70
67 66 65 65 66 66 66 65 64 63 63 64 63 64 64 65 66 67 69 71 69 71 68 71 73 74 75 76 77 76 75 74 73 72 72 72 71 71 71 70 70 70 70
71 69 66 65 66 65 64 64 63 63 62 62 62 63 63 64 65 68 67 68 70 69 69 68 68 69 71 74 76 77 76 75 73 72 72 72 71 71 71 71 70 70 69
65 66 65 62 63 63 63 62 62 62 62 62 64 64 64 64 64 64 66 68 67 69 67 68 67 68 67 71 74 75 76 76 74 73 72 72 71 71 71 71 70 70 70
64 62 61 62 63 62 62 63 62 61 60 60 59 62 62 63 63 65 65 67 68 70 70 71 69 70 70 68 71 73 75 76 75 74 73 72 72 71 71 71 71 70 70
61 61 59 59 59 59 60 60 60 59 59 60 60 58 59 62 62 64 65 66 66 69 69 71 72 70 70 68 68 69 72 75 76 75 73 72 72 72 72 72 71 71 70
57 57 57 57 56 56 58 59 60 59 58 61 60 60 54 54 56 60 62 64 66 66 68 69 70 72 71 70 66 67 66 70 74 76 75 73 72 72 72 72 71 71 70
54 55 55 56 56 55 54 55 57 55 57 58 61 61 61 60 56 57 58 62 64 64 66 67 68 69 69 69 66 66 64 65 70 74 75 74 74 73 73 73 72 72 71
52 53 53 53 53 53 52 53 52 53 53 54 58 60 61 60 59 57 55 60 62 65 65 67 67 68 70 69 67 67 64 66 70 72 75 75 75 74 74 73 72 72 71
51 52 52 52 52 51 50 50 50 50 51 51 51 52 58 58 60 58 57 59 59 62 63 64 65 65 65 66 64 63 62 65 69 71 74 74 74 74 74 72 70 70 70
48 49 51 50 50 51 51 50 50 50 50 49 49 49 52 51 55 60 59 58 58 58 58 60 62 65 65 65 66 60 60 63 66 70 72 73 72 71 71 70 70 69 68
48 50 49 50 50 51 50 49 47 46 48 47 47 47 49 50 51 52 51 55 55 56 57 57 57 60 61 63 63 57 60 59 62 66 68 69 68 66 67 68 68 69 68
51 48 48 48 48 49 48 49 47 44 46 46 46 46 47 48 49 51 50 50 49 50 52 54 54 58 59 59 59 60 60 58 60 61 63 63 61 61 63 64 65 65 65
49 48 48 47 47 47 47 47 45 46 45 45 46 45 45 47 47 48 47 49 50 48 49 54 55 55 58 58 59 59 59 56 57 59 60 59 59 59 59 61 62 62 63
45 45 45 45 44 44 44 42 43 45 44 44 44 45 46 47 46 44 45 47 48 48 46 49 52 54 55 57 57 58 59 59 59 57 59 58 58 57 58 58 59 60 61
43 43 42 42 42 42 42 40 39 40 41 42 43 44 44 46 44 43 44 44 44 46 46 45 48 49 50 50 50 53 55 54 56 56 57 57 57 57 57 57 57 57 58
40 40 40 40 40 41 40 39 40 39 39 39 40 41 42 43 42 41 42 41 43 44 44 43 44 47 48 47 47 48 48 49 50 51 54 54 55 56 56 56 56 56 56
38 38 39 39 39 39 40 40 39 38 37 39 40 40 40 41 40 39 41 40 42 39 40 40 41 43 45 46 46 45 46 46 47 49 51 52 53 54 55 55 55 54 54
37 37 37 37 37 39 43 39 38 36 35 36 37 39 40 42 44 45 42 38 38 37 38 38 37 38 40 42 43 45 44 46 46 46 46 48 50 52 53 54 53 52 53
35 35 35 35 35 41 44 45 43 36 35 35 34 36 38 40 41 45 46 46 43 38 35 36 36 36 37 38 42 39 40 40 40 44 44 46 49 49 51 52 52 52 53
33 33 33 34 34 33 43 44 44 38 35 34 34 35 36 41 39 38 41 42 41 43 42 38 34 35 36 38 38 36 36 38 39 44 44 43 44 46 49 50 52 51 51
32 32 32 32 32 36 42 43 43 36 33 32 33 34 34 35 37 40 37 34 34 35 36 39 36 35 37 38 37 38 37 38 39 41 43 40 42 42 44 47 50 51 50
30 30 32 31 30 31 40 42 41 32 32 32 34 35 36 35 40 43 39 35 33 34 41 43 43 43 43 43 42 37 32 34 34 37 40 40 38 39 40 42 46 50 50
31 30 31 30 33 29 38 41 40 32 30 31 32 34 38 38 41 41 37 35 31 31 33 34 34 34 37 35 41 35 32 33 34 34 35 35 37 36 36 38 40 46 48

GFSMA_sfc_temp_114.txt.gz
Temp
64 65 65 66 68 69 68 67 67 66 66 66 67 65 65 65 65 67 67 65 69 73 76 77 77 76 75 75 74 74 73 73 73 72 72 71 71 71 71 71 71 71 71
64 64 64 65 65 67 68 66 66 65 66 66 66 67 67 67 67 67 68 67 67 70 73 76 77 77 76 76 75 74 74 73 73 73 72 72 71 71 71 71 71 71 71
65 67 65 64 65 65 68 67 65 64 64 64 65 66 66 66 67 68 68 71 68 66 70 74 75 75 76 77 76 75 74 73 73 73 72 72 72 71 71 71 71 70 70
65 64 64 65 67 65 64 63 63 62 62 62 62 63 65 64 65 65 67 68 68 69 68 70 73 74 75 76 77 77 75 74 73 72 72 72 72 71 71 71 70 70 70
68 63 65 63 63 62 62 63 62 62 61 61 61 61 62 62 64 66 64 66 68 69 71 69 67 70 71 74 76 77 76 74 73 72 72 72 72 71 71 71 71 70 70
66 64 64 63 63 61 60 61 60 60 60 60 62 62 61 62 62 62 64 66 66 68 69 68 69 68 67 71 74 75 76 76 74 73 72 72 72 72 71 71 71 71 70
61 61 62 62 62 60 59 60 59 59 58 59 58 58 59 62 62 63 63 64 65 67 67 68 68 68 70 68 70 73 75 76 75 74 73 72 72 72 72 72 71 71 71
58 59 58 58 58 59 59 59 59 58 58 58 56 56 56 57 59 62 63 64 63 67 67 68 70 69 69 69 67 69 72 75 76 75 74 73 72 72 72 72 72 71 71
56 56 56 56 56 56 55 56 55 55 55 59 61 58 55 51 53 57 59 62 63 64 66 67 68 69 70 69 68 67 67 70 74 76 75 74 73 73 73 73 73 72 71
53 54 54 53 53 53 52 53 53 53 53 53 56 59 58 58 55 55 63 61 63 63 64 65 66 68 69 69 66 65 65 65 71 74 75 75 74 74 74 73 73 72 71
51 51 52 52 51 51 51 51 49 49 50 51 50 51 52 55 59 56 54 59 65 65 63 64 65 66 67 67 67 66 63 66 70 72 74 75 76 75 75 74 73 73 71
49 50 50 50 50 51 50 51 51 50 48 48 48 49 49 49 48 48 50 53 56 61 61 63 64 65 65 65 64 63 63 65 69 72 74 75 74 75 74 74 73 72 71
47 47 48 49 49 50 50 49 47 45 45 45 45 46 48 49 49 49 49 47 47 55 59 61 63 65 65 65 65 60 60 63 66 71 74 75 73 72 71 73 73 72 71
46 48 48 48 48 49 48 48 45 44 44 43 44 44 46 48 47 48 46 44 45 50 57 61 58 60 61 62 62 59 62 60 63 67 70 72 70 67 67 69 71 71 70
50 48 47 47 47 47 47 46 45 45 44 45 44 44 44 46 47 46 45 45 44 43 45 53 54 54 55 59 60 61 61 60 60 63 64 64 62 62 62 65 67 67 67
43 43 43 43 42 44 44 42 41 43 42 42 43 43 43 43 44 44 44 45 44 43 43 49 50 51 53 55 57 58 59 55 57 60 60 59 59 59 60 61 62 62 62
40 40 40 40 40 40 39 38 38 39 38 39 40 41 42 44 41 40 42 44 43 44 40 44 47 50 51 51 52 53 56 58 58 57 58 58 58 57 58 58 59 60 61
38 38 38 38 39 39 38 37 37 37 36 36 37 38 38 43 40 40 41 42 41 42 40 38 43 44 46 49 49 49 51 52 52 54 57 58 58 57 57 57 57 58 58
37 37 37 36 37 37 37 37 37 36 36 36 36 36 37 38 37 37 38 39 40 42 41 39 39 43 45 47 46 47 48 48 50 50 53 53 54 55 56 56 56 56 55
36 35 36 36 36 36 37 38 37 35 34 35 35 35 35 36 36 37 38 36 39 37 37 37 37 39 41 43 44 43 43 46 46 49 50 51 52 52 53 54 54 53 53
35 34 34 34 34 36 40 37 37 35 34 33 34 35 36 38 42 42 40 37 36 34 33 33 34 36 37 38 38 40 39 41 44 45 46 47 49 50 51 53 52 51 52
33 33 32 32 32 38 42 44 42 35 34 33 31 33 34 38 38 41 43 44 42 35 32 31 31 32 34 36 37 36 36 35 36 44 42 43 46 47 49 51 52 52 51
31 31 32 31 31 31 42 43 43 36 33 31 32 32 33 37 36 35 39 41 40 42 42 34 30 31 32 35 37 35 33 33 35 39 39 38 43 43 47 49 51 51 51
31 30 30 31 30 33 40 42 42 32 31 31 31 31 31 31 33 38 35 32 33 33 34 36 33 33 34 35 35 35 34 34 35 36 37 35 40 40 44 46 49 50 51
29 28 30 29 27 28 38 40 39 30 31 31 32 32 33 32 38 41 35 31 31 32 39 41 42 42 43 43 41 34 30 30 30 32 36 34 35 37 39 41 45 48 50
30 30 30 28 32 27 35 39 37 30 29 30 29 31 37 36 39 40 35 32 30 31 32 33 33 34 36 34 39 33 29 30 31 30 34 33 35 35 36 37 37 40 46

GFSMA_sfc_temp_117.txt.gz
Temp
66 66 66 65 65 65 66 66 67 67 66 66 66 66 65 65 65 66 65 64 67 71 74 76 77 76 75 75 75 74 73 73 73 72 72 72 71 71 71 71 71 71 71
66 66 66 64 65 66 66 67 65 65 65 65 66 66 67 67 66 66 66 66 66 68 71 74 76 77 76 76 75 75 74 73 73 73 72 72 71 71 71 71 71 71 71
63 66 65 64 65 65 65 65 64 63 64 64 65 65 66 66 65 66 66 66 65 65 68 72 74 75 76 76 76 76 75 73 73 73 72 72 72 71 71 71 71 71 71
63 63 64 63 64 62 62 62 62 61 62 62 62 63 64 64 65 65 66 66 67 69 68 68 71 74 75 76 77 77 75 74 73 72 72 72 72 71 71 71 71 71 70
62 63 63 64 62 62 60 60 61 61 59 60 60 60 61 61 62 64 63 64 66 68 69 69 66 68 71 73 76 77 77 75 73 73 72 72 72 71 71 71 71 71 70
62 62 63 63 62 61 61 60 59 59 59 60 60 60 60 60 60 61 62 64 64 65 67 68 69 67 66 71 73 75 76 76 74 73 73 72 72 72 72 71 71 71 71
58 58 59 60 61 59 60 60 59 57 57 59 57 56 57 59 60 61 62 62 62 63 64 66 67 68 68 67 70 73 75 76 76 75 73 73 72 72 72 72 72 72 71
55 56 57 57 57 58 57 56 55 57 59 59 56 56 52 54 56 59 60 61 62 63 63 64 65 67 68 68 67 68 72 75 76 75 74 73 72 72 72 72 72 72 71
54 54 54 54 55 55 54 53 53 53 53 56 56 56 53 48 54 57 57 59 60 61 62 64 65 66 67 67 67 67 66 69 73 75 75 74 73 73 73 73 73 72 72
51 52 52 53 52 52 52 52 52 51 52 50 53 54 52 53 51 50 56 59 62 61 63 64 64 65 66 66 66 64 65 65 69 73 75 75 75 74 73 73 73 72 72
50 50 51 51 51 51 51 50 49 49 49 49 48 49 51 50 51 48 48 50 55 61 63 65 66 65 65 65 65 65 63 66 70 71 73 75 76 75 74 73 73 73 72
48 49 50 49 50 50 49 49 47 47 47 48 47 48 46 47 46 46 46 47 47 53 55 57 62 64 65 65 64 63 63 65 68 70 73 74 74 75 75 74 73 73 72
46 46 47 46 45 47 47 48 47 46 45 43 43 43 45 48 46 47 47 44 44 48 52 53 60 61 57 58 61 59 60 63 65 69 72 73 72 72 72 73 73 72 72
45 46 46 47 47 47 47 46 46 45 46 44 43 43 43 44 44 46 42 40 40 46 49 51 55 52 52 53 54 54 59 60 62 66 69 70 69 68 68 69 69 70 70
45 41 40 40 41 42 43 43 41 39 39 40 41 41 41 43 44 42 41 41 41 38 40 49 47 50 49 52 52 53 53 55 60 61 63 63 62 62 64 66 67 68 68
39 39 39 38 38 38 38 37 37 37 36 36 39 38 39 41 42 41 40 41 41 38 37 44 43 45 47 48 51 51 52 52 54 59 60 59 59 60 61 62 63 64 64
37 37 37 37 37 37 36 36 36 36 35 35 35 35 36 38 38 39 39 41 39 40 35 39 42 43 44 45 47 49 51 52 52 53 54 57 58 58 59 59 59 60 61
36 36 36 36 36 36 36 35 35 35 34 34 34 34 34 39 35 35 36 36 38 39 37 34 38 39 40 43 44 44 48 50 48 51 52 53 54 56 57 57 57 58 58
34 35 35 34 34 35 35 35 35 34 34 34 33 33 33 33 32 33 34 35 35 39 35 34 34 38 40 41 40 43 43 43 46 48 51 52 53 53 53 55 56 56 56
34 34 34 34 34 34 35 36 35 34 33 34 34 33 33 33 32 33 35 34 36 33 33 32 33 34 36 39 40 38 38 41 41 46 48 48 49 50 52 53 53 52 52
33 32 32 33 32 34 38 36 35 34 33 32 32 33 34 36 40 39 38 34 33 32 32 31 30 31 32 33 34 37 36 37 38 43 41 42 43 46 49 51 50 50 51
31 31 31 31 30 36 40 43 41 33 32 31 30 31 32 36 36 40 41 42 40 34 32 32 29 29 30 32 33 34 34 32 30 40 37 37 42 43 45 47 50 50 50
29 29 30 30 29 29 41 42 42 32 31 30 31 31 32 36 34 32 36 40 38 40 40 35 30 29 30 32 33 30 30 31 31 36 36 33 39 39 44 47 48 48 49
29 29 28 29 28 31 39 41 41 31 29 30 31 29 29 29 31 36 33 31 31 31 32 35 32 32 32 33 33 36 32 30 33 35 36 30 37 35 40 43 47 48 48
27 27 29 27 26 28 37 39 37 30 31 30 30 30 31 30 36 40 34 30 30 31 38 40 40 41 41 42 40 35 29 27 28 30 33 32 32 35 36 38 42 45 46
30 30 30 28 30 27 34 37 37 30 28 29 29 30 36 35 38 39 36 32 31 30 31 31 31 33 35 33 39 33 31 25 27 25 32 31 31 30 29 35 38 41 42